Wetterdaten: Dienstag, 06.02.2018
Datum Zeit Temp. A. Pool Temp. Feuchte A. Luftdruck Regen Wind Richtung Richtung Sonnenschein ET UV Solar Taupunkt Windchill Windben Empfang
06.02.2018 00:00 -0,7 C 4,4 C 81 % 1020,1 hPa 0,0 l/m 21,9 km/h (4 Bft) O-NO 63 0 min 0,000 mm 0,0 UV-I 0 W/m -3,5 C -11,4 C 27,4 km/h (4 Bft) 95,74 %
06.02.2018 00:02 -0,7 C 4,4 C 81 % 1020,0 hPa 0,0 l/m 17,4 km/h (3 Bft) O-NO 68 0 min 0,000 mm 0,0 UV-I 0 W/m -3,5 C -9,2 C 32,2 km/h (5 Bft) 95,74 %
06.02.2018 00:04 -0,7 C 4,4 C 80 % 1020,0 hPa 0,0 l/m 20,9 km/h (4 Bft) O-NO 65 0 min 0,000 mm 0,0 UV-I 0 W/m -3,7 C -11,0 C 29,0 km/h (5 Bft) 95,74 %
06.02.2018 00:06 -0,7 C 4,4 C 81 % 1020,0 hPa 0,0 l/m 16,7 km/h (3 Bft) NO 55 0 min 0,000 mm 0,0 UV-I 0 W/m -3,5 C -8,8 C 22,5 km/h (4 Bft) 97,22 %
06.02.2018 00:08 -0,8 C 4,4 C 81 % 1020,0 hPa 0,0 l/m 20,2 km/h (4 Bft) NO 52 0 min 0,000 mm 0,0 UV-I 0 W/m -3,6 C -10,8 C 27,4 km/h (4 Bft) 97,87 %
06.02.2018 00:10 -0,8 C 4,4 C 81 % 1019,9 hPa 0,0 l/m 18,9 km/h (3 Bft) O-NO 73 0 min 0,000 mm 0,0 UV-I 0 W/m -3,6 C -10,1 C 27,4 km/h (4 Bft) 93,62 %
06.02.2018 00:12 -0,8 C 4,4 C 81 % 1019,9 hPa 0,0 l/m 20,1 km/h (4 Bft) NO 51 0 min 0,000 mm 0,0 UV-I 0 W/m -3,6 C -10,7 C 32,2 km/h (5 Bft) 97,87 %
06.02.2018 00:14 -0,8 C 4,4 C 81 % 1019,8 hPa 0,0 l/m 16,5 km/h (3 Bft) O 98 0 min 0,000 mm 0,0 UV-I 0 W/m -3,6 C -8,8 C 25,7 km/h (4 Bft) 95,74 %
06.02.2018 00:16 -0,8 C 4,4 C 81 % 1019,8 hPa 0,0 l/m 12,3 km/h (3 Bft) O 82 0 min 0,000 mm 0,0 UV-I 0 W/m -3,6 C -6,1 C 17,7 km/h (3 Bft) 95,74 %
06.02.2018 00:18 -0,8 C 4,4 C 82 % 1019,8 hPa 0,0 l/m 15,0 km/h (3 Bft) O 89 0 min 0,000 mm 0,0 UV-I 0 W/m -3,5 C -8,0 C 24,1 km/h (4 Bft) 95,74 %
06.02.2018 00:20 -0,8 C 4,4 C 81 % 1019,7 hPa 0,0 l/m 20,9 km/h (4 Bft) O-NO 57 0 min 0,000 mm 0,0 UV-I 0 W/m -3,6 C -11,1 C 32,2 km/h (5 Bft) 97,87 %
06.02.2018 00:22 -0,8 C 4,4 C 81 % 1019,7 hPa 0,0 l/m 22,9 km/h (4 Bft) NO 39 0 min 0,000 mm 0,0 UV-I 0 W/m -3,6 C -12,0 C 29,0 km/h (5 Bft) 98,00 %
06.02.2018 00:24 -0,8 C 4,4 C 81 % 1019,7 hPa 0,0 l/m 19,2 km/h (3 Bft) O-NO 74 0 min 0,000 mm 0,0 UV-I 0 W/m -3,6 C -10,3 C 27,4 km/h (4 Bft) 96,00 %
06.02.2018 00:26 -0,8 C 4,4 C 81 % 1019,7 hPa 0,0 l/m 20,3 km/h (4 Bft) O 91 0 min 0,000 mm 0,0 UV-I 0 W/m -3,6 C -10,8 C 32,2 km/h (5 Bft) 97,87 %
06.02.2018 00:28 -0,8 C 4,4 C 81 % 1019,6 hPa 0,0 l/m 19,1 km/h (3 Bft) O-NO 67 0 min 0,000 mm 0,0 UV-I 0 W/m -3,6 C -10,2 C 27,4 km/h (4 Bft) 100,00 %
06.02.2018 00:30 -0,8 C 4,4 C 82 % 1019,6 hPa 0,0 l/m 13,3 km/h (3 Bft) O-NO 57 0 min 0,000 mm 0,0 UV-I 0 W/m -3,5 C -6,8 C 19,3 km/h (3 Bft) 97,87 %
06.02.2018 00:32 -0,9 C 4,4 C 82 % 1019,6 hPa 0,0 l/m 19,1 km/h (3 Bft) O-NO 75 0 min 0,000 mm 0,0 UV-I 0 W/m -3,6 C -10,4 C 27,4 km/h (4 Bft) 97,87 %
06.02.2018 00:34 -0,9 C 4,4 C 82 % 1019,5 hPa 0,0 l/m 18,0 km/h (3 Bft) O-NO 62 0 min 0,000 mm 0,0 UV-I 0 W/m -3,6 C -9,8 C 29,0 km/h (5 Bft) 100,00 %
06.02.2018 00:36 -0,9 C 4,4 C 82 % 1019,5 hPa 0,0 l/m 19,5 km/h (3 Bft) O-NO 61 0 min 0,000 mm 0,0 UV-I 0 W/m -3,6 C -10,6 C 25,7 km/h (4 Bft) 97,87 %
06.02.2018 00:38 -0,9 C 4,4 C 82 % 1019,5 hPa 0,0 l/m 17,6 km/h (3 Bft) O-NO 62 0 min 0,000 mm 0,0 UV-I 0 W/m -3,6 C -9,6 C 22,5 km/h (4 Bft) 97,87 %
06.02.2018 00:40 -0,9 C 4,4 C 82 % 1019,5 hPa 0,0 l/m 18,9 km/h (3 Bft) O-NO 65 0 min 0,000 mm 0,0 UV-I 0 W/m -3,6 C -10,3 C 24,1 km/h (4 Bft) 100,00 %
06.02.2018 00:42 -0,9 C 4,4 C 82 % 1019,5 hPa 0,0 l/m 20,3 km/h (4 Bft) NO 50 0 min 0,000 mm 0,0 UV-I 0 W/m -3,6 C -10,9 C 27,4 km/h (4 Bft) 98,04 %
06.02.2018 00:44 -1,0 C 4,4 C 82 % 1019,5 hPa 0,0 l/m 22,5 km/h (4 Bft) NO 43 0 min 0,000 mm 0,0 UV-I 0 W/m -3,7 C -12,1 C 29,0 km/h (5 Bft) 100,00 %
06.02.2018 00:46 -1,0 C 4,4 C 82 % 1019,4 hPa 0,0 l/m 18,1 km/h (3 Bft) O-NO 71 0 min 0,000 mm 0,0 UV-I 0 W/m -3,7 C -10,0 C 25,7 km/h (4 Bft) 93,88 %
06.02.2018 00:48 -1,0 C 4,4 C 82 % 1019,4 hPa 0,0 l/m 14,9 km/h (3 Bft) O-NO 57 0 min 0,000 mm 0,0 UV-I 0 W/m -3,7 C -8,1 C 19,3 km/h (3 Bft) 97,92 %
06.02.2018 00:50 -1,0 C 4,4 C 82 % 1019,5 hPa 0,0 l/m 18,7 km/h (3 Bft) O-NO 65 0 min 0,000 mm 0,0 UV-I 0 W/m -3,7 C -10,3 C 27,4 km/h (4 Bft) 97,87 %
06.02.2018 00:52 -1,0 C 4,4 C 82 % 1019,4 hPa 0,0 l/m 17,8 km/h (3 Bft) NO 54 0 min 0,000 mm 0,0 UV-I 0 W/m -3,7 C -9,8 C 27,4 km/h (4 Bft) 96,00 %
06.02.2018 00:54 -1,1 C 4,4 C 83 % 1019,4 hPa 0,0 l/m 16,8 km/h (3 Bft) NO 53 0 min 0,000 mm 0,0 UV-I 0 W/m -3,6 C -9,4 C 24,1 km/h (4 Bft) 97,87 %
06.02.2018 00:56 -1,1 C 4,4 C 82 % 1019,4 hPa 0,0 l/m 18,4 km/h (3 Bft) O 82 0 min 0,000 mm 0,0 UV-I 0 W/m -3,8 C -10,3 C 25,7 km/h (4 Bft) 97,14 %
06.02.2018 00:58 -1,1 C 4,4 C 83 % 1019,3 hPa 0,0 l/m 16,0 km/h (3 Bft) NO 53 0 min 0,000 mm 0,0 UV-I 0 W/m -3,6 C -8,9 C 25,7 km/h (4 Bft) 98,00 %
06.02.2018 01:00 -1,1 C 4,4 C 83 % 1019,3 hPa 0,0 l/m 17,9 km/h (3 Bft) NO 49 0 min 0,025 mm 0,0 UV-I 0 W/m -3,6 C -10,0 C 24,1 km/h (4 Bft) 100,00 %
06.02.2018 01:02 -1,1 C 4,4 C 83 % 1019,3 hPa 0,0 l/m 21,5 km/h (4 Bft) O-NO 65 0 min 0,000 mm 0,0 UV-I 0 W/m -3,6 C -11,8 C 27,4 km/h (4 Bft) 98,00 %
06.02.2018 01:04 -1,1 C 4,4 C 82 % 1019,3 hPa 0,0 l/m 20,1 km/h (4 Bft) O-NO 57 0 min 0,000 mm 0,0 UV-I 0 W/m -3,8 C -11,1 C 27,4 km/h (4 Bft) 100,00 %
06.02.2018 01:06 -1,1 C 4,4 C 82 % 1019,3 hPa 0,0 l/m 20,4 km/h (4 Bft) O-NO 67 0 min 0,000 mm 0,0 UV-I 0 W/m -3,8 C -11,2 C 27,4 km/h (4 Bft) 97,87 %
06.02.2018 01:08 -1,1 C 4,4 C 82 % 1019,3 hPa 0,0 l/m 17,0 km/h (3 Bft) NO 46 0 min 0,000 mm 0,0 UV-I 0 W/m -3,8 C -9,5 C 25,7 km/h (4 Bft) 95,74 %
06.02.2018 01:10 -1,1 C 4,4 C 82 % 1019,2 hPa 0,0 l/m 18,7 km/h (3 Bft) O-NO 59 0 min 0,000 mm 0,0 UV-I 0 W/m -3,8 C -10,4 C 27,4 km/h (4 Bft) 97,87 %
06.02.2018 01:12 -1,1 C 4,4 C 82 % 1019,2 hPa 0,0 l/m 19,9 km/h (4 Bft) O-NO 71 0 min 0,000 mm 0,0 UV-I 0 W/m -3,8 C -11,0 C 32,2 km/h (5 Bft) 97,87 %
06.02.2018 01:14 -1,1 C 4,4 C 82 % 1019,2 hPa 0,0 l/m 17,7 km/h (3 Bft) NO 46 0 min 0,000 mm 0,0 UV-I 0 W/m -3,8 C -9,9 C 24,1 km/h (4 Bft) 100,00 %
06.02.2018 01:16 -1,1 C 4,4 C 82 % 1019,2 hPa 0,0 l/m 19,4 km/h (3 Bft) O-NO 60 0 min 0,000 mm 0,0 UV-I 0 W/m -3,8 C -10,8 C 27,4 km/h (4 Bft) 100,00 %
06.02.2018 01:18 -1,2 C 4,4 C 82 % 1019,1 hPa 0,0 l/m 21,1 km/h (4 Bft) NO 47 0 min 0,000 mm 0,0 UV-I 0 W/m -3,9 C -11,7 C 29,0 km/h (5 Bft) 98,00 %
06.02.2018 01:20 -1,2 C 4,4 C 82 % 1019,1 hPa 0,0 l/m 21,2 km/h (4 Bft) O-NO 76 0 min 0,000 mm 0,0 UV-I 0 W/m -3,9 C -11,7 C 29,0 km/h (5 Bft) 100,00 %
06.02.2018 01:22 -1,2 C 4,4 C 82 % 1019,1 hPa 0,0 l/m 21,1 km/h (4 Bft) O-NO 61 0 min 0,000 mm 0,0 UV-I 0 W/m -3,9 C -11,7 C 30,6 km/h (5 Bft) 97,87 %
06.02.2018 01:24 -1,2 C 4,4 C 82 % 1019,1 hPa 0,0 l/m 17,1 km/h (3 Bft) O-NO 65 0 min 0,000 mm 0,0 UV-I 0 W/m -3,9 C -9,7 C 24,1 km/h (4 Bft) 97,87 %
06.02.2018 01:26 -1,2 C 4,4 C 83 % 1019,1 hPa 0,0 l/m 18,3 km/h (3 Bft) O-NO 65 0 min 0,000 mm 0,0 UV-I 0 W/m -3,7 C -10,3 C 25,7 km/h (4 Bft) 98,00 %
06.02.2018 01:28 -1,2 C 4,4 C 83 % 1019,1 hPa 0,0 l/m 19,3 km/h (3 Bft) O-NO 57 0 min 0,000 mm 0,0 UV-I 0 W/m -3,7 C -10,8 C 29,0 km/h (5 Bft) 100,00 %
06.02.2018 01:30 -1,2 C 4,4 C 83 % 1019,1 hPa 0,0 l/m 19,1 km/h (3 Bft) O-NO 59 0 min 0,000 mm 0,0 UV-I 0 W/m -3,7 C -10,7 C 24,1 km/h (4 Bft) 100,00 %
06.02.2018 01:32 -1,2 C 4,4 C 83 % 1019,0 hPa 0,0 l/m 17,7 km/h (3 Bft) O-NO 67 0 min 0,000 mm 0,0 UV-I 0 W/m -3,7 C -10,0 C 27,4 km/h (4 Bft) 100,00 %
06.02.2018 01:34 -1,3 C 4,4 C 83 % 1019,0 hPa 0,0 l/m 19,1 km/h (3 Bft) NO 49 0 min 0,000 mm 0,0 UV-I 0 W/m -3,8 C -10,9 C 27,4 km/h (4 Bft) 100,00 %
06.02.2018 01:36 -1,3 C 4,4 C 83 % 1019,0 hPa 0,0 l/m 17,0 km/h (3 Bft) O-NO 57 0 min 0,000 mm 0,0 UV-I 0 W/m -3,8 C -9,7 C 25,7 km/h (4 Bft) 98,00 %
06.02.2018 01:38 -1,3 C 4,4 C 83 % 1018,9 hPa 0,0 l/m 15,5 km/h (3 Bft) NO 49 0 min 0,000 mm 0,0 UV-I 0 W/m -3,8 C -8,9 C 22,5 km/h (4 Bft) 100,00 %
06.02.2018 01:40 -1,3 C 4,4 C 83 % 1019,0 hPa 0,0 l/m 19,8 km/h (3 Bft) NO 56 0 min 0,000 mm 0,0 UV-I 0 W/m -3,8 C -11,2 C 27,4 km/h (4 Bft) 100,00 %
06.02.2018 01:42 -1,3 C 4,4 C 83 % 1018,9 hPa 0,0 l/m 20,8 km/h (4 Bft) O-NO 64 0 min 0,000 mm 0,0 UV-I 0 W/m -3,8 C -11,7 C 27,4 km/h (4 Bft) 97,37 %
06.02.2018 01:44 -1,3 C 4,4 C 83 % 1018,9 hPa 0,0 l/m 20,6 km/h (4 Bft) NO 51 0 min 0,000 mm 0,0 UV-I 0 W/m -3,8 C -11,6 C 29,0 km/h (5 Bft) 100,00 %
06.02.2018 01:46 -1,3 C 4,4 C 83 % 1018,9 hPa 0,0 l/m 17,4 km/h (3 Bft) NO 53 0 min 0,000 mm 0,0 UV-I 0 W/m -3,8 C -10,0 C 25,7 km/h (4 Bft) 98,00 %
06.02.2018 01:48 -1,3 C 4,4 C 83 % 1018,9 hPa 0,0 l/m 17,8 km/h (3 Bft) O-NO 61 0 min 0,000 mm 0,0 UV-I 0 W/m -3,8 C -10,2 C 24,1 km/h (4 Bft) 100,00 %
06.02.2018 01:50 -1,3 C 4,4 C 83 % 1018,9 hPa 0,0 l/m 15,8 km/h (3 Bft) O-NO 71 0 min 0,000 mm 0,0 UV-I 0 W/m -3,8 C -9,0 C 22,5 km/h (4 Bft) 98,00 %
06.02.2018 01:52 -1,4 C 4,4 C 83 % 1018,8 hPa 0,0 l/m 17,6 km/h (3 Bft) NO 52 0 min 0,000 mm 0,0 UV-I 0 W/m -3,9 C -10,2 C 27,4 km/h (4 Bft) 97,87 %
06.02.2018 01:54 -1,4 C 4,4 C 83 % 1018,8 hPa 0,0 l/m 15,2 km/h (3 Bft) NO 55 0 min 0,000 mm 0,0 UV-I 0 W/m -3,9 C -8,8 C 24,1 km/h (4 Bft) 95,74 %
06.02.2018 01:56 -1,4 C 4,4 C 83 % 1018,8 hPa 0,0 l/m 14,6 km/h (3 Bft) NO 53 0 min 0,000 mm 0,0 UV-I 0 W/m -3,9 C -8,4 C 22,5 km/h (4 Bft) 95,74 %
06.02.2018 01:58 -1,4 C 4,4 C 83 % 1018,8 hPa 0,0 l/m 13,7 km/h (3 Bft) NO 44 0 min 0,000 mm 0,0 UV-I 0 W/m -3,9 C -7,8 C 19,3 km/h (3 Bft) 91,49 %
06.02.2018 02:00 -1,5 C 4,4 C 83 % 1018,8 hPa 0,0 l/m 15,0 km/h (3 Bft) O-NO 58 0 min 0,026 mm 0,0 UV-I 0 W/m -4,0 C -8,8 C 20,9 km/h (4 Bft) 97,87 %
06.02.2018 02:02 -1,6 C 4,4 C 83 % 1018,8 hPa 0,0 l/m 18,4 km/h (3 Bft) O-NO 63 0 min 0,000 mm 0,0 UV-I 0 W/m -4,1 C -10,9 C 25,7 km/h (4 Bft) 97,87 %
06.02.2018 02:04 -1,6 C 4,4 C 83 % 1018,8 hPa 0,0 l/m 18,0 km/h (3 Bft) O-NO 57 0 min 0,000 mm 0,0 UV-I 0 W/m -4,1 C -10,7 C 24,1 km/h (4 Bft) 94,87 %
06.02.2018 02:06 -1,6 C 4,4 C 83 % 1018,9 hPa 0,0 l/m 14,1 km/h (3 Bft) NO 51 0 min 0,000 mm 0,0 UV-I 0 W/m -4,1 C -8,3 C 17,7 km/h (3 Bft) 97,87 %
06.02.2018 02:08 -1,7 C 4,4 C 84 % 1018,8 hPa 0,0 l/m 14,6 km/h (3 Bft) NO 53 0 min 0,000 mm 0,0 UV-I 0 W/m -4,0 C -8,8 C 20,9 km/h (4 Bft) 98,00 %
06.02.2018 02:10 -1,7 C 4,4 C 84 % 1018,8 hPa 0,0 l/m 13,9 km/h (3 Bft) O-NO 69 0 min 0,000 mm 0,0 UV-I 0 W/m -4,0 C -8,3 C 19,3 km/h (3 Bft) 95,74 %
06.02.2018 02:12 -1,7 C 4,4 C 84 % 1018,8 hPa 0,0 l/m 13,4 km/h (3 Bft) O-NO 57 0 min 0,000 mm 0,0 UV-I 0 W/m -4,0 C -8,0 C 19,3 km/h (3 Bft) 95,74 %
06.02.2018 02:14 -1,7 C 4,4 C 84 % 1018,7 hPa 0,0 l/m 13,1 km/h (3 Bft) O-NO 76 0 min 0,000 mm 0,0 UV-I 0 W/m -4,0 C -7,8 C 19,3 km/h (3 Bft) 95,74 %
06.02.2018 02:16 -1,8 C 4,4 C 84 % 1018,7 hPa 0,0 l/m 12,6 km/h (3 Bft) O-NO 58 0 min 0,000 mm 0,0 UV-I 0 W/m -4,1 C -7,5 C 19,3 km/h (3 Bft) 95,74 %
06.02.2018 02:18 -1,8 C 4,4 C 84 % 1018,7 hPa 0,0 l/m 10,3 km/h (2 Bft) O-NO 65 0 min 0,000 mm 0,0 UV-I 0 W/m -4,1 C -5,7 C 16,1 km/h (3 Bft) 94,00 %
06.02.2018 02:20 -1,8 C 4,4 C 84 % 1018,7 hPa 0,0 l/m 10,3 km/h (2 Bft) NO 53 0 min 0,000 mm 0,0 UV-I 0 W/m -4,1 C -5,7 C 19,3 km/h (3 Bft) 93,62 %
06.02.2018 02:22 -1,8 C 4,4 C 84 % 1018,7 hPa 0,0 l/m 13,5 km/h (3 Bft) O-NO 62 0 min 0,000 mm 0,0 UV-I 0 W/m -4,1 C -8,2 C 17,7 km/h (3 Bft) 95,74 %
06.02.2018 02:24 -1,9 C 4,4 C 84 % 1018,7 hPa 0,0 l/m 11,8 km/h (2 Bft) NO 56 0 min 0,000 mm 0,0 UV-I 0 W/m -4,2 C -7,0 C 19,3 km/h (3 Bft) 94,74 %
06.02.2018 02:26 -1,9 C 4,4 C 84 % 1018,7 hPa 0,0 l/m 13,2 km/h (3 Bft) O-NO 63 0 min 0,000 mm 0,0 UV-I 0 W/m -4,2 C -8,1 C 19,3 km/h (3 Bft) 95,74 %
06.02.2018 02:28 -1,9 C 4,4 C 84 % 1018,6 hPa 0,0 l/m 12,4 km/h (3 Bft) O-NO 59 0 min 0,000 mm 0,0 UV-I 0 W/m -4,2 C -7,5 C 20,9 km/h (4 Bft) 95,74 %
06.02.2018 02:30 -1,9 C 4,4 C 84 % 1018,7 hPa 0,0 l/m 11,0 km/h (2 Bft) NO 38 0 min 0,000 mm 0,0 UV-I 0 W/m -4,2 C -6,4 C 17,7 km/h (3 Bft) 95,74 %
06.02.2018 02:32 -1,9 C 4,4 C 84 % 1018,6 hPa 0,0 l/m 13,1 km/h (3 Bft) NO 37 0 min 0,000 mm 0,0 UV-I 0 W/m -4,2 C -8,0 C 19,3 km/h (3 Bft) 97,87 %
06.02.2018 02:34 -1,9 C 4,4 C 84 % 1018,6 hPa 0,0 l/m 9,7 km/h (2 Bft) O-NO 60 0 min 0,000 mm 0,0 UV-I 0 W/m -4,2 C -5,3 C 14,5 km/h (3 Bft) 96,00 %
06.02.2018 02:36 -1,9 C 4,4 C 84 % 1018,5 hPa 0,0 l/m 10,2 km/h (2 Bft) NO 52 0 min 0,000 mm 0,0 UV-I 0 W/m -4,2 C -5,7 C 14,5 km/h (3 Bft) 97,87 %
06.02.2018 02:38 -1,9 C 4,4 C 84 % 1018,5 hPa 0,0 l/m 10,1 km/h (2 Bft) NO 44 0 min 0,000 mm 0,0 UV-I 0 W/m -4,2 C -5,6 C 14,5 km/h (3 Bft) 95,74 %
06.02.2018 02:40 -2,0 C 4,4 C 85 % 1018,6 hPa 0,0 l/m 8,8 km/h (2 Bft) O-NO 58 0 min 0,000 mm 0,0 UV-I 0 W/m -4,2 C -4,5 C 16,1 km/h (3 Bft) 98,00 %
06.02.2018 02:42 -2,0 C 4,4 C 84 % 1018,5 hPa 0,0 l/m 9,2 km/h (2 Bft) NO 37 0 min 0,000 mm 0,0 UV-I 0 W/m -4,3 C -4,9 C 16,1 km/h (3 Bft) 93,62 %
06.02.2018 02:44 -2,0 C 4,4 C 85 % 1018,5 hPa 0,0 l/m 10,5 km/h (2 Bft) O-NO 66 0 min 0,000 mm 0,0 UV-I 0 W/m -4,2 C -6,1 C 16,1 km/h (3 Bft) 97,92 %
06.02.2018 02:46 -2,0 C 4,4 C 85 % 1018,4 hPa 0,0 l/m 7,4 km/h (2 Bft) N-NO 30 0 min 0,000 mm 0,0 UV-I 0 W/m -4,2 C -3,1 C 14,5 km/h (3 Bft) 97,87 %
06.02.2018 02:48 -2,1 C 4,4 C 85 % 1018,4 hPa 0,0 l/m 6,8 km/h (2 Bft) NO 44 0 min 0,000 mm 0,0 UV-I 0 W/m -4,3 C -2,5 C 11,3 km/h (2 Bft) 97,37 %
06.02.2018 02:50 -2,1 C 4,4 C 85 % 1018,4 hPa 0,0 l/m 10,8 km/h (2 Bft) O-NO 61 0 min 0,000 mm 0,0 UV-I 0 W/m -4,3 C -6,5 C 16,1 km/h (3 Bft) 97,87 %
06.02.2018 02:52 -2,1 C 4,4 C 85 % 1018,4 hPa 0,0 l/m 7,2 km/h (2 Bft) NO 49 0 min 0,000 mm 0,0 UV-I 0 W/m -4,3 C -3,0 C 9,7 km/h (2 Bft) 98,00 %
06.02.2018 02:54 -2,2 C 4,4 C 85 % 1018,4 hPa 0,0 l/m 8,8 km/h (2 Bft) NO 38 0 min 0,000 mm 0,0 UV-I 0 W/m -4,4 C -4,8 C 14,5 km/h (3 Bft) 95,74 %
06.02.2018 02:56 -2,2 C 4,4 C 85 % 1018,3 hPa 0,0 l/m 10,0 km/h (2 Bft) NO 34 0 min 0,000 mm 0,0 UV-I 0 W/m -4,4 C -5,9 C 14,5 km/h (3 Bft) 96,23 %
06.02.2018 02:58 -2,2 C 4,4 C 85 % 1018,2 hPa 0,0 l/m 9,4 km/h (2 Bft) NO 53 0 min 0,000 mm 0,0 UV-I 0 W/m -4,4 C -5,3 C 14,5 km/h (3 Bft) 95,74 %
06.02.2018 03:00 -2,2 C 4,4 C 85 % 1018,2 hPa 0,0 l/m 7,6 km/h (2 Bft) NO 46 0 min 0,025 mm 0,0 UV-I 0 W/m -4,4 C -3,5 C 9,7 km/h (2 Bft) 97,14 %
06.02.2018 03:02 -2,2 C 4,4 C 85 % 1018,2 hPa 0,0 l/m 10,2 km/h (2 Bft) NO 46 0 min 0,000 mm 0,0 UV-I 0 W/m -4,4 C -6,1 C 16,1 km/h (3 Bft) 98,00 %
06.02.2018 03:04 -2,2 C 4,4 C 85 % 1018,2 hPa 0,0 l/m 10,1 km/h (2 Bft) O-NO 71 0 min 0,000 mm 0,0 UV-I 0 W/m -4,4 C -6,0 C 16,1 km/h (3 Bft) 98,00 %
06.02.2018 03:06 -2,2 C 4,4 C 85 % 1018,2 hPa 0,0 l/m 8,5 km/h (2 Bft) NO 41 0 min 0,000 mm 0,0 UV-I 0 W/m -4,4 C -4,5 C 12,9 km/h (3 Bft) 97,87 %
06.02.2018 03:08 -2,2 C 4,4 C 84 % 1018,1 hPa 0,0 l/m 7,8 km/h (2 Bft) O-NO 63 0 min 0,000 mm 0,0 UV-I 0 W/m -4,5 C -3,7 C 11,3 km/h (2 Bft) 97,87 %
06.02.2018 03:10 -2,2 C 4,4 C 85 % 1018,0 hPa 0,0 l/m 7,7 km/h (2 Bft) N-NO 33 0 min 0,000 mm 0,0 UV-I 0 W/m -4,4 C -3,6 C 12,9 km/h (3 Bft) 95,74 %
06.02.2018 03:12 -2,3 C 4,4 C 85 % 1018,0 hPa 0,0 l/m 9,9 km/h (2 Bft) NO 40 0 min 0,000 mm 0,0 UV-I 0 W/m -4,5 C -5,9 C 16,1 km/h (3 Bft) 91,49 %
06.02.2018 03:14 -2,3 C 4,4 C 85 % 1018,0 hPa 0,0 l/m 9,7 km/h (2 Bft) N-NO 32 0 min 0,000 mm 0,0 UV-I 0 W/m -4,5 C -5,7 C 16,1 km/h (3 Bft) 98,00 %
06.02.2018 03:16 -2,3 C 4,4 C 85 % 1018,0 hPa 0,0 l/m 10,2 km/h (2 Bft) O-NO 63 0 min 0,000 mm 0,0 UV-I 0 W/m -4,5 C -6,2 C 16,1 km/h (3 Bft) 95,74 %
06.02.2018 03:18 -2,4 C 4,4 C 85 % 1017,9 hPa 0,0 l/m 10,8 km/h (2 Bft) N-NO 30 0 min 0,000 mm 0,0 UV-I 0 W/m -4,6 C -6,8 C 16,1 km/h (3 Bft) 97,87 %
06.02.2018 03:20 -2,4 C 4,4 C 85 % 1017,9 hPa 0,0 l/m 8,4 km/h (2 Bft) NO 40 0 min 0,000 mm 0,0 UV-I 0 W/m -4,6 C -4,6 C 14,5 km/h (3 Bft) 98,00 %
06.02.2018 03:22 -2,4 C 4,4 C 85 % 1017,9 hPa 0,0 l/m 8,7 km/h (2 Bft) O-NO 60 0 min 0,000 mm 0,0 UV-I 0 W/m -4,6 C -4,9 C 14,5 km/h (3 Bft) 100,00 %
06.02.2018 03:25 -2,3 C 4,4 C 85 % 1017,9 hPa 0,0 l/m 7,4 km/h (2 Bft) NO 44 0 min 0,000 mm 0,0 UV-I 0 W/m -4,5 C -3,4 C 14,5 km/h (3 Bft) 97,56 %
06.02.2018 03:26 -2,4 C 4,4 C 85 % 1017,9 hPa 0,0 l/m 7,6 km/h (2 Bft) O-NO 69 0 min 0,000 mm 0,0 UV-I 0 W/m -4,6 C -3,7 C 9,7 km/h (2 Bft) 100,00 %
06.02.2018 03:28 -2,3 C 4,4 C 85 % 1017,9 hPa 0,0 l/m 7,6 km/h (2 Bft) NO 47 0 min 0,000 mm 0,0 UV-I 0 W/m -4,5 C -3,6 C 11,3 km/h (2 Bft) 100,00 %
06.02.2018 03:30 -2,4 C 4,4 C 85 % 1017,9 hPa 0,0 l/m 6,6 km/h (2 Bft) NO 46 0 min 0,000 mm 0,0 UV-I 0 W/m -4,6 C -2,6 C 11,3 km/h (2 Bft) 100,00 %
06.02.2018 03:32 -2,4 C 4,4 C 85 % 1017,8 hPa 0,0 l/m 8,8 km/h (2 Bft) NO 34 0 min 0,000 mm 0,0 UV-I 0 W/m -4,6 C -5,0 C 14,5 km/h (3 Bft) 97,87 %
06.02.2018 03:34 -2,4 C 4,4 C 85 % 1017,8 hPa 0,0 l/m 8,0 km/h (2 Bft) O-NO 61 0 min 0,000 mm 0,0 UV-I 0 W/m -4,6 C -4,2 C 12,9 km/h (3 Bft) 100,00 %
06.02.2018 03:36 -2,4 C 4,4 C 85 % 1017,8 hPa 0,0 l/m 8,0 km/h (2 Bft) N-NO 32 0 min 0,000 mm 0,0 UV-I 0 W/m -4,6 C -4,2 C 12,9 km/h (3 Bft) 100,00 %
06.02.2018 03:38 -2,5 C 4,4 C 85 % 1017,8 hPa 0,0 l/m 9,5 km/h (2 Bft) NO 44 0 min 0,000 mm 0,0 UV-I 0 W/m -4,7 C -5,8 C 14,5 km/h (3 Bft) 100,00 %
06.02.2018 03:40 -2,6 C 4,4 C 86 % 1017,7 hPa 0,0 l/m 8,6 km/h (2 Bft) NO 44 0 min 0,000 mm 0,0 UV-I 0 W/m -4,6 C -5,0 C 14,5 km/h (3 Bft) 97,87 %
06.02.2018 03:42 -2,6 C 4,4 C 86 % 1017,7 hPa 0,0 l/m 10,7 km/h (2 Bft) N-NO 17 0 min 0,000 mm 0,0 UV-I 0 W/m -4,6 C -6,9 C 14,5 km/h (3 Bft) 95,74 %
06.02.2018 03:44 -2,6 C 4,4 C 86 % 1017,7 hPa 0,0 l/m 6,7 km/h (2 Bft) N-NO 30 0 min 0,000 mm 0,0 UV-I 0 W/m -4,6 C -2,9 C 9,7 km/h (2 Bft) 97,87 %
06.02.2018 03:46 -2,6 C 4,4 C 86 % 1017,7 hPa 0,0 l/m 8,3 km/h (2 Bft) NO 47 0 min 0,000 mm 0,0 UV-I 0 W/m -4,6 C -4,7 C 11,3 km/h (2 Bft) 100,00 %
06.02.2018 03:48 -2,7 C 4,4 C 86 % 1017,7 hPa 0,0 l/m 9,0 km/h (2 Bft) O-NO 60 0 min 0,000 mm 0,0 UV-I 0 W/m -4,7 C -5,5 C 12,9 km/h (3 Bft) 97,87 %
06.02.2018 03:50 -2,6 C 4,4 C 86 % 1017,6 hPa 0,0 l/m 8,3 km/h (2 Bft) O-NO 57 0 min 0,000 mm 0,0 UV-I 0 W/m -4,6 C -4,7 C 11,3 km/h (2 Bft) 100,00 %
06.02.2018 03:52 -2,6 C 4,4 C 86 % 1017,7 hPa 0,0 l/m 8,2 km/h (2 Bft) NO 56 0 min 0,000 mm 0,0 UV-I 0 W/m -4,6 C -4,6 C 14,5 km/h (3 Bft) 97,87 %
06.02.2018 03:54 -2,7 C 4,4 C 85 % 1017,7 hPa 0,0 l/m 7,5 km/h (2 Bft) NO 35 0 min 0,000 mm 0,0 UV-I 0 W/m -4,9 C -3,9 C 9,7 km/h (2 Bft) 100,00 %
06.02.2018 03:56 -2,7 C 4,4 C 86 % 1017,7 hPa 0,0 l/m 8,0 km/h (2 Bft) NO 54 0 min 0,000 mm 0,0 UV-I 0 W/m -4,7 C -4,5 C 12,9 km/h (3 Bft) 96,00 %
06.02.2018 03:58 -2,7 C 4,4 C 86 % 1017,7 hPa 0,0 l/m 9,2 km/h (2 Bft) NO 44 0 min 0,000 mm 0,0 UV-I 0 W/m -4,7 C -5,7 C 12,9 km/h (3 Bft) 100,00 %
06.02.2018 04:00 -2,8 C 4,4 C 86 % 1017,6 hPa 0,0 l/m 8,4 km/h (2 Bft) NO 35 0 min 0,000 mm 0,0 UV-I 0 W/m -4,8 C -5,0 C 12,9 km/h (3 Bft) 97,87 %
06.02.2018 04:02 -2,7 C 4,4 C 86 % 1017,5 hPa 0,0 l/m 8,0 km/h (2 Bft) N-NO 23 0 min 0,000 mm 0,0 UV-I 0 W/m -4,7 C -4,5 C 12,9 km/h (3 Bft) 93,94 %
06.02.2018 04:04 -2,7 C 4,4 C 86 % 1017,5 hPa 0,0 l/m 6,4 km/h (2 Bft) N-NO 22 0 min 0,000 mm 0,0 UV-I 0 W/m -4,7 C -2,7 C 8,0 km/h (2 Bft) 97,87 %
06.02.2018 04:06 -2,8 C 4,4 C 86 % 1017,6 hPa 0,0 l/m 7,0 km/h (2 Bft) NO 48 0 min 0,000 mm 0,0 UV-I 0 W/m -4,8 C -3,5 C 11,3 km/h (2 Bft) 97,87 %
06.02.2018 04:08 -2,8 C 4,4 C 86 % 1017,6 hPa 0,0 l/m 7,1 km/h (2 Bft) NO 41 0 min 0,000 mm 0,0 UV-I 0 W/m -4,8 C -3,6 C 11,3 km/h (2 Bft) 97,87 %
06.02.2018 04:10 -2,8 C 4,4 C 86 % 1017,5 hPa 0,0 l/m 8,7 km/h (2 Bft) NO 36 0 min 0,000 mm 0,0 UV-I 0 W/m -4,8 C -5,3 C 12,9 km/h (3 Bft) 95,74 %
06.02.2018 04:12 -2,8 C 4,4 C 86 % 1017,5 hPa 0,0 l/m 7,3 km/h (2 Bft) NO 51 0 min 0,000 mm 0,0 UV-I 0 W/m -4,8 C -3,8 C 9,7 km/h (2 Bft) 96,00 %
06.02.2018 04:14 -2,8 C 4,4 C 85 % 1017,6 hPa 0,0 l/m 6,4 km/h (2 Bft) NO 38 0 min 0,000 mm 0,0 UV-I 0 W/m -5,0 C -2,8 C 9,7 km/h (2 Bft) 97,87 %
06.02.2018 04:16 -2,7 C 4,4 C 85 % 1017,6 hPa 0,0 l/m 6,8 km/h (2 Bft) NO 49 0 min 0,000 mm 0,0 UV-I 0 W/m -4,9 C -3,1 C 9,7 km/h (2 Bft) 95,74 %
06.02.2018 04:18 -2,7 C 4,4 C 85 % 1017,6 hPa 0,0 l/m 6,7 km/h (2 Bft) NO 55 0 min 0,000 mm 0,0 UV-I 0 W/m -4,9 C -3,0 C 9,7 km/h (2 Bft) 97,87 %
06.02.2018 04:20 -2,7 C 4,4 C 85 % 1017,6 hPa 0,0 l/m 7,3 km/h (2 Bft) N-NO 13 0 min 0,000 mm 0,0 UV-I 0 W/m -4,9 C -3,7 C 12,9 km/h (3 Bft) 95,74 %
06.02.2018 04:22 -2,7 C 4,4 C 85 % 1017,5 hPa 0,0 l/m 8,2 km/h (2 Bft) NO 39 0 min 0,000 mm 0,0 UV-I 0 W/m -4,9 C -4,7 C 12,9 km/h (3 Bft) 94,29 %
06.02.2018 04:24 -2,7 C 4,4 C 84 % 1017,5 hPa 0,0 l/m 7,9 km/h (2 Bft) O-NO 67 0 min 0,000 mm 0,0 UV-I 0 W/m -5,0 C -4,4 C 11,3 km/h (2 Bft) 93,62 %
06.02.2018 04:26 -2,7 C 4,4 C 84 % 1017,5 hPa 0,0 l/m 6,4 km/h (2 Bft) O-NO 57 0 min 0,000 mm 0,0 UV-I 0 W/m -5,0 C -2,7 C 9,7 km/h (2 Bft) 98,00 %
06.02.2018 04:28 -2,7 C 4,4 C 84 % 1017,4 hPa 0,0 l/m 6,6 km/h (2 Bft) NO 55 0 min 0,000 mm 0,0 UV-I 0 W/m -5,0 C -2,9 C 8,0 km/h (2 Bft) 97,87 %
06.02.2018 04:30 -2,7 C 4,4 C 84 % 1017,4 hPa 0,0 l/m 7,1 km/h (2 Bft) NO 49 0 min 0,000 mm 0,0 UV-I 0 W/m -5,0 C -3,5 C 9,7 km/h (2 Bft) 97,87 %
06.02.2018 04:32 -2,7 C 4,4 C 84 % 1017,4 hPa 0,0 l/m 6,7 km/h (2 Bft) NO 49 0 min 0,000 mm 0,0 UV-I 0 W/m -5,0 C -3,0 C 11,3 km/h (2 Bft) 97,87 %
06.02.2018 04:34 -2,7 C 4,4 C 84 % 1017,4 hPa 0,0 l/m 6,5 km/h (2 Bft) NO 40 0 min 0,000 mm 0,0 UV-I 0 W/m -5,0 C -2,8 C 9,7 km/h (2 Bft) 95,74 %
06.02.2018 04:36 -2,7 C 4,4 C 84 % 1017,4 hPa 0,0 l/m 7,4 km/h (2 Bft) O-NO 63 0 min 0,000 mm 0,0 UV-I 0 W/m -5,0 C -3,8 C 11,3 km/h (2 Bft) 97,87 %
06.02.2018 04:38 -2,7 C 4,4 C 84 % 1017,4 hPa 0,0 l/m 8,8 km/h (2 Bft) NO 52 0 min 0,000 mm 0,0 UV-I 0 W/m -5,0 C -5,3 C 16,1 km/h (3 Bft) 94,00 %
06.02.2018 04:40 -2,8 C 4,4 C 84 % 1017,3 hPa 0,0 l/m 9,6 km/h (2 Bft) O-NO 59 0 min 0,000 mm 0,0 UV-I 0 W/m -5,1 C -6,2 C 14,5 km/h (3 Bft) 100,00 %
06.02.2018 04:42 -2,8 C 4,4 C 84 % 1017,3 hPa 0,0 l/m 9,7 km/h (2 Bft) O-NO 67 0 min 0,000 mm 0,0 UV-I 0 W/m -5,1 C -6,3 C 14,5 km/h (3 Bft) 100,00 %
06.02.2018 04:44 -2,8 C 4,4 C 84 % 1017,3 hPa 0,0 l/m 8,5 km/h (2 Bft) O-NO 60 0 min 0,000 mm 0,0 UV-I 0 W/m -5,1 C -5,1 C 14,5 km/h (3 Bft) 97,87 %
06.02.2018 04:46 -2,8 C 4,4 C 84 % 1017,3 hPa 0,0 l/m 12,7 km/h (3 Bft) O-NO 70 0 min 0,000 mm 0,0 UV-I 0 W/m -5,1 C -8,8 C 17,7 km/h (3 Bft) 100,00 %
06.02.2018 04:48 -2,8 C 4,4 C 84 % 1017,2 hPa 0,0 l/m 12,4 km/h (3 Bft) O-NO 67 0 min 0,000 mm 0,0 UV-I 0 W/m -5,1 C -8,5 C 17,7 km/h (3 Bft) 95,74 %
06.02.2018 04:50 -2,8 C 4,4 C 84 % 1017,2 hPa 0,0 l/m 12,9 km/h (3 Bft) O-NO 72 0 min 0,000 mm 0,0 UV-I 0 W/m -5,1 C -8,9 C 16,1 km/h (3 Bft) 100,00 %
06.02.2018 04:52 -2,8 C 4,4 C 84 % 1017,1 hPa 0,0 l/m 13,5 km/h (3 Bft) NO 53 0 min 0,000 mm 0,0 UV-I 0 W/m -5,1 C -9,3 C 19,3 km/h (3 Bft) 93,62 %
06.02.2018 04:54 -2,8 C 4,4 C 84 % 1017,0 hPa 0,0 l/m 15,9 km/h (3 Bft) NO 46 0 min 0,000 mm 0,0 UV-I 0 W/m -5,1 C -10,9 C 19,3 km/h (3 Bft) 100,00 %
06.02.2018 04:56 -2,8 C 4,4 C 84 % 1017,0 hPa 0,0 l/m 15,2 km/h (3 Bft) NO 49 0 min 0,000 mm 0,0 UV-I 0 W/m -5,1 C -10,5 C 22,5 km/h (4 Bft) 100,00 %
06.02.2018 04:58 -2,8 C 4,4 C 84 % 1017,0 hPa 0,0 l/m 15,5 km/h (3 Bft) O-NO 67 0 min 0,000 mm 0,0 UV-I 0 W/m -5,1 C -10,7 C 22,5 km/h (4 Bft) 100,00 %
06.02.2018 05:00 -2,7 C 4,4 C 84 % 1017,0 hPa 0,0 l/m 12,1 km/h (2 Bft) NO 46 0 min 0,000 mm 0,0 UV-I 0 W/m -5,0 C -8,2 C 17,7 km/h (3 Bft) 100,00 %
06.02.2018 05:02 -2,7 C 4,4 C 83 % 1017,1 hPa 0,0 l/m 10,3 km/h (2 Bft) O-NO 61 0 min 0,000 mm 0,0 UV-I 0 W/m -5,2 C -6,7 C 16,1 km/h (3 Bft) 97,87 %
06.02.2018 05:04 -2,7 C 4,4 C 83 % 1017,1 hPa 0,0 l/m 10,6 km/h (2 Bft) NO 55 0 min 0,000 mm 0,0 UV-I 0 W/m -5,2 C -7,0 C 16,1 km/h (3 Bft) 97,87 %
06.02.2018 05:06 -2,7 C 4,4 C 84 % 1017,2 hPa 0,0 l/m 11,5 km/h (2 Bft) NO 54 0 min 0,000 mm 0,0 UV-I 0 W/m -5,0 C -7,7 C 17,7 km/h (3 Bft) 100,00 %
06.02.2018 05:08 -2,7 C 4,4 C 83 % 1017,2 hPa 0,0 l/m 13,2 km/h (3 Bft) O-NO 61 0 min 0,000 mm 0,0 UV-I 0 W/m -5,2 C -9,0 C 20,9 km/h (4 Bft) 100,00 %
06.02.2018 05:10 -2,7 C 4,4 C 83 % 1017,1 hPa 0,0 l/m 13,6 km/h (3 Bft) NO 38 0 min 0,000 mm 0,0 UV-I 0 W/m -5,2 C -9,3 C 20,9 km/h (4 Bft) 100,00 %
06.02.2018 05:12 -2,7 C 4,4 C 83 % 1017,2 hPa 0,0 l/m 12,0 km/h (2 Bft) O-NO 78 0 min 0,000 mm 0,0 UV-I 0 W/m -5,2 C -8,1 C 17,7 km/h (3 Bft) 100,00 %
06.02.2018 05:14 -2,7 C 4,4 C 83 % 1017,1 hPa 0,0 l/m 10,9 km/h (2 Bft) O-NO 61 0 min 0,000 mm 0,0 UV-I 0 W/m -5,2 C -7,2 C 19,3 km/h (3 Bft) 100,00 %
06.02.2018 05:16 -2,7 C 4,4 C 83 % 1017,1 hPa 0,0 l/m 13,3 km/h (3 Bft) NO 49 0 min 0,000 mm 0,0 UV-I 0 W/m -5,2 C -9,1 C 20,9 km/h (4 Bft) 100,00 %
06.02.2018 05:18 -2,7 C 4,4 C 83 % 1017,1 hPa 0,0 l/m 13,0 km/h (3 Bft) NO 46 0 min 0,000 mm 0,0 UV-I 0 W/m -5,2 C -8,9 C 22,5 km/h (4 Bft) 100,00 %
06.02.2018 05:20 -2,7 C 4,4 C 83 % 1017,1 hPa 0,0 l/m 12,6 km/h (3 Bft) O-NO 61 0 min 0,000 mm 0,0 UV-I 0 W/m -5,2 C -8,6 C 16,1 km/h (3 Bft) 100,00 %
06.02.2018 05:22 -2,7 C 4,4 C 83 % 1017,1 hPa 0,0 l/m 14,3 km/h (3 Bft) O-NO 64 0 min 0,000 mm 0,0 UV-I 0 W/m -5,2 C -9,8 C 22,5 km/h (4 Bft) 97,87 %
06.02.2018 05:24 -2,7 C 4,4 C 82 % 1017,0 hPa 0,0 l/m 13,3 km/h (3 Bft) O-NO 67 0 min 0,000 mm 0,0 UV-I 0 W/m -5,3 C -9,1 C 20,9 km/h (4 Bft) 100,00 %
06.02.2018 05:26 -2,7 C 4,4 C 83 % 1017,0 hPa 0,0 l/m 11,8 km/h (2 Bft) O-NO 69 0 min 0,000 mm 0,0 UV-I 0 W/m -5,2 C -8,0 C 17,7 km/h (3 Bft) 100,00 %
06.02.2018 05:28 -2,7 C 4,4 C 83 % 1017,0 hPa 0,0 l/m 12,3 km/h (3 Bft) O-NO 63 0 min 0,000 mm 0,0 UV-I 0 W/m -5,2 C -8,3 C 17,7 km/h (3 Bft) 100,00 %
06.02.2018 05:30 -2,7 C 4,4 C 82 % 1017,0 hPa 0,0 l/m 14,2 km/h (3 Bft) O-NO 71 0 min 0,000 mm 0,0 UV-I 0 W/m -5,3 C -9,7 C 17,7 km/h (3 Bft) 97,87 %
06.02.2018 05:32 -2,7 C 4,4 C 82 % 1016,9 hPa 0,0 l/m 16,2 km/h (3 Bft) NO 46 0 min 0,000 mm 0,0 UV-I 0 W/m -5,3 C -11,0 C 22,5 km/h (4 Bft) 100,00 %
06.02.2018 05:34 -2,7 C 4,4 C 82 % 1017,0 hPa 0,0 l/m 16,3 km/h (3 Bft) NO 46 0 min 0,000 mm 0,0 UV-I 0 W/m -5,3 C -11,1 C 24,1 km/h (4 Bft) 98,00 %
06.02.2018 05:36 -2,7 C 4,4 C 82 % 1017,0 hPa 0,0 l/m 14,9 km/h (3 Bft) O-NO 66 0 min 0,000 mm 0,0 UV-I 0 W/m -5,3 C -10,2 C 22,5 km/h (4 Bft) 98,00 %
06.02.2018 05:38 -2,7 C 4,4 C 82 % 1016,9 hPa 0,0 l/m 15,7 km/h (3 Bft) O-NO 60 0 min 0,000 mm 0,0 UV-I 0 W/m -5,3 C -10,7 C 20,9 km/h (4 Bft) 98,00 %
06.02.2018 05:40 -2,7 C 4,4 C 82 % 1016,9 hPa 0,0 l/m 15,0 km/h (3 Bft) O-NO 72 0 min 0,000 mm 0,0 UV-I 0 W/m -5,3 C -10,3 C 17,7 km/h (3 Bft) 97,37 %
06.02.2018 05:42 -2,7 C 4,4 C 82 % 1017,0 hPa 0,0 l/m 13,3 km/h (3 Bft) O-NO 69 0 min 0,000 mm 0,0 UV-I 0 W/m -5,3 C -9,1 C 17,7 km/h (3 Bft) 97,87 %
06.02.2018 05:44 -2,7 C 4,4 C 82 % 1016,9 hPa 0,0 l/m 13,6 km/h (3 Bft) NO 43 0 min 0,000 mm 0,0 UV-I 0 W/m -5,3 C -9,3 C 19,3 km/h (3 Bft) 95,74 %
06.02.2018 05:46 -2,7 C 4,4 C 82 % 1016,9 hPa 0,0 l/m 15,6 km/h (3 Bft) NO 53 0 min 0,000 mm 0,0 UV-I 0 W/m -5,3 C -10,6 C 22,5 km/h (4 Bft) 95,74 %
06.02.2018 05:48 -2,7 C 4,4 C 82 % 1016,9 hPa 0,0 l/m 12,7 km/h (3 Bft) O-NO 67 0 min 0,000 mm 0,0 UV-I 0 W/m -5,3 C -8,6 C 17,7 km/h (3 Bft) 95,74 %
06.02.2018 05:50 -2,7 C 4,4 C 82 % 1016,8 hPa 0,0 l/m 11,6 km/h (2 Bft) NO 55 0 min 0,000 mm 0,0 UV-I 0 W/m -5,3 C -7,8 C 19,3 km/h (3 Bft) 97,87 %
06.02.2018 05:52 -2,7 C 4,4 C 82 % 1016,9 hPa 0,0 l/m 13,2 km/h (3 Bft) O-NO 59 0 min 0,000 mm 0,0 UV-I 0 W/m -5,3 C -9,0 C 19,3 km/h (3 Bft) 96,00 %
06.02.2018 05:54 -2,7 C 4,4 C 83 % 1016,8 hPa 0,0 l/m 11,3 km/h (2 Bft) O-NO 59 0 min 0,000 mm 0,0 UV-I 0 W/m -5,2 C -7,5 C 17,7 km/h (3 Bft) 98,00 %
06.02.2018 05:56 -2,8 C 4,4 C 83 % 1016,8 hPa 0,0 l/m 14,2 km/h (3 Bft) NO 54 0 min 0,000 mm 0,0 UV-I 0 W/m -5,3 C -9,8 C 24,1 km/h (4 Bft) 95,74 %
06.02.2018 05:58 -2,7 C 4,4 C 82 % 1016,8 hPa 0,0 l/m 14,8 km/h (3 Bft) NO 44 0 min 0,000 mm 0,0 UV-I 0 W/m -5,3 C -10,1 C 19,3 km/h (3 Bft) 97,44 %
06.02.2018 06:00 -2,7 C 4,4 C 82 % 1016,8 hPa 0,0 l/m 16,1 km/h (3 Bft) O-NO 63 0 min 0,026 mm 0,0 UV-I 0 W/m -5,3 C -10,9 C 24,1 km/h (4 Bft) 98,00 %
06.02.2018 06:02 -2,7 C 4,4 C 82 % 1016,7 hPa 0,0 l/m 11,7 km/h (2 Bft) NO 53 0 min 0,000 mm 0,0 UV-I 0 W/m -5,3 C -7,9 C 17,7 km/h (3 Bft) 97,87 %
06.02.2018 06:04 -2,8 C 4,4 C 83 % 1016,8 hPa 0,0 l/m 11,5 km/h (2 Bft) O-NO 71 0 min 0,000 mm 0,0 UV-I 0 W/m -5,3 C -7,8 C 16,1 km/h (3 Bft) 96,00 %
06.02.2018 06:06 -2,8 C 4,4 C 82 % 1016,7 hPa 0,0 l/m 13,4 km/h (3 Bft) NO 34 0 min 0,000 mm 0,0 UV-I 0 W/m -5,4 C -9,3 C 19,3 km/h (3 Bft) 95,74 %
06.02.2018 06:08 -2,8 C 4,4 C 83 % 1016,7 hPa 0,0 l/m 12,5 km/h (3 Bft) O-NO 58 0 min 0,000 mm 0,0 UV-I 0 W/m -5,3 C -8,6 C 17,7 km/h (3 Bft) 96,00 %
06.02.2018 06:10 -2,8 C 4,4 C 83 % 1016,7 hPa 0,0 l/m 13,1 km/h (3 Bft) NO 51 0 min 0,000 mm 0,0 UV-I 0 W/m -5,3 C -9,1 C 20,9 km/h (4 Bft) 94,29 %
06.02.2018 06:12 -2,8 C 4,4 C 83 % 1016,8 hPa 0,0 l/m 12,4 km/h (3 Bft) NO 52 0 min 0,000 mm 0,0 UV-I 0 W/m -5,3 C -8,5 C 17,7 km/h (3 Bft) 94,00 %
06.02.2018 06:14 -2,9 C 4,4 C 83 % 1016,7 hPa 0,0 l/m 11,1 km/h (2 Bft) O-NO 59 0 min 0,000 mm 0,0 UV-I 0 W/m -5,4 C -7,6 C 17,7 km/h (3 Bft) 93,62 %
06.02.2018 06:16 -2,9 C 4,4 C 83 % 1016,7 hPa 0,0 l/m 7,2 km/h (2 Bft) NO 50 0 min 0,000 mm 0,0 UV-I 0 W/m -5,4 C -3,8 C 9,7 km/h (2 Bft) 95,74 %
06.02.2018 06:18 -3,0 C 4,4 C 83 % 1016,8 hPa 0,0 l/m 5,9 km/h (2 Bft) NO 44 0 min 0,000 mm 0,0 UV-I 0 W/m -5,5 C -3,0 C 8,0 km/h (2 Bft) 95,74 %
06.02.2018 06:20 -3,0 C 4,4 C 83 % 1016,7 hPa 0,0 l/m 7,3 km/h (2 Bft) O-NO 58 0 min 0,000 mm 0,0 UV-I 0 W/m -5,5 C -4,0 C 12,9 km/h (3 Bft) 92,16 %
06.02.2018 06:22 -3,1 C 4,4 C 84 % 1016,7 hPa 0,0 l/m 7,0 km/h (2 Bft) O-NO 74 0 min 0,000 mm 0,0 UV-I 0 W/m -5,4 C -3,8 C 12,9 km/h (3 Bft) 93,62 %
06.02.2018 06:24 -3,1 C 4,4 C 84 % 1016,7 hPa 0,0 l/m 7,2 km/h (2 Bft) O-NO 62 0 min 0,000 mm 0,0 UV-I 0 W/m -5,4 C -4,0 C 9,7 km/h (2 Bft) 95,74 %
06.02.2018 06:26 -3,1 C 4,4 C 84 % 1016,7 hPa 0,0 l/m 8,5 km/h (2 Bft) NO 53 0 min 0,000 mm 0,0 UV-I 0 W/m -5,4 C -5,4 C 14,5 km/h (3 Bft) 95,74 %
06.02.2018 06:28 -3,1 C 4,4 C 84 % 1016,8 hPa 0,0 l/m 8,9 km/h (2 Bft) O-NO 63 0 min 0,000 mm 0,0 UV-I 0 W/m -5,4 C -5,8 C 16,1 km/h (3 Bft) 93,62 %
06.02.2018 06:30 -3,1 C 4,4 C 84 % 1016,8 hPa 0,0 l/m 7,3 km/h (2 Bft) NO 54 0 min 0,000 mm 0,0 UV-I 0 W/m -5,4 C -4,1 C 9,7 km/h (2 Bft) 93,75 %
06.02.2018 06:32 -3,2 C 4,4 C 84 % 1016,7 hPa 0,0 l/m 5,3 km/h (1 Bft) O-NO 63 0 min 0,000 mm 0,0 UV-I 0 W/m -5,5 C -3,2 C 8,0 km/h (2 Bft) 95,74 %
06.02.2018 06:34 -3,2 C 4,4 C 85 % 1016,7 hPa 0,0 l/m 9,4 km/h (2 Bft) NO 36 0 min 0,000 mm 0,0 UV-I 0 W/m -5,4 C -6,4 C 16,1 km/h (3 Bft) 95,83 %
06.02.2018 06:36 -3,2 C 4,4 C 85 % 1016,7 hPa 0,0 l/m 9,0 km/h (2 Bft) O-NO 61 0 min 0,000 mm 0,0 UV-I 0 W/m -5,4 C -6,0 C 14,5 km/h (3 Bft) 97,14 %
06.02.2018 06:38 -3,2 C 4,4 C 85 % 1016,7 hPa 0,0 l/m 7,2 km/h (2 Bft) O-NO 61 0 min 0,000 mm 0,0 UV-I 0 W/m -5,4 C -4,1 C 12,9 km/h (3 Bft) 94,34 %
06.02.2018 06:40 -3,2 C 4,4 C 85 % 1016,7 hPa 0,0 l/m 5,9 km/h (2 Bft) N-NO 30 0 min 0,000 mm 0,0 UV-I 0 W/m -5,4 C -3,2 C 8,0 km/h (2 Bft) 97,87 %
06.02.2018 06:42 -3,3 C 4,4 C 85 % 1016,7 hPa 0,0 l/m 6,8 km/h (2 Bft) O-NO 58 0 min 0,000 mm 0,0 UV-I 0 W/m -5,5 C -3,7 C 9,7 km/h (2 Bft) 97,87 %
06.02.2018 06:44 -3,3 C 4,4 C 85 % 1016,7 hPa 0,0 l/m 6,9 km/h (2 Bft) NO 55 0 min 0,000 mm 0,0 UV-I 0 W/m -5,5 C -3,9 C 11,3 km/h (2 Bft) 93,62 %
06.02.2018 06:46 -3,3 C 4,4 C 85 % 1016,7 hPa 0,0 l/m 6,6 km/h (2 Bft) NO 43 0 min 0,000 mm 0,0 UV-I 0 W/m -5,5 C -3,5 C 9,7 km/h (2 Bft) 100,00 %
06.02.2018 06:48 -3,3 C 4,4 C 85 % 1016,6 hPa 0,0 l/m 8,0 km/h (2 Bft) O-NO 72 0 min 0,000 mm 0,0 UV-I 0 W/m -5,5 C -5,1 C 12,9 km/h (3 Bft) 100,00 %
06.02.2018 06:50 -3,3 C 4,4 C 85 % 1016,5 hPa 0,0 l/m 6,8 km/h (2 Bft) NO 50 0 min 0,000 mm 0,0 UV-I 0 W/m -5,5 C -3,7 C 9,7 km/h (2 Bft) 97,87 %
06.02.2018 06:52 -3,3 C 4,4 C 85 % 1016,5 hPa 0,0 l/m 7,2 km/h (2 Bft) N-NO 19 0 min 0,000 mm 0,0 UV-I 0 W/m -5,5 C -4,2 C 11,3 km/h (2 Bft) 100,00 %
06.02.2018 06:54 -3,3 C 4,4 C 85 % 1016,5 hPa 0,0 l/m 7,3 km/h (2 Bft) O-NO 60 0 min 0,000 mm 0,0 UV-I 0 W/m -5,5 C -4,3 C 9,7 km/h (2 Bft) 100,00 %
06.02.2018 06:56 -3,4 C 4,4 C 85 % 1016,5 hPa 0,0 l/m 7,1 km/h (2 Bft) N-NO 28 0 min 0,000 mm 0,0 UV-I 0 W/m -5,5 C -4,2 C 9,7 km/h (2 Bft) 100,00 %
06.02.2018 06:58 -3,4 C 4,4 C 85 % 1016,5 hPa 0,0 l/m 7,0 km/h (2 Bft) O-NO 72 0 min 0,000 mm 0,0 UV-I 0 W/m -5,5 C -4,1 C 9,7 km/h (2 Bft) 97,87 %
06.02.2018 07:00 -3,4 C 4,4 C 85 % 1016,5 hPa 0,0 l/m 8,2 km/h (2 Bft) O-NO 57 0 min 0,000 mm 0,0 UV-I 0 W/m -5,5 C -5,4 C 14,5 km/h (3 Bft) 100,00 %
06.02.2018 07:02 -3,4 C 4,4 C 85 % 1016,5 hPa 0,0 l/m 7,6 km/h (2 Bft) O-NO 65 0 min 0,000 mm 0,0 UV-I 0 W/m -5,5 C -4,8 C 11,3 km/h (2 Bft) 100,00 %
06.02.2018 07:04 -3,4 C 4,4 C 85 % 1016,5 hPa 0,0 l/m 6,5 km/h (2 Bft) NO 55 0 min 0,000 mm 0,0 UV-I 0 W/m -5,5 C -3,5 C 9,7 km/h (2 Bft) 100,00 %
06.02.2018 07:06 -3,4 C 4,4 C 85 % 1016,5 hPa 0,0 l/m 8,4 km/h (2 Bft) O-NO 57 0 min 0,000 mm 0,0 UV-I 0 W/m -5,5 C -5,6 C 12,9 km/h (3 Bft) 97,87 %
06.02.2018 07:08 -3,5 C 4,4 C 85 % 1016,5 hPa 0,0 l/m 7,2 km/h (2 Bft) NO 52 0 min 0,000 mm 0,0 UV-I 1 W/m -5,6 C -4,4 C 9,7 km/h (2 Bft) 100,00 %
06.02.2018 07:10 -3,5 C 4,4 C 85 % 1016,5 hPa 0,0 l/m 6,2 km/h (2 Bft) NO 38 0 min 0,000 mm 0,0 UV-I 5 W/m -5,6 C -3,5 C 9,7 km/h (2 Bft) 100,00 %
06.02.2018 07:12 -3,6 C 4,4 C 85 % 1016,5 hPa 0,0 l/m 6,5 km/h (2 Bft) NO 44 0 min 0,000 mm 0,0 UV-I 5 W/m -5,7 C -3,7 C 8,0 km/h (2 Bft) 100,00 %
06.02.2018 07:14 -3,6 C 4,4 C 86 % 1016,5 hPa 0,0 l/m 6,4 km/h (2 Bft) NO 51 0 min 0,000 mm 0,0 UV-I 5 W/m -5,6 C -3,5 C 8,0 km/h (2 Bft) 97,87 %
06.02.2018 07:16 -3,6 C 3,9 C 86 % 1016,6 hPa 0,0 l/m 6,1 km/h (2 Bft) NO 54 0 min 0,000 mm 0,0 UV-I 5 W/m -5,6 C -3,6 C 9,7 km/h (2 Bft) 100,00 %
06.02.2018 07:18 -3,6 C 3,9 C 86 % 1016,6 hPa 0,0 l/m 5,9 km/h (2 Bft) O-NO 60 0 min 0,000 mm 0,0 UV-I 6 W/m -5,6 C -3,6 C 8,0 km/h (2 Bft) 97,87 %
06.02.2018 07:20 -3,6 C 4,4 C 86 % 1016,6 hPa 0,0 l/m 6,1 km/h (2 Bft) NO 47 0 min 0,000 mm 0,0 UV-I 7 W/m -5,6 C -3,6 C 8,0 km/h (2 Bft) 100,00 %
06.02.2018 07:22 -3,6 C 3,9 C 86 % 1016,6 hPa 0,0 l/m 7,6 km/h (2 Bft) O-NO 61 0 min 0,000 mm 0,0 UV-I 7 W/m -5,6 C -5,0 C 12,9 km/h (3 Bft) 97,87 %
06.02.2018 07:24 -3,6 C 3,9 C 86 % 1016,6 hPa 0,0 l/m 6,7 km/h (2 Bft) O-NO 65 0 min 0,000 mm 0,0 UV-I 8 W/m -5,6 C -3,9 C 9,7 km/h (2 Bft) 100,00 %
06.02.2018 07:26 -3,6 C 3,9 C 86 % 1016,5 hPa 0,0 l/m 6,5 km/h (2 Bft) O-NO 63 0 min 0,000 mm 0,0 UV-I 9 W/m -5,6 C -3,7 C 9,7 km/h (2 Bft) 97,87 %
06.02.2018 07:28 -3,6 C 3,9 C 86 % 1016,5 hPa 0,0 l/m 6,2 km/h (2 Bft) O 79 0 min 0,000 mm 0,0 UV-I 10 W/m -5,6 C -3,6 C 8,0 km/h (2 Bft) 98,00 %
06.02.2018 07:30 -3,6 C 3,9 C 86 % 1016,4 hPa 0,0 l/m 7,9 km/h (2 Bft) NO 42 0 min 0,000 mm 0,0 UV-I 11 W/m -5,6 C -5,3 C 12,9 km/h (3 Bft) 100,00 %
06.02.2018 07:32 -3,6 C 4,4 C 86 % 1016,5 hPa 0,0 l/m 6,7 km/h (2 Bft) O-NO 62 0 min 0,000 mm 0,0 UV-I 11 W/m -5,6 C -3,9 C 9,7 km/h (2 Bft) 93,62 %
06.02.2018 07:34 -3,7 C 4,4 C 86 % 1016,5 hPa 0,0 l/m 6,2 km/h (2 Bft) O-NO 69 0 min 0,000 mm 0,0 UV-I 13 W/m -5,7 C -3,7 C 9,7 km/h (2 Bft) 97,87 %
06.02.2018 07:36 -3,7 C 4,4 C 86 % 1016,5 hPa 0,0 l/m 5,7 km/h (1 Bft) NO 51 2 min 0,000 mm 0,0 UV-I 14 W/m -5,7 C -3,7 C 8,0 km/h (2 Bft) 100,00 %
06.02.2018 07:38 -3,7 C 4,4 C 86 % 1016,5 hPa 0,0 l/m 6,1 km/h (2 Bft) NO 48 2 min 0,000 mm 0,0 UV-I 15 W/m -5,7 C -3,7 C 9,7 km/h (2 Bft) 100,00 %
06.02.2018 07:40 -3,7 C 4,4 C 86 % 1016,5 hPa 0,0 l/m 6,3 km/h (2 Bft) NO 53 2 min 0,000 mm 0,0 UV-I 18 W/m -5,7 C -3,7 C 9,7 km/h (2 Bft) 97,87 %
06.02.2018 07:42 -3,6 C 4,4 C 86 % 1016,5 hPa 0,0 l/m 7,1 km/h (2 Bft) O-NO 59 2 min 0,000 mm 0,0 UV-I 19 W/m -5,6 C -4,4 C 9,7 km/h (2 Bft) 100,00 %
06.02.2018 07:44 -3,6 C 4,4 C 86 % 1016,5 hPa 0,0 l/m 7,6 km/h (2 Bft) O-NO 60 0 min 0,000 mm 0,0 UV-I 19 W/m -5,6 C -5,0 C 11,3 km/h (2 Bft) 98,00 %
06.02.2018 07:46 -3,6 C 3,9 C 85 % 1016,5 hPa 0,0 l/m 7,9 km/h (2 Bft) O-NO 64 0 min 0,000 mm 0,0 UV-I 21 W/m -5,7 C -5,3 C 14,5 km/h (3 Bft) 95,74 %
06.02.2018 07:48 -3,5 C 3,9 C 85 % 1016,6 hPa 0,0 l/m 6,5 km/h (2 Bft) NO 44 0 min 0,000 mm 0,0 UV-I 23 W/m -5,6 C -3,6 C 9,7 km/h (2 Bft) 97,87 %
06.02.2018 07:50 -3,5 C 3,9 C 85 % 1016,5 hPa 0,0 l/m 10,2 km/h (2 Bft) NO 50 0 min 0,000 mm 0,0 UV-I 25 W/m -5,6 C -7,5 C 17,7 km/h (3 Bft) 97,87 %
06.02.2018 07:52 -3,4 C 3,9 C 85 % 1016,6 hPa 0,0 l/m 10,1 km/h (2 Bft) O-NO 59 0 min 0,000 mm 0,0 UV-I 26 W/m -5,5 C -7,3 C 17,7 km/h (3 Bft) 100,00 %
06.02.2018 07:54 -3,4 C 3,9 C 85 % 1016,6 hPa 0,0 l/m 9,3 km/h (2 Bft) NO 49 0 min 0,000 mm 0,0 UV-I 32 W/m -5,5 C -6,5 C 14,5 km/h (3 Bft) 97,22 %
06.02.2018 07:56 -3,3 C 3,9 C 85 % 1016,7 hPa 0,0 l/m 10,3 km/h (2 Bft) NO 49 2 min 0,000 mm 0,0 UV-I 48 W/m -5,5 C -7,4 C 16,1 km/h (3 Bft) 100,00 %
06.02.2018 07:58 -3,3 C 3,9 C 85 % 1016,6 hPa 0,0 l/m 10,9 km/h (2 Bft) O-NO 61 2 min 0,000 mm 0,0 UV-I 55 W/m -5,5 C -7,9 C 16,1 km/h (3 Bft) 100,00 %
06.02.2018 08:00 -3,3 C 3,9 C 84 % 1016,6 hPa 0,0 l/m 8,5 km/h (2 Bft) O-NO 60 2 min 0,000 mm 0,0 UV-I 59 W/m -5,6 C -5,6 C 12,9 km/h (3 Bft) 98,00 %
06.02.2018 08:02 -3,3 C 3,9 C 84 % 1016,6 hPa 0,0 l/m 13,8 km/h (3 Bft) O-NO 63 2 min 0,000 mm 0,0 UV-I 63 W/m -5,6 C -10,2 C 20,9 km/h (4 Bft) 100,00 %
06.02.2018 08:04 -3,3 C 3,9 C 84 % 1016,6 hPa 0,0 l/m 14,4 km/h (3 Bft) O-NO 61 2 min 0,000 mm 0,0 UV-I 65 W/m -5,6 C -10,6 C 19,3 km/h (3 Bft) 100,00 %
06.02.2018 08:06 -3,2 C 3,9 C 84 % 1016,5 hPa 0,0 l/m 13,6 km/h (3 Bft) O-NO 64 2 min 0,000 mm 0,0 UV-I 70 W/m -5,5 C -9,9 C 20,9 km/h (4 Bft) 100,00 %
06.02.2018 08:08 -3,2 C 3,9 C 84 % 1016,5 hPa 0,0 l/m 17,8 km/h (3 Bft) NO 43 2 min 0,000 mm 0,0 UV-I 74 W/m -5,5 C -12,6 C 24,1 km/h (4 Bft) 100,00 %
06.02.2018 08:10 -3,1 C 3,9 C 84 % 1016,5 hPa 0,0 l/m 14,9 km/h (3 Bft) O-NO 71 2 min 0,000 mm 0,0 UV-I 78 W/m -5,4 C -10,7 C 22,5 km/h (4 Bft) 100,00 %
06.02.2018 08:12 -3,1 C 3,9 C 84 % 1016,5 hPa 0,0 l/m 12,8 km/h (3 Bft) O-NO 76 2 min 0,000 mm 0,0 UV-I 82 W/m -5,4 C -9,2 C 17,7 km/h (3 Bft) 100,00 %
06.02.2018 08:14 -3,0 C 3,9 C 84 % 1016,5 hPa 0,0 l/m 14,8 km/h (3 Bft) NO 44 2 min 0,000 mm 0,0 UV-I 77 W/m -5,3 C -10,5 C 20,9 km/h (4 Bft) 100,00 %
06.02.2018 08:16 -3,0 C 3,9 C 84 % 1016,5 hPa 0,0 l/m 14,7 km/h (3 Bft) O-NO 65 2 min 0,000 mm 0,0 UV-I 71 W/m -5,3 C -10,4 C 17,7 km/h (3 Bft) 95,74 %
06.02.2018 08:18 -3,0 C 3,9 C 83 % 1016,5 hPa 0,0 l/m 17,3 km/h (3 Bft) O-NO 67 2 min 0,000 mm 0,0 UV-I 83 W/m -5,5 C -12,0 C 24,1 km/h (4 Bft) 97,87 %
06.02.2018 08:20 -2,9 C 3,9 C 83 % 1016,4 hPa 0,0 l/m 16,2 km/h (3 Bft) O-NO 65 2 min 0,000 mm 0,0 UV-I 103 W/m -5,4 C -11,3 C 22,5 km/h (4 Bft) 97,87 %
06.02.2018 08:22 -2,9 C 3,9 C 83 % 1016,4 hPa 0,0 l/m 15,4 km/h (3 Bft) NO 55 2 min 0,000 mm 0,0 UV-I 107 W/m -5,4 C -10,8 C 24,1 km/h (4 Bft) 94,00 %
06.02.2018 08:24 -2,9 C 3,9 C 83 % 1016,4 hPa 0,0 l/m 16,0 km/h (3 Bft) O-NO 70 2 min 0,000 mm 0,0 UV-I 112 W/m -5,4 C -11,1 C 22,5 km/h (4 Bft) 97,87 %
06.02.2018 08:26 -2,8 C 3,9 C 83 % 1016,4 hPa 0,0 l/m 20,3 km/h (4 Bft) O-NO 66 2 min 0,000 mm 0,0 UV-I 117 W/m -5,3 C -13,4 C 30,6 km/h (5 Bft) 93,62 %
06.02.2018 08:28 -2,8 C 3,9 C 83 % 1016,3 hPa 0,0 l/m 18,9 km/h (3 Bft) O 86 2 min 0,000 mm 0,0 UV-I 124 W/m -5,3 C -12,7 C 25,7 km/h (4 Bft) 97,87 %
06.02.2018 08:30 -2,8 C 3,9 C 83 % 1016,3 hPa 0,0 l/m 18,6 km/h (3 Bft) O-NO 65 2 min 0,000 mm 0,0 UV-I 129 W/m -5,3 C -12,5 C 27,4 km/h (4 Bft) 97,92 %
06.02.2018 08:32 -2,8 C 3,9 C 83 % 1016,3 hPa 0,0 l/m 19,0 km/h (3 Bft) O-NO 70 2 min 0,000 mm 0,0 UV-I 134 W/m -5,3 C -12,7 C 24,1 km/h (4 Bft) 97,87 %
06.02.2018 08:34 -2,7 C 3,9 C 82 % 1016,2 hPa 0,0 l/m 20,7 km/h (4 Bft) O-NO 74 2 min 0,000 mm 0,0 UV-I 139 W/m -5,3 C -13,5 C 29,0 km/h (5 Bft) 96,00 %
06.02.2018 08:36 -2,7 C 3,9 C 82 % 1016,2 hPa 0,0 l/m 19,7 km/h (3 Bft) O-NO 64 2 min 0,000 mm 0,0 UV-I 146 W/m -5,3 C -13,0 C 27,4 km/h (4 Bft) 97,87 %
06.02.2018 08:38 -2,7 C 3,9 C 82 % 1016,1 hPa 0,0 l/m 22,7 km/h (4 Bft) O 79 2 min 0,000 mm 0,0 UV-I 150 W/m -5,3 C -14,4 C 32,2 km/h (5 Bft) 95,74 %
06.02.2018 08:40 -2,7 C 3,9 C 82 % 1016,2 hPa 0,0 l/m 20,5 km/h (4 Bft) O-NO 57 2 min 0,000 mm 0,0 UV-I 151 W/m -5,3 C -13,4 C 27,4 km/h (4 Bft) 100,00 %
06.02.2018 08:42 -2,7 C 3,9 C 82 % 1016,1 hPa 0,0 l/m 22,1 km/h (4 Bft) O-NO 74 2 min 0,000 mm 0,0 UV-I 109 W/m -5,3 C -14,1 C 30,6 km/h (5 Bft) 97,87 %
06.02.2018 08:44 -2,7 C 3,9 C 82 % 1016,2 hPa 0,0 l/m 19,7 km/h (3 Bft) O-NO 65 0 min 0,000 mm 0,0 UV-I 93 W/m -5,3 C -13,0 C 29,0 km/h (5 Bft) 97,87 %
06.02.2018 08:46 -2,7 C 3,9 C 82 % 1016,1 hPa 0,0 l/m 20,9 km/h (4 Bft) O-NO 69 2 min 0,000 mm 0,0 UV-I 139 W/m -5,3 C -13,6 C 30,6 km/h (5 Bft) 97,87 %
06.02.2018 08:48 -2,7 C 3,9 C 82 % 1016,1 hPa 0,0 l/m 23,9 km/h (4 Bft) O-NO 65 2 min 0,000 mm 0,0 UV-I 163 W/m -5,3 C -14,9 C 32,2 km/h (5 Bft) 100,00 %
06.02.2018 08:50 -2,6 C 3,9 C 81 % 1016,1 hPa 0,0 l/m 17,0 km/h (3 Bft) O 83 2 min 0,000 mm 0,0 UV-I 172 W/m -5,4 C -11,4 C 25,7 km/h (4 Bft) 100,00 %
06.02.2018 08:52 -2,6 C 3,9 C 81 % 1016,1 hPa 0,0 l/m 22,8 km/h (4 Bft) NO 42 2 min 0,000 mm 0,0 UV-I 177 W/m -5,4 C -14,3 C 29,0 km/h (5 Bft) 100,00 %
06.02.2018 08:54 -2,6 C 3,9 C 82 % 1016,1 hPa 0,0 l/m 20,9 km/h (4 Bft) NO 50 2 min 0,000 mm 0,0 UV-I 183 W/m -5,2 C -13,4 C 25,7 km/h (4 Bft) 100,00 %
06.02.2018 08:56 -2,5 C 3,9 C 81 % 1016,1 hPa 0,0 l/m 20,1 km/h (4 Bft) O-NO 65 2 min 0,000 mm 0,0 UV-I 188 W/m -5,3 C -12,9 C 29,0 km/h (5 Bft) 97,87 %
06.02.2018 08:58 -2,4 C 3,9 C 82 % 1016,1 hPa 0,0 l/m 20,3 km/h (4 Bft) O-NO 62 2 min 0,000 mm 0,0 UV-I 186 W/m -5,0 C -12,9 C 25,7 km/h (4 Bft) 100,00 %
06.02.2018 09:00 -2,4 C 3,9 C 81 % 1016,0 hPa 0,0 l/m 20,1 km/h (4 Bft) O-NO 57 2 min 0,000 mm 0,0 UV-I 186 W/m -5,2 C -12,8 C 29,0 km/h (5 Bft) 97,87 %
06.02.2018 09:02 -2,5 C 3,9 C 81 % 1016,0 hPa 0,0 l/m 22,8 km/h (4 Bft) O-NO 72 2 min 0,050 mm 0,0 UV-I 188 W/m -5,3 C -14,2 C 29,0 km/h (5 Bft) 100,00 %
06.02.2018 09:04 -2,4 C 3,9 C 81 % 1016,0 hPa 0,0 l/m 22,6 km/h (4 Bft) O-NO 72 2 min 0,000 mm 0,0 UV-I 203 W/m -5,2 C -14,0 C 32,2 km/h (5 Bft) 100,00 %
06.02.2018 09:06 -2,4 C 3,9 C 82 % 1015,9 hPa 0,0 l/m 24,0 km/h (4 Bft) NO 52 2 min 0,000 mm 0,0 UV-I 207 W/m -5,0 C -14,6 C 30,6 km/h (5 Bft) 100,00 %
06.02.2018 09:08 -2,4 C 3,9 C 81 % 1016,0 hPa 0,0 l/m 19,0 km/h (3 Bft) O-NO 67 2 min 0,000 mm 0,0 UV-I 202 W/m -5,2 C -12,2 C 29,0 km/h (5 Bft) 100,00 %
06.02.2018 09:10 -2,4 C 3,9 C 81 % 1016,0 hPa 0,0 l/m 19,6 km/h (3 Bft) O-NO 73 2 min 0,000 mm 0,0 UV-I 203 W/m -5,2 C -12,5 C 27,4 km/h (4 Bft) 100,00 %
06.02.2018 09:12 -2,3 C 3,9 C 82 % 1016,1 hPa 0,0 l/m 15,4 km/h (3 Bft) O 86 2 min 0,000 mm 0,0 UV-I 216 W/m -4,9 C -10,0 C 22,5 km/h (4 Bft) 97,87 %
06.02.2018 09:14 -2,3 C 3,9 C 81 % 1015,9 hPa 0,0 l/m 18,2 km/h (3 Bft) NO 42 2 min 0,000 mm 0,0 UV-I 209 W/m -5,1 C -11,7 C 25,7 km/h (4 Bft) 100,00 %
06.02.2018 09:16 -2,3 C 3,9 C 81 % 1016,0 hPa 0,0 l/m 18,9 km/h (3 Bft) O-NO 61 2 min 0,000 mm 0,0 UV-I 199 W/m -5,1 C -12,0 C 27,4 km/h (4 Bft) 97,87 %
06.02.2018 09:18 -2,3 C 3,9 C 81 % 1015,9 hPa 0,0 l/m 20,0 km/h (4 Bft) NO 49 2 min 0,000 mm 0,0 UV-I 225 W/m -5,1 C -12,6 C 25,7 km/h (4 Bft) 100,00 %
06.02.2018 09:20 -2,3 C 3,9 C 81 % 1016,0 hPa 0,0 l/m 21,9 km/h (4 Bft) NO 40 2 min 0,000 mm 0,0 UV-I 221 W/m -5,1 C -13,5 C 30,6 km/h (5 Bft) 100,00 %
06.02.2018 09:22 -2,3 C 3,9 C 81 % 1016,0 hPa 0,0 l/m 17,9 km/h (3 Bft) O-NO 70 2 min 0,000 mm 0,0 UV-I 233 W/m -5,1 C -11,5 C 25,7 km/h (4 Bft) 100,00 %
06.02.2018 09:24 -2,3 C 3,9 C 81 % 1016,1 hPa 0,0 l/m 20,7 km/h (4 Bft) O-NO 71 2 min 0,000 mm 0,0 UV-I 247 W/m -5,1 C -12,9 C 29,0 km/h (5 Bft) 100,00 %
06.02.2018 09:26 -2,3 C 3,9 C 81 % 1016,0 hPa 0,0 l/m 22,7 km/h (4 Bft) O-NO 73 2 min 0,000 mm 0,0 UV-I 260 W/m -5,1 C -13,9 C 30,6 km/h (5 Bft) 100,00 %
06.02.2018 09:28 -2,2 C 3,9 C 81 % 1015,9 hPa 0,0 l/m 20,5 km/h (4 Bft) NO 49 2 min 0,000 mm 0,0 UV-I 266 W/m -5,0 C -12,7 C 25,7 km/h (4 Bft) 97,14 %
06.02.2018 09:30 -2,2 C 3,9 C 81 % 1016,0 hPa 0,0 l/m 18,8 km/h (3 Bft) NO 40 2 min 0,000 mm 0,0 UV-I 271 W/m -5,0 C -11,9 C 25,7 km/h (4 Bft) 98,00 %
06.02.2018 09:32 -2,1 C 3,9 C 81 % 1016,0 hPa 0,0 l/m 21,9 km/h (4 Bft) O-NO 74 2 min 0,000 mm 0,0 UV-I 270 W/m -4,9 C -13,2 C 32,2 km/h (5 Bft) 97,87 %
06.02.2018 09:34 -2,1 C 3,9 C 81 % 1016,0 hPa 0,0 l/m 23,4 km/h (4 Bft) O-NO 65 2 min 0,000 mm 0,0 UV-I 264 W/m -4,9 C -13,9 C 30,6 km/h (5 Bft) 100,00 %
06.02.2018 09:36 -2,1 C 3,9 C 81 % 1016,0 hPa 0,0 l/m 24,0 km/h (4 Bft) O 80 2 min 0,000 mm 0,0 UV-I 278 W/m -4,9 C -14,2 C 32,2 km/h (5 Bft) 98,00 %
06.02.2018 09:38 -2,1 C 3,9 C 81 % 1016,1 hPa 0,0 l/m 19,0 km/h (3 Bft) NO 45 2 min 0,000 mm 0,0 UV-I 284 W/m -4,9 C -11,8 C 25,7 km/h (4 Bft) 100,00 %
06.02.2018 09:40 -2,0 C 3,9 C 81 % 1016,1 hPa 0,0 l/m 21,1 km/h (4 Bft) O-NO 65 2 min 0,000 mm 0,0 UV-I 291 W/m -4,8 C -12,7 C 25,7 km/h (4 Bft) 100,00 %
06.02.2018 09:42 -1,9 C 3,9 C 81 % 1016,0 hPa 0,0 l/m 21,2 km/h (4 Bft) NO 52 2 min 0,000 mm 0,0 UV-I 294 W/m -4,7 C -12,7 C 27,4 km/h (4 Bft) 97,87 %
06.02.2018 09:44 -1,9 C 3,9 C 81 % 1016,0 hPa 0,0 l/m 21,6 km/h (4 Bft) O-NO 68 2 min 0,000 mm 0,0 UV-I 294 W/m -4,7 C -12,8 C 27,4 km/h (4 Bft) 97,87 %
06.02.2018 09:46 -1,9 C 3,9 C 80 % 1016,0 hPa 0,0 l/m 23,6 km/h (4 Bft) O-NO 58 2 min 0,000 mm 0,0 UV-I 297 W/m -4,9 C -13,7 C 32,2 km/h (5 Bft) 95,74 %
06.02.2018 09:48 -1,9 C 3,9 C 80 % 1015,9 hPa 0,0 l/m 26,2 km/h (4 Bft) O-NO 58 2 min 0,000 mm 0,0 UV-I 302 W/m -4,9 C -14,8 C 33,8 km/h (5 Bft) 97,92 %
06.02.2018 09:50 -1,9 C 3,9 C 80 % 1015,8 hPa 0,0 l/m 20,9 km/h (4 Bft) O-NO 78 2 min 0,000 mm 0,0 UV-I 305 W/m -4,9 C -12,5 C 29,0 km/h (5 Bft) 97,87 %
06.02.2018 09:52 -1,9 C 3,9 C 81 % 1015,8 hPa 0,0 l/m 21,6 km/h (4 Bft) O-NO 67 2 min 0,000 mm 0,0 UV-I 285 W/m -4,7 C -12,8 C 32,2 km/h (5 Bft) 97,87 %
06.02.2018 09:54 -1,9 C 3,9 C 80 % 1015,9 hPa 0,0 l/m 19,3 km/h (3 Bft) O-NO 63 2 min 0,000 mm 0,0 UV-I 295 W/m -4,9 C -11,7 C 25,7 km/h (4 Bft) 97,87 %
06.02.2018 09:56 -1,8 C 3,9 C 80 % 1015,9 hPa 0,0 l/m 20,0 km/h (4 Bft) O 84 2 min 0,000 mm 0,2 UV-I 310 W/m -4,8 C -12,0 C 32,2 km/h (5 Bft) 97,37 %
06.02.2018 09:58 -1,8 C 3,9 C 81 % 1016,0 hPa 0,0 l/m 19,2 km/h (3 Bft) O-NO 71 2 min 0,000 mm 0,5 UV-I 324 W/m -4,6 C -11,6 C 27,4 km/h (4 Bft) 98,00 %
06.02.2018 10:00 -1,8 C 3,9 C 80 % 1015,9 hPa 0,0 l/m 19,7 km/h (3 Bft) O-NO 76 2 min 0,000 mm 0,5 UV-I 324 W/m -4,8 C -11,8 C 29,0 km/h (5 Bft) 95,74 %
06.02.2018 10:02 -1,7 C 3,9 C 80 % 1016,0 hPa 0,0 l/m 20,0 km/h (4 Bft) O 80 2 min 0,102 mm 0,5 UV-I 326 W/m -4,7 C -11,8 C 30,6 km/h (5 Bft) 95,74 %
06.02.2018 10:04 -1,7 C 3,9 C 80 % 1016,0 hPa 0,0 l/m 22,3 km/h (4 Bft) O 79 2 min 0,000 mm 0,5 UV-I 330 W/m -4,7 C -12,9 C 29,0 km/h (5 Bft) 95,74 %
06.02.2018 10:06 -1,7 C 3,9 C 80 % 1015,9 hPa 0,0 l/m 17,3 km/h (3 Bft) O-NO 73 2 min 0,000 mm 0,5 UV-I 330 W/m -4,7 C -10,4 C 25,7 km/h (4 Bft) 96,00 %
06.02.2018 10:08 -1,6 C 3,9 C 80 % 1015,9 hPa 0,0 l/m 16,9 km/h (3 Bft) O-NO 57 2 min 0,000 mm 0,5 UV-I 339 W/m -4,6 C -10,1 C 25,7 km/h (4 Bft) 97,87 %
06.02.2018 10:10 -1,6 C 3,9 C 80 % 1015,9 hPa 0,0 l/m 20,2 km/h (4 Bft) NO 47 2 min 0,000 mm 0,5 UV-I 343 W/m -4,6 C -11,8 C 29,0 km/h (5 Bft) 97,44 %
06.02.2018 10:12 -1,6 C 3,9 C 79 % 1015,9 hPa 0,0 l/m 23,6 km/h (4 Bft) O 90 2 min 0,000 mm 0,5 UV-I 352 W/m -4,8 C -13,3 C 33,8 km/h (5 Bft) 97,87 %
06.02.2018 10:14 -1,6 C 3,9 C 79 % 1015,9 hPa 0,0 l/m 20,0 km/h (4 Bft) O-NO 65 2 min 0,000 mm 0,5 UV-I 337 W/m -4,8 C -11,7 C 25,7 km/h (4 Bft) 97,22 %
06.02.2018 10:16 -1,6 C 3,9 C 79 % 1015,9 hPa 0,0 l/m 16,9 km/h (3 Bft) O-SO 113 2 min 0,000 mm 0,5 UV-I 340 W/m -4,8 C -10,1 C 24,1 km/h (4 Bft) 96,72 %
06.02.2018 10:18 -1,5 C 3,9 C 79 % 1016,0 hPa 0,0 l/m 18,2 km/h (3 Bft) O-NO 67 2 min 0,000 mm 0,6 UV-I 347 W/m -4,7 C -10,7 C 32,2 km/h (5 Bft) 97,87 %
06.02.2018 10:20 -1,5 C 3,9 C 79 % 1015,9 hPa 0,0 l/m 21,1 km/h (4 Bft) NO 51 2 min 0,000 mm 0,6 UV-I 334 W/m -4,7 C -12,1 C 30,6 km/h (5 Bft) 97,87 %
06.02.2018 10:22 -1,4 C 3,9 C 79 % 1015,9 hPa 0,0 l/m 16,8 km/h (3 Bft) O-NO 71 2 min 0,000 mm 0,6 UV-I 344 W/m -4,6 C -9,8 C 22,5 km/h (4 Bft) 98,00 %
06.02.2018 10:24 -1,3 C 3,9 C 79 % 1015,8 hPa 0,0 l/m 18,3 km/h (3 Bft) O-NO 61 2 min 0,000 mm 0,6 UV-I 336 W/m -4,5 C -10,5 C 25,7 km/h (4 Bft) 100,00 %
06.02.2018 10:26 -1,4 C 3,9 C 79 % 1015,8 hPa 0,0 l/m 20,4 km/h (4 Bft) O-NO 63 2 min 0,000 mm 0,6 UV-I 324 W/m -4,6 C -11,6 C 25,7 km/h (4 Bft) 100,00 %
06.02.2018 10:28 -1,4 C 3,9 C 78 % 1015,8 hPa 0,0 l/m 22,3 km/h (4 Bft) NO 46 2 min 0,000 mm 0,6 UV-I 306 W/m -4,7 C -12,5 C 27,4 km/h (4 Bft) 100,00 %
06.02.2018 10:30 -1,4 C 3,9 C 78 % 1015,7 hPa 0,0 l/m 22,4 km/h (4 Bft) O-NO 67 2 min 0,000 mm 0,6 UV-I 307 W/m -4,7 C -12,5 C 30,6 km/h (5 Bft) 100,00 %
06.02.2018 10:32 -1,4 C 3,9 C 79 % 1015,7 hPa 0,0 l/m 19,5 km/h (3 Bft) O 98 2 min 0,000 mm 0,6 UV-I 336 W/m -4,6 C -11,2 C 24,1 km/h (4 Bft) 97,92 %
06.02.2018 10:34 -1,3 C 3,9 C 79 % 1015,7 hPa 0,0 l/m 17,3 km/h (3 Bft) O 97 2 min 0,000 mm 0,6 UV-I 336 W/m -4,5 C -9,9 C 24,1 km/h (4 Bft) 100,00 %
06.02.2018 10:36 -1,2 C 3,9 C 80 % 1015,6 hPa 0,0 l/m 16,5 km/h (3 Bft) NO 55 2 min 0,000 mm 0,6 UV-I 339 W/m -4,2 C -9,3 C 22,5 km/h (4 Bft) 100,00 %
06.02.2018 10:38 -1,2 C 3,9 C 79 % 1015,6 hPa 0,0 l/m 18,1 km/h (3 Bft) O 79 2 min 0,000 mm 0,6 UV-I 354 W/m -4,4 C -10,2 C 25,7 km/h (4 Bft) 100,00 %
06.02.2018 10:40 -1,2 C 3,9 C 79 % 1015,7 hPa 0,0 l/m 16,8 km/h (3 Bft) O-NO 66 2 min 0,000 mm 0,6 UV-I 348 W/m -4,4 C -9,5 C 22,5 km/h (4 Bft) 97,37 %
06.02.2018 10:42 -1,1 C 3,9 C 79 % 1015,6 hPa 0,0 l/m 18,1 km/h (3 Bft) O-NO 61 2 min 0,000 mm 0,6 UV-I 341 W/m -4,3 C -10,1 C 25,7 km/h (4 Bft) 100,00 %
06.02.2018 10:44 -1,0 C 3,9 C 79 % 1015,6 hPa 0,0 l/m 16,3 km/h (3 Bft) O 98 2 min 0,000 mm 0,6 UV-I 324 W/m -4,2 C -9,0 C 24,1 km/h (4 Bft) 100,00 %
06.02.2018 10:46 -1,1 C 3,9 C 78 % 1015,6 hPa 0,0 l/m 16,5 km/h (3 Bft) O 84 2 min 0,000 mm 0,6 UV-I 335 W/m -4,4 C -9,2 C 24,1 km/h (4 Bft) 97,87 %
06.02.2018 10:48 -1,1 C 3,9 C 78 % 1015,6 hPa 0,0 l/m 17,6 km/h (3 Bft) O 84 2 min 0,000 mm 0,7 UV-I 338 W/m -4,4 C -9,8 C 29,0 km/h (5 Bft) 100,00 %
06.02.2018 10:50 -1,1 C 3,9 C 78 % 1015,6 hPa 0,0 l/m 18,3 km/h (3 Bft) O-NO 63 2 min 0,000 mm 0,7 UV-I 333 W/m -4,4 C -10,2 C 24,1 km/h (4 Bft) 100,00 %
06.02.2018 10:52 -1,1 C 3,9 C 78 % 1015,6 hPa 0,0 l/m 21,4 km/h (4 Bft) O-NO 67 2 min 0,000 mm 0,7 UV-I 350 W/m -4,4 C -11,7 C 27,4 km/h (4 Bft) 97,87 %
06.02.2018 10:54 -1,1 C 3,9 C 78 % 1015,6 hPa 0,0 l/m 19,4 km/h (3 Bft) O-NO 71 2 min 0,000 mm 0,7 UV-I 350 W/m -4,4 C -10,8 C 27,4 km/h (4 Bft) 100,00 %
06.02.2018 10:56 -1,1 C 3,9 C 78 % 1015,6 hPa 0,0 l/m 17,8 km/h (3 Bft) O-NO 59 2 min 0,000 mm 0,7 UV-I 345 W/m -4,4 C -9,9 C 24,1 km/h (4 Bft) 97,87 %
06.02.2018 10:58 -1,0 C 3,9 C 78 % 1015,6 hPa 0,0 l/m 18,5 km/h (3 Bft) O-NO 62 2 min 0,000 mm 0,7 UV-I 346 W/m -4,3 C -10,2 C 24,1 km/h (4 Bft) 95,74 %
06.02.2018 11:00 -0,9 C 3,9 C 79 % 1015,5 hPa 0,0 l/m 19,3 km/h (3 Bft) NO 47 2 min 0,127 mm 0,7 UV-I 332 W/m -4,1 C -10,5 C 25,7 km/h (4 Bft) 97,87 %
06.02.2018 11:02 -0,9 C 3,9 C 78 % 1015,5 hPa 0,0 l/m 16,6 km/h (3 Bft) O-NO 60 2 min 0,000 mm 0,7 UV-I 330 W/m -4,2 C -9,0 C 24,1 km/h (4 Bft) 100,00 %
06.02.2018 11:04 -0,9 C 3,9 C 78 % 1015,5 hPa 0,0 l/m 18,5 km/h (3 Bft) O-NO 73 2 min 0,000 mm 0,7 UV-I 332 W/m -4,2 C -10,0 C 27,4 km/h (4 Bft) 96,00 %
06.02.2018 11:06 -0,9 C 3,9 C 78 % 1015,5 hPa 0,0 l/m 21,5 km/h (4 Bft) O-NO 59 2 min 0,000 mm 0,7 UV-I 330 W/m -4,2 C -11,5 C 29,0 km/h (5 Bft) 100,00 %
06.02.2018 11:08 -0,9 C 3,9 C 78 % 1015,5 hPa 0,0 l/m 18,0 km/h (3 Bft) NO 54 2 min 0,000 mm 0,7 UV-I 344 W/m -4,2 C -9,8 C 25,7 km/h (4 Bft) 100,00 %
06.02.2018 11:10 -0,9 C 3,9 C 77 % 1015,5 hPa 0,0 l/m 19,3 km/h (3 Bft) NO 55 2 min 0,000 mm 0,7 UV-I 348 W/m -4,4 C -10,5 C 27,4 km/h (4 Bft) 100,00 %
06.02.2018 11:15 -0,7 C 3,9 C 78 % 1015,4 hPa 0,0 l/m 19,3 km/h (3 Bft) O-NO 67 5 min 0,000 mm 0,8 UV-I 375 W/m -4,0 C -10,2 C 27,4 km/h (4 Bft) 100,00 %
06.02.2018 11:20 -0,7 C 3,9 C 77 % 1015,4 hPa 0,0 l/m 19,3 km/h (3 Bft) O-NO 67 5 min 0,000 mm 0,8 UV-I 363 W/m -4,2 C -10,2 C 27,4 km/h (4 Bft) 100,00 %
06.02.2018 11:22 -0,7 C 3,9 C 77 % 1015,4 hPa 0,0 l/m 19,2 km/h (3 Bft) O-NO 59 2 min 0,000 mm 0,8 UV-I 361 W/m -4,2 C -10,1 C 27,4 km/h (4 Bft) 96,46 %
06.02.2018 11:25 -0,7 C 3,9 C 77 % 1015,3 hPa 0,0 l/m 19,3 km/h (3 Bft) O-NO 67 3 min 0,000 mm 0,8 UV-I 362 W/m -4,2 C -10,2 C 27,4 km/h (4 Bft) 99,12 %
06.02.2018 11:28 -0,6 C 3,9 C 77 % 1015,2 hPa 0,0 l/m 14,9 km/h (3 Bft) O 82 3 min 0,000 mm 0,8 UV-I 361 W/m -4,1 C -7,6 C 22,5 km/h (4 Bft) 98,00 %
06.02.2018 11:30 -0,6 C 3,9 C 78 % 1015,2 hPa 0,0 l/m 16,3 km/h (3 Bft) O-NO 76 2 min 0,000 mm 0,8 UV-I 395 W/m -3,9 C -8,5 C 22,5 km/h (4 Bft) 97,56 %
06.02.2018 11:32 -0,6 C 3,9 C 77 % 1015,1 hPa 0,0 l/m 18,0 km/h (3 Bft) NO 42 2 min 0,000 mm 0,9 UV-I 425 W/m -4,1 C -9,4 C 24,1 km/h (4 Bft) 96,23 %
06.02.2018 11:34 -0,6 C 3,9 C 77 % 1015,1 hPa 0,0 l/m 17,7 km/h (3 Bft) O-NO 59 2 min 0,000 mm 0,9 UV-I 440 W/m -4,1 C -9,3 C 24,1 km/h (4 Bft) 97,56 %
06.02.2018 11:36 -0,5 C 3,9 C 77 % 1015,1 hPa 0,0 l/m 20,3 km/h (4 Bft) O-NO 60 2 min 0,000 mm 0,9 UV-I 447 W/m -4,0 C -10,4 C 27,4 km/h (4 Bft) 96,00 %
06.02.2018 11:38 -0,4 C 3,9 C 77 % 1015,1 hPa 0,0 l/m 20,4 km/h (4 Bft) NO 53 2 min 0,000 mm 0,9 UV-I 442 W/m -3,9 C -10,3 C 25,7 km/h (4 Bft) 100,00 %
06.02.2018 11:40 -0,4 C 3,9 C 77 % 1015,1 hPa 0,0 l/m 19,3 km/h (3 Bft) O 80 2 min 0,000 mm 0,9 UV-I 443 W/m -3,9 C -9,8 C 24,1 km/h (4 Bft) 100,00 %
06.02.2018 11:42 -0,4 C 3,9 C 77 % 1015,1 hPa 0,0 l/m 19,2 km/h (3 Bft) O-NO 63 2 min 0,000 mm 0,9 UV-I 441 W/m -3,9 C -9,8 C 27,4 km/h (4 Bft) 100,00 %
06.02.2018 11:44 -0,3 C 4,4 C 77 % 1015,1 hPa 0,0 l/m 16,9 km/h (3 Bft) O-NO 67 2 min 0,000 mm 0,9 UV-I 447 W/m -3,8 C -8,4 C 20,9 km/h (4 Bft) 100,00 %
06.02.2018 11:46 -0,3 C 3,9 C 77 % 1015,1 hPa 0,0 l/m 17,8 km/h (3 Bft) O-NO 67 2 min 0,000 mm 0,9 UV-I 445 W/m -3,8 C -8,9 C 24,1 km/h (4 Bft) 100,00 %
06.02.2018 11:48 -0,3 C 3,9 C 76 % 1015,1 hPa 0,0 l/m 17,6 km/h (3 Bft) O-NO 59 2 min 0,000 mm 0,9 UV-I 422 W/m -4,0 C -8,8 C 24,1 km/h (4 Bft) 98,08 %
06.02.2018 11:50 -0,3 C 4,4 C 76 % 1015,1 hPa 0,0 l/m 18,3 km/h (3 Bft) O-NO 63 2 min 0,000 mm 0,9 UV-I 404 W/m -4,0 C -9,2 C 24,1 km/h (4 Bft) 100,00 %
06.02.2018 11:52 -0,3 C 3,9 C 76 % 1015,1 hPa 0,0 l/m 17,1 km/h (3 Bft) NO 54 2 min 0,000 mm 0,8 UV-I 394 W/m -4,0 C -8,6 C 20,9 km/h (4 Bft) 97,22 %
06.02.2018 11:54 -0,3 C 3,9 C 76 % 1015,1 hPa 0,0 l/m 15,6 km/h (3 Bft) O-NO 69 2 min 0,000 mm 0,8 UV-I 375 W/m -4,0 C -7,7 C 20,9 km/h (4 Bft) 100,00 %
06.02.2018 11:56 -0,3 C 3,9 C 77 % 1015,0 hPa 0,0 l/m 13,1 km/h (3 Bft) NO 49 2 min 0,000 mm 0,8 UV-I 385 W/m -3,8 C -6,1 C 17,7 km/h (3 Bft) 100,00 %
06.02.2018 11:58 -0,1 C 3,9 C 78 % 1015,0 hPa 0,0 l/m 15,4 km/h (3 Bft) O-NO 61 2 min 0,000 mm 0,8 UV-I 377 W/m -3,5 C -7,3 C 22,5 km/h (4 Bft) 100,00 %
06.02.2018 12:00 -0,1 C 3,9 C 77 % 1015,0 hPa 0,0 l/m 13,8 km/h (3 Bft) NO 52 2 min 0,000 mm 0,8 UV-I 385 W/m -3,6 C -6,4 C 20,9 km/h (4 Bft) 100,00 %
06.02.2018 12:02 0,1 C 4,4 C 77 % 1015,0 hPa 0,0 l/m 12,2 km/h (2 Bft) NO 54 2 min 0,152 mm 0,8 UV-I 365 W/m -3,4 C -5,0 C 17,7 km/h (3 Bft) 98,11 %
06.02.2018 12:04 0,1 C 3,9 C 75 % 1015,0 hPa 0,0 l/m 13,7 km/h (3 Bft) O 101 2 min 0,000 mm 0,8 UV-I 345 W/m -3,8 C -6,0 C 20,9 km/h (4 Bft) 100,00 %
06.02.2018 12:06 0,2 C 3,9 C 77 % 1015,0 hPa 0,0 l/m 7,9 km/h (2 Bft) O-NO 65 2 min 0,000 mm 0,8 UV-I 327 W/m -3,3 C -1,3 C 14,5 km/h (3 Bft) 100,00 %
06.02.2018 12:08 0,2 C 3,9 C 76 % 1014,9 hPa 0,0 l/m 16,9 km/h (3 Bft) NO 37 2 min 0,000 mm 0,8 UV-I 328 W/m -3,5 C -7,8 C 25,7 km/h (4 Bft) 100,00 %
06.02.2018 12:10 0,1 C 3,9 C 76 % 1014,9 hPa 0,0 l/m 17,3 km/h (3 Bft) O 80 2 min 0,000 mm 0,8 UV-I 348 W/m -3,6 C -8,2 C 24,1 km/h (4 Bft) 100,00 %
06.02.2018 12:12 0,0 C 3,9 C 76 % 1014,9 hPa 0,0 l/m 13,8 km/h (3 Bft) O-SO 116 2 min 0,000 mm 0,8 UV-I 346 W/m -3,7 C -6,2 C 20,9 km/h (4 Bft) 100,00 %
06.02.2018 12:14 0,0 C 3,9 C 76 % 1014,8 hPa 0,0 l/m 14,1 km/h (3 Bft) O-NO 75 2 min 0,000 mm 0,8 UV-I 347 W/m -3,7 C -6,4 C 17,7 km/h (3 Bft) 97,37 %
06.02.2018 12:16 0,1 C 3,9 C 78 % 1014,8 hPa 0,0 l/m 12,0 km/h (2 Bft) NO 53 2 min 0,000 mm 0,8 UV-I 334 W/m -3,3 C -4,9 C 20,9 km/h (4 Bft) 100,00 %
06.02.2018 12:18 0,1 C 3,9 C 77 % 1014,8 hPa 0,0 l/m 15,0 km/h (3 Bft) NO 52 2 min 0,000 mm 0,8 UV-I 334 W/m -3,4 C -6,9 C 20,9 km/h (4 Bft) 100,00 %
06.02.2018 12:20 0,1 C 3,9 C 76 % 1014,7 hPa 0,0 l/m 17,8 km/h (3 Bft) O-NO 69 2 min 0,000 mm 0,8 UV-I 342 W/m -3,6 C -8,4 C 22,5 km/h (4 Bft) 100,00 %
06.02.2018 12:22 0,1 C 3,9 C 77 % 1014,7 hPa 0,0 l/m 16,2 km/h (3 Bft) O-NO 63 2 min 0,000 mm 0,8 UV-I 338 W/m -3,4 C -7,6 C 19,3 km/h (3 Bft) 100,00 %
06.02.2018 12:24 0,1 C 3,9 C 77 % 1014,7 hPa 0,0 l/m 13,8 km/h (3 Bft) O-NO 77 2 min 0,000 mm 0,8 UV-I 337 W/m -3,4 C -6,1 C 20,9 km/h (4 Bft) 97,37 %
06.02.2018 12:26 0,1 C 3,9 C 77 % 1014,6 hPa 0,0 l/m 16,7 km/h (3 Bft) O 80 2 min 0,000 mm 0,8 UV-I 326 W/m -3,4 C -7,8 C 24,1 km/h (4 Bft) 100,00 %
06.02.2018 12:28 0,1 C 3,9 C 77 % 1014,6 hPa 0,0 l/m 14,4 km/h (3 Bft) O-NO 63 2 min 0,000 mm 0,8 UV-I 293 W/m -3,4 C -6,5 C 20,9 km/h (4 Bft) 100,00 %
06.02.2018 12:30 0,1 C 4,4 C 77 % 1014,6 hPa 0,0 l/m 13,7 km/h (3 Bft) O-NO 67 2 min 0,000 mm 0,8 UV-I 293 W/m -3,4 C -6,0 C 19,3 km/h (3 Bft) 100,00 %
06.02.2018 12:32 0,1 C 3,9 C 76 % 1014,6 hPa 0,0 l/m 17,1 km/h (3 Bft) NO 55 2 min 0,000 mm 0,8 UV-I 299 W/m -3,6 C -8,1 C 22,5 km/h (4 Bft) 100,00 %
06.02.2018 12:34 0,0 C 3,9 C 77 % 1014,6 hPa 0,0 l/m 15,0 km/h (3 Bft) O-NO 60 2 min 0,000 mm 0,8 UV-I 306 W/m -3,5 C -7,0 C 22,5 km/h (4 Bft) 100,00 %
06.02.2018 12:36 0,1 C 3,9 C 77 % 1014,6 hPa 0,0 l/m 12,0 km/h (2 Bft) O-NO 66 2 min 0,000 mm 0,8 UV-I 293 W/m -3,4 C -4,9 C 17,7 km/h (3 Bft) 100,00 %
06.02.2018 12:38 0,1 C 3,9 C 77 % 1014,5 hPa 0,0 l/m 15,0 km/h (3 Bft) O-NO 66 2 min 0,000 mm 0,7 UV-I 277 W/m -3,4 C -6,9 C 20,9 km/h (4 Bft) 98,18 %
06.02.2018 12:40 0,1 C 4,4 C 78 % 1014,5 hPa 0,0 l/m 14,2 km/h (3 Bft) NO 53 2 min 0,000 mm 0,7 UV-I 279 W/m -3,3 C -6,4 C 19,3 km/h (3 Bft) 97,56 %
06.02.2018 12:42 0,1 C 4,4 C 77 % 1014,5 hPa 0,0 l/m 17,1 km/h (3 Bft) NO 42 2 min 0,000 mm 0,7 UV-I 252 W/m -3,4 C -8,1 C 22,5 km/h (4 Bft) 97,56 %
06.02.2018 12:44 0,1 C 4,4 C 77 % 1014,5 hPa 0,0 l/m 16,2 km/h (3 Bft) O-NO 63 0 min 0,000 mm 0,7 UV-I 231 W/m -3,4 C -7,6 C 22,5 km/h (4 Bft) 97,56 %
06.02.2018 12:46 0,1 C 4,4 C 77 % 1014,4 hPa 0,0 l/m 17,3 km/h (3 Bft) O-NO 57 0 min 0,000 mm 0,7 UV-I 222 W/m -3,4 C -8,2 C 22,5 km/h (4 Bft) 94,83 %
06.02.2018 12:48 0,1 C 3,9 C 77 % 1014,4 hPa 0,0 l/m 17,3 km/h (3 Bft) O-NO 77 0 min 0,000 mm 0,7 UV-I 238 W/m -3,4 C -8,2 C 24,1 km/h (4 Bft) 96,23 %
06.02.2018 12:50 0,1 C 3,9 C 77 % 1014,4 hPa 0,0 l/m 12,8 km/h (3 Bft) O 85 0 min 0,000 mm 0,7 UV-I 238 W/m -3,4 C -5,4 C 19,3 km/h (3 Bft) 97,87 %
06.02.2018 12:52 0,1 C 3,9 C 77 % 1014,4 hPa 0,0 l/m 16,5 km/h (3 Bft) NO 51 0 min 0,000 mm 0,7 UV-I 236 W/m -3,4 C -7,7 C 24,1 km/h (4 Bft) 97,73 %
06.02.2018 12:54 0,2 C 4,4 C 77 % 1014,3 hPa 0,0 l/m 18,0 km/h (3 Bft) O-NO 71 0 min 0,000 mm 0,7 UV-I 243 W/m -3,3 C -8,4 C 25,7 km/h (4 Bft) 97,56 %
06.02.2018 12:56 0,1 C 4,4 C 76 % 1014,3 hPa 0,0 l/m 18,3 km/h (3 Bft) O-NO 67 2 min 0,000 mm 0,7 UV-I 247 W/m -3,6 C -8,7 C 24,1 km/h (4 Bft) 96,23 %
06.02.2018 12:58 0,2 C 4,4 C 77 % 1014,2 hPa 0,0 l/m 14,6 km/h (3 Bft) O-NO 72 2 min 0,000 mm 0,7 UV-I 248 W/m -3,3 C -6,5 C 17,7 km/h (3 Bft) 97,56 %
06.02.2018 13:00 0,2 C 4,4 C 78 % 1014,2 hPa 0,0 l/m 15,3 km/h (3 Bft) O-NO 62 0 min 0,127 mm 0,7 UV-I 242 W/m -3,2 C -6,9 C 20,9 km/h (4 Bft) 96,23 %
06.02.2018 13:02 0,3 C 4,4 C 78 % 1014,1 hPa 0,0 l/m 16,8 km/h (3 Bft) NO 54 2 min 0,000 mm 0,7 UV-I 244 W/m -3,1 C -7,6 C 22,5 km/h (4 Bft) 100,00 %
06.02.2018 13:04 0,2 C 3,9 C 77 % 1014,0 hPa 0,0 l/m 17,1 km/h (3 Bft) NO 53 0 min 0,000 mm 0,7 UV-I 233 W/m -3,3 C -7,9 C 20,9 km/h (4 Bft) 100,00 %
06.02.2018 13:06 0,2 C 3,9 C 77 % 1014,0 hPa 0,0 l/m 17,2 km/h (3 Bft) O-NO 58 0 min 0,000 mm 0,7 UV-I 229 W/m -3,3 C -8,0 C 20,9 km/h (4 Bft) 98,00 %
06.02.2018 13:08 0,2 C 4,4 C 77 % 1014,0 hPa 0,0 l/m 15,5 km/h (3 Bft) O-NO 64 0 min 0,000 mm 0,7 UV-I 225 W/m -3,3 C -7,0 C 20,9 km/h (4 Bft) 97,73 %
06.02.2018 13:10 0,2 C 4,4 C 77 % 1014,0 hPa 0,0 l/m 19,5 km/h (3 Bft) O-NO 61 0 min 0,000 mm 0,7 UV-I 236 W/m -3,3 C -9,1 C 24,1 km/h (4 Bft) 100,00 %
06.02.2018 13:12 0,2 C 4,4 C 77 % 1013,9 hPa 0,0 l/m 19,9 km/h (4 Bft) O-NO 63 2 min 0,000 mm 0,7 UV-I 256 W/m -3,3 C -9,3 C 24,1 km/h (4 Bft) 100,00 %
06.02.2018 13:14 0,2 C 4,4 C 77 % 1013,9 hPa 0,0 l/m 15,8 km/h (3 Bft) O-NO 74 2 min 0,000 mm 0,7 UV-I 284 W/m -3,3 C -7,2 C 20,9 km/h (4 Bft) 100,00 %
06.02.2018 13:16 0,3 C 4,4 C 77 % 1014,0 hPa 0,0 l/m 15,1 km/h (3 Bft) NO 47 2 min 0,000 mm 0,7 UV-I 343 W/m -3,2 C -6,7 C 22,5 km/h (4 Bft) 100,00 %
06.02.2018 13:18 0,4 C 4,4 C 77 % 1013,8 hPa 0,0 l/m 17,9 km/h (3 Bft) NO 55 2 min 0,000 mm 0,7 UV-I 363 W/m -3,1 C -8,1 C 24,1 km/h (4 Bft) 100,00 %
06.02.2018 13:20 0,5 C 4,4 C 76 % 1013,8 hPa 0,0 l/m 19,6 km/h (3 Bft) O-NO 59 2 min 0,000 mm 0,7 UV-I 373 W/m -3,2 C -8,8 C 25,7 km/h (4 Bft) 100,00 %
06.02.2018 13:22 0,5 C 4,4 C 76 % 1013,8 hPa 0,0 l/m 19,4 km/h (3 Bft) NO 55 2 min 0,000 mm 0,7 UV-I 372 W/m -3,2 C -8,7 C 27,4 km/h (4 Bft) 100,00 %
06.02.2018 13:24 0,6 C 4,4 C 77 % 1013,8 hPa 0,0 l/m 13,0 km/h (3 Bft) O-NO 64 2 min 0,000 mm 0,7 UV-I 377 W/m -3,0 C -5,0 C 19,3 km/h (3 Bft) 100,00 %
06.02.2018 13:26 0,7 C 4,4 C 76 % 1013,8 hPa 0,0 l/m 14,1 km/h (3 Bft) O-NO 66 2 min 0,000 mm 0,7 UV-I 375 W/m -3,0 C -5,6 C 22,5 km/h (4 Bft) 100,00 %
06.02.2018 13:28 0,8 C 4,4 C 76 % 1013,7 hPa 0,0 l/m 16,4 km/h (3 Bft) NO 53 2 min 0,000 mm 0,8 UV-I 393 W/m -2,9 C -6,8 C 22,5 km/h (4 Bft) 100,00 %
06.02.2018 13:30 0,8 C 4,4 C 75 % 1013,7 hPa 0,0 l/m 18,9 km/h (3 Bft) NO 47 2 min 0,000 mm 0,8 UV-I 402 W/m -3,1 C -8,1 C 27,4 km/h (4 Bft) 97,37 %
06.02.2018 13:32 0,8 C 4,4 C 75 % 1013,7 hPa 0,0 l/m 21,1 km/h (4 Bft) O-NO 76 2 min 0,000 mm 0,8 UV-I 389 W/m -3,1 C -9,1 C 27,4 km/h (4 Bft) 100,00 %
06.02.2018 13:34 0,7 C 4,4 C 75 % 1013,6 hPa 0,0 l/m 19,6 km/h (3 Bft) O 84 2 min 0,000 mm 0,7 UV-I 348 W/m -3,2 C -8,5 C 27,4 km/h (4 Bft) 100,00 %
06.02.2018 13:36 0,8 C 4,4 C 76 % 1013,6 hPa 0,0 l/m 19,1 km/h (3 Bft) O-NO 70 2 min 0,000 mm 0,7 UV-I 333 W/m -2,9 C -8,2 C 25,7 km/h (4 Bft) 97,87 %
06.02.2018 13:38 0,8 C 4,4 C 75 % 1013,6 hPa 0,0 l/m 19,2 km/h (3 Bft) O-NO 70 2 min 0,000 mm 0,7 UV-I 332 W/m -3,1 C -8,2 C 25,7 km/h (4 Bft) 97,56 %
06.02.2018 13:40 0,8 C 4,4 C 75 % 1013,6 hPa 0,0 l/m 18,9 km/h (3 Bft) O-NO 74 2 min 0,000 mm 0,7 UV-I 354 W/m -3,1 C -8,1 C 29,0 km/h (5 Bft) 100,00 %
06.02.2018 13:42 0,8 C 4,4 C 74 % 1013,6 hPa 0,0 l/m 19,4 km/h (3 Bft) O-SO 110 2 min 0,000 mm 0,7 UV-I 367 W/m -3,3 C -8,3 C 29,0 km/h (5 Bft) 100,00 %
06.02.2018 13:44 0,8 C 4,4 C 74 % 1013,5 hPa 0,0 l/m 17,6 km/h (3 Bft) O 101 2 min 0,000 mm 0,7 UV-I 361 W/m -3,3 C -7,4 C 25,7 km/h (4 Bft) 100,00 %
06.02.2018 13:46 0,9 C 4,4 C 75 % 1013,5 hPa 0,0 l/m 15,0 km/h (3 Bft) O-NO 59 2 min 0,000 mm 0,7 UV-I 356 W/m -3,0 C -5,9 C 22,5 km/h (4 Bft) 94,87 %
06.02.2018 13:48 0,9 C 4,4 C 75 % 1013,5 hPa 0,0 l/m 16,1 km/h (3 Bft) O 84 2 min 0,000 mm 0,7 UV-I 348 W/m -3,0 C -6,5 C 24,1 km/h (4 Bft) 100,00 %
06.02.2018 13:50 0,9 C 4,4 C 74 % 1013,5 hPa 0,0 l/m 19,3 km/h (3 Bft) O-NO 57 2 min 0,000 mm 0,7 UV-I 333 W/m -3,2 C -8,1 C 24,1 km/h (4 Bft) 100,00 %
06.02.2018 13:52 0,9 C 4,4 C 74 % 1013,4 hPa 0,0 l/m 21,0 km/h (4 Bft) NO 46 2 min 0,000 mm 0,6 UV-I 293 W/m -3,2 C -8,9 C 27,4 km/h (4 Bft) 100,00 %
06.02.2018 13:54 0,8 C 4,4 C 75 % 1013,4 hPa 0,0 l/m 20,1 km/h (4 Bft) O-NO 63 2 min 0,000 mm 0,6 UV-I 258 W/m -3,1 C -8,6 C 25,7 km/h (4 Bft) 97,87 %
06.02.2018 13:56 0,8 C 4,4 C 75 % 1013,4 hPa 0,0 l/m 20,8 km/h (4 Bft) O 81 2 min 0,000 mm 0,6 UV-I 227 W/m -3,1 C -9,0 C 27,4 km/h (4 Bft) 100,00 %
06.02.2018 13:58 0,7 C 4,4 C 75 % 1013,4 hPa 0,0 l/m 16,4 km/h (3 Bft) O 82 0 min 0,000 mm 0,5 UV-I 207 W/m -3,2 C -6,9 C 22,5 km/h (4 Bft) 100,00 %
06.02.2018 14:00 0,8 C 4,4 C 76 % 1013,4 hPa 0,0 l/m 17,1 km/h (3 Bft) O-NO 70 0 min 0,127 mm 0,5 UV-I 195 W/m -2,9 C -7,2 C 22,5 km/h (4 Bft) 100,00 %
06.02.2018 14:02 0,8 C 4,4 C 76 % 1013,3 hPa 0,0 l/m 16,6 km/h (3 Bft) O-NO 57 0 min 0,000 mm 0,5 UV-I 194 W/m -2,9 C -6,9 C 24,1 km/h (4 Bft) 100,00 %
06.02.2018 14:04 0,8 C 4,4 C 75 % 1013,2 hPa 0,0 l/m 18,0 km/h (3 Bft) NO 56 0 min 0,000 mm 0,5 UV-I 193 W/m -3,1 C -7,6 C 24,1 km/h (4 Bft) 98,46 %
06.02.2018 14:06 0,8 C 4,4 C 75 % 1013,2 hPa 0,0 l/m 16,4 km/h (3 Bft) O-NO 67 0 min 0,000 mm 0,5 UV-I 191 W/m -3,1 C -6,8 C 25,7 km/h (4 Bft) 100,00 %
06.02.2018 14:08 0,8 C 4,4 C 75 % 1013,2 hPa 0,0 l/m 15,5 km/h (3 Bft) O-NO 67 0 min 0,000 mm 0,5 UV-I 191 W/m -3,1 C -6,3 C 19,3 km/h (3 Bft) 100,00 %
06.02.2018 14:10 0,8 C 4,4 C 75 % 1013,1 hPa 0,0 l/m 14,5 km/h (3 Bft) O-NO 67 0 min 0,000 mm 0,5 UV-I 194 W/m -3,1 C -5,7 C 20,9 km/h (4 Bft) 100,00 %
06.02.2018 14:12 0,8 C 4,4 C 76 % 1013,1 hPa 0,0 l/m 15,4 km/h (3 Bft) NO 54 0 min 0,000 mm 0,5 UV-I 196 W/m -2,9 C -6,2 C 19,3 km/h (3 Bft) 100,00 %
06.02.2018 14:14 0,8 C 4,4 C 76 % 1013,0 hPa 0,0 l/m 16,4 km/h (3 Bft) O-NO 73 0 min 0,000 mm 0,5 UV-I 190 W/m -2,9 C -6,8 C 20,9 km/h (4 Bft) 97,73 %
06.02.2018 14:16 0,8 C 4,4 C 76 % 1013,0 hPa 0,0 l/m 15,3 km/h (3 Bft) O-NO 60 0 min 0,000 mm 0,5 UV-I 181 W/m -2,9 C -6,2 C 20,9 km/h (4 Bft) 96,23 %
06.02.2018 14:18 0,8 C 4,4 C 75 % 1013,0 hPa 0,0 l/m 15,4 km/h (3 Bft) O-NO 77 0 min 0,000 mm 0,5 UV-I 174 W/m -3,1 C -6,2 C 20,9 km/h (4 Bft) 95,12 %
06.02.2018 14:20 0,8 C 4,4 C 76 % 1012,9 hPa 0,0 l/m 15,0 km/h (3 Bft) O-NO 63 0 min 0,000 mm 0,5 UV-I 174 W/m -2,9 C -6,0 C 20,9 km/h (4 Bft) 98,31 %
06.02.2018 14:22 0,8 C 4,4 C 76 % 1012,9 hPa 0,0 l/m 13,4 km/h (3 Bft) O-NO 67 0 min 0,000 mm 0,0 UV-I 170 W/m -2,9 C -5,0 C 19,3 km/h (3 Bft) 97,14 %
06.02.2018 14:24 0,8 C 4,4 C 76 % 1012,8 hPa 0,0 l/m 20,0 km/h (4 Bft) O-NO 59 0 min 0,000 mm 0,0 UV-I 177 W/m -2,9 C -8,6 C 24,1 km/h (4 Bft) 96,23 %
06.02.2018 14:26 0,9 C 4,4 C 76 % 1012,8 hPa 0,0 l/m 20,5 km/h (4 Bft) NO 53 0 min 0,000 mm 0,0 UV-I 181 W/m -2,8 C -8,7 C 27,4 km/h (4 Bft) 97,44 %
06.02.2018 14:28 0,8 C 4,4 C 75 % 1012,8 hPa 0,0 l/m 17,5 km/h (3 Bft) O-NO 73 0 min 0,000 mm 0,0 UV-I 177 W/m -3,1 C -7,4 C 22,5 km/h (4 Bft) 95,12 %
06.02.2018 14:30 0,8 C 4,4 C 75 % 1012,7 hPa 0,0 l/m 17,6 km/h (3 Bft) O-NO 59 0 min 0,000 mm 0,0 UV-I 173 W/m -3,1 C -7,4 C 24,1 km/h (4 Bft) 93,22 %
06.02.2018 14:32 0,8 C 4,4 C 75 % 1012,8 hPa 0,0 l/m 18,1 km/h (3 Bft) NO 51 0 min 0,000 mm 0,0 UV-I 171 W/m -3,1 C -7,7 C 27,4 km/h (4 Bft) 94,34 %
06.02.2018 14:34 0,8 C 4,4 C 75 % 1012,8 hPa 0,0 l/m 18,3 km/h (3 Bft) O-NO 70 0 min 0,000 mm 0,0 UV-I 167 W/m -3,1 C -7,8 C 25,7 km/h (4 Bft) 97,37 %
06.02.2018 14:36 0,9 C 4,4 C 75 % 1012,8 hPa 0,0 l/m 18,6 km/h (3 Bft) NO 46 0 min 0,000 mm 0,0 UV-I 166 W/m -3,0 C -7,8 C 24,1 km/h (4 Bft) 93,62 %
06.02.2018 14:38 0,9 C 4,4 C 75 % 1012,7 hPa 0,0 l/m 18,9 km/h (3 Bft) O-NO 74 0 min 0,000 mm 0,0 UV-I 166 W/m -3,0 C -8,0 C 24,1 km/h (4 Bft) 96,00 %
06.02.2018 14:40 0,9 C 4,4 C 75 % 1012,7 hPa 0,0 l/m 19,8 km/h (3 Bft) O-NO 63 0 min 0,000 mm 0,0 UV-I 163 W/m -3,0 C -8,4 C 25,7 km/h (4 Bft) 92,45 %
06.02.2018 14:42 0,9 C 4,4 C 75 % 1012,6 hPa 0,0 l/m 21,1 km/h (4 Bft) O-NO 59 0 min 0,000 mm 0,0 UV-I 156 W/m -3,0 C -9,0 C 27,4 km/h (4 Bft) 97,73 %
06.02.2018 14:44 0,9 C 4,4 C 76 % 1012,6 hPa 0,0 l/m 22,0 km/h (4 Bft) NO 48 0 min 0,000 mm 0,0 UV-I 156 W/m -2,8 C -9,3 C 27,4 km/h (4 Bft) 94,74 %
06.02.2018 14:46 0,9 C 4,4 C 75 % 1012,6 hPa 0,0 l/m 21,5 km/h (4 Bft) O-NO 63 0 min 0,000 mm 0,0 UV-I 156 W/m -3,0 C -9,1 C 27,4 km/h (4 Bft) 92,00 %
06.02.2018 14:48 0,9 C 4,4 C 75 % 1012,5 hPa 0,0 l/m 22,8 km/h (4 Bft) O-NO 65 0 min 0,000 mm 0,0 UV-I 153 W/m -3,0 C -9,7 C 27,4 km/h (4 Bft) 98,00 %
06.02.2018 14:50 0,9 C 4,4 C 75 % 1012,5 hPa 0,0 l/m 19,1 km/h (3 Bft) O-NO 67 0 min 0,000 mm 0,0 UV-I 150 W/m -3,0 C -8,1 C 24,1 km/h (4 Bft) 97,37 %
06.02.2018 14:52 0,9 C 4,4 C 75 % 1012,5 hPa 0,0 l/m 18,1 km/h (3 Bft) O 79 0 min 0,000 mm 0,0 UV-I 142 W/m -3,0 C -7,6 C 24,1 km/h (4 Bft) 98,18 %
06.02.2018 14:54 0,9 C 4,4 C 74 % 1012,5 hPa 0,0 l/m 22,2 km/h (4 Bft) O-NO 69 0 min 0,000 mm 0,0 UV-I 139 W/m -3,2 C -9,4 C 30,6 km/h (5 Bft) 95,12 %
06.02.2018 14:56 0,9 C 4,4 C 75 % 1012,5 hPa 0,0 l/m 21,3 km/h (4 Bft) O-NO 60 0 min 0,000 mm 0,0 UV-I 142 W/m -3,0 C -9,0 C 29,0 km/h (5 Bft) 96,61 %
06.02.2018 14:58 0,9 C 4,4 C 76 % 1012,5 hPa 0,0 l/m 19,5 km/h (3 Bft) O-NO 58 0 min 0,000 mm 0,0 UV-I 149 W/m -2,8 C -8,2 C 27,4 km/h (4 Bft) 94,74 %
06.02.2018 15:00 0,9 C 4,4 C 75 % 1012,5 hPa 0,0 l/m 17,5 km/h (3 Bft) O-NO 59 0 min 0,102 mm 0,0 UV-I 149 W/m -3,0 C -7,3 C 24,1 km/h (4 Bft) 96,00 %
06.02.2018 15:02 1,0 C 4,4 C 75 % 1012,5 hPa 0,0 l/m 16,0 km/h (3 Bft) O-NO 63 0 min 0,000 mm 0,0 UV-I 150 W/m -2,9 C -6,3 C 22,5 km/h (4 Bft) 95,74 %
06.02.2018 15:04 1,1 C 4,4 C 76 % 1012,5 hPa 0,0 l/m 15,4 km/h (3 Bft) O-NO 66 0 min 0,000 mm 0,0 UV-I 151 W/m -2,6 C -5,9 C 20,9 km/h (4 Bft) 97,44 %
06.02.2018 15:06 1,1 C 4,4 C 75 % 1012,6 hPa 0,0 l/m 17,2 km/h (3 Bft) O-NO 62 2 min 0,000 mm 0,0 UV-I 156 W/m -2,8 C -6,9 C 20,9 km/h (4 Bft) 98,00 %
06.02.2018 15:08 1,1 C 4,4 C 75 % 1012,6 hPa 0,0 l/m 14,2 km/h (3 Bft) O 92 0 min 0,000 mm 0,0 UV-I 151 W/m -2,8 C -5,2 C 19,3 km/h (3 Bft) 96,23 %
06.02.2018 15:10 1,1 C 4,4 C 75 % 1012,5 hPa 0,0 l/m 14,2 km/h (3 Bft) O-NO 60 0 min 0,000 mm 0,0 UV-I 144 W/m -2,8 C -5,2 C 19,3 km/h (3 Bft) 96,00 %
06.02.2018 15:12 1,1 C 4,4 C 76 % 1012,5 hPa 0,0 l/m 14,1 km/h (3 Bft) NO 52 0 min 0,000 mm 0,0 UV-I 136 W/m -2,6 C -5,1 C 19,3 km/h (3 Bft) 97,37 %
06.02.2018 15:14 1,1 C 4,4 C 75 % 1012,5 hPa 0,0 l/m 16,3 km/h (3 Bft) O-NO 67 0 min 0,000 mm 0,0 UV-I 125 W/m -2,8 C -6,4 C 20,9 km/h (4 Bft) 98,00 %
06.02.2018 15:16 1,1 C 4,4 C 75 % 1012,5 hPa 0,0 l/m 18,1 km/h (3 Bft) O-NO 58 0 min 0,000 mm 0,0 UV-I 117 W/m -2,8 C -7,3 C 24,1 km/h (4 Bft) 96,00 %
06.02.2018 15:18 1,1 C 4,4 C 75 % 1012,5 hPa 0,0 l/m 16,5 km/h (3 Bft) O-NO 59 0 min 0,000 mm 0,0 UV-I 112 W/m -2,8 C -6,5 C 24,1 km/h (4 Bft) 97,73 %
06.02.2018 15:20 1,1 C 4,4 C 74 % 1012,6 hPa 0,0 l/m 20,4 km/h (4 Bft) O 82 0 min 0,000 mm 0,0 UV-I 107 W/m -3,0 C -8,4 C 27,4 km/h (4 Bft) 100,00 %
06.02.2018 15:22 1,1 C 4,4 C 74 % 1012,5 hPa 0,0 l/m 18,9 km/h (3 Bft) NO 39 0 min 0,000 mm 0,0 UV-I 102 W/m -3,0 C -7,7 C 24,1 km/h (4 Bft) 95,12 %
06.02.2018 15:24 1,1 C 4,4 C 74 % 1012,6 hPa 0,0 l/m 18,9 km/h (3 Bft) O-NO 64 0 min 0,000 mm 0,0 UV-I 96 W/m -3,0 C -7,7 C 24,1 km/h (4 Bft) 96,43 %
06.02.2018 15:26 1,0 C 4,4 C 75 % 1012,5 hPa 0,0 l/m 13,3 km/h (3 Bft) O 86 0 min 0,000 mm 0,0 UV-I 93 W/m -2,9 C -4,7 C 19,3 km/h (3 Bft) 98,00 %
06.02.2018 15:28 1,0 C 4,4 C 75 % 1012,6 hPa 0,0 l/m 15,9 km/h (3 Bft) O 92 0 min 0,000 mm 0,0 UV-I 91 W/m -2,9 C -6,3 C 22,5 km/h (4 Bft) 97,37 %
06.02.2018 15:30 1,0 C 4,4 C 75 % 1012,6 hPa 0,0 l/m 13,1 km/h (3 Bft) O-NO 66 0 min 0,000 mm 0,0 UV-I 88 W/m -2,9 C -4,6 C 19,3 km/h (3 Bft) 98,21 %
06.02.2018 15:32 1,0 C 4,4 C 75 % 1012,6 hPa 0,0 l/m 16,0 km/h (3 Bft) O-NO 65 0 min 0,000 mm 0,0 UV-I 86 W/m -2,9 C -6,3 C 20,9 km/h (4 Bft) 96,30 %
06.02.2018 15:34 1,0 C 4,4 C 75 % 1012,6 hPa 0,0 l/m 15,8 km/h (3 Bft) O-NO 58 0 min 0,000 mm 0,0 UV-I 84 W/m -2,9 C -6,2 C 22,5 km/h (4 Bft) 94,29 %
06.02.2018 15:36 0,9 C 4,4 C 74 % 1012,6 hPa 0,0 l/m 18,2 km/h (3 Bft) O-NO 76 0 min 0,000 mm 0,0 UV-I 83 W/m -3,2 C -7,6 C 24,1 km/h (4 Bft) 88,64 %
06.02.2018 15:38 0,9 C 4,4 C 75 % 1012,6 hPa 0,0 l/m 14,5 km/h (3 Bft) O-NO 59 0 min 0,000 mm 0,0 UV-I 81 W/m -3,0 C -5,6 C 20,9 km/h (4 Bft) 97,56 %
06.02.2018 15:40 0,9 C 4,4 C 75 % 1012,6 hPa 0,0 l/m 14,8 km/h (3 Bft) O 82 0 min 0,000 mm 0,0 UV-I 79 W/m -3,0 C -5,8 C 20,9 km/h (4 Bft) 96,23 %
06.02.2018 15:42 0,9 C 4,4 C 75 % 1012,6 hPa 0,0 l/m 14,8 km/h (3 Bft) O 80 0 min 0,000 mm 0,0 UV-I 79 W/m -3,0 C -5,8 C 22,5 km/h (4 Bft) 97,87 %
06.02.2018 15:44 0,9 C 4,4 C 75 % 1012,6 hPa 0,0 l/m 13,4 km/h (3 Bft) O-NO 66 0 min 0,000 mm 0,0 UV-I 80 W/m -3,0 C -4,9 C 17,7 km/h (3 Bft) 97,44 %
06.02.2018 15:46 0,9 C 4,4 C 75 % 1012,6 hPa 0,0 l/m 12,6 km/h (3 Bft) O-NO 65 0 min 0,000 mm 0,0 UV-I 84 W/m -3,0 C -4,4 C 17,7 km/h (3 Bft) 98,11 %
06.02.2018 15:48 0,9 C 4,4 C 75 % 1012,6 hPa 0,0 l/m 14,2 km/h (3 Bft) O-NO 70 0 min 0,000 mm 0,0 UV-I 86 W/m -3,0 C -5,4 C 19,3 km/h (3 Bft) 98,11 %
06.02.2018 15:50 0,9 C 4,4 C 75 % 1012,6 hPa 0,0 l/m 15,1 km/h (3 Bft) NO 49 0 min 0,000 mm 0,0 UV-I 86 W/m -3,0 C -5,9 C 22,5 km/h (4 Bft) 97,37 %
06.02.2018 15:52 0,9 C 4,4 C 75 % 1012,5 hPa 0,0 l/m 13,2 km/h (3 Bft) O-NO 57 0 min 0,000 mm 0,0 UV-I 86 W/m -3,0 C -4,8 C 24,1 km/h (4 Bft) 96,00 %
06.02.2018 15:54 0,9 C 4,4 C 75 % 1012,5 hPa 0,0 l/m 17,3 km/h (3 Bft) O-NO 62 0 min 0,000 mm 0,0 UV-I 85 W/m -3,0 C -7,2 C 22,5 km/h (4 Bft) 95,12 %
06.02.2018 15:56 0,9 C 4,4 C 75 % 1012,5 hPa 0,0 l/m 13,0 km/h (3 Bft) NO 55 0 min 0,000 mm 0,0 UV-I 86 W/m -3,0 C -4,6 C 17,7 km/h (3 Bft) 98,11 %
06.02.2018 15:58 0,9 C 4,4 C 76 % 1012,4 hPa 0,0 l/m 16,3 km/h (3 Bft) NO 42 0 min 0,000 mm 0,0 UV-I 86 W/m -2,8 C -6,6 C 20,9 km/h (4 Bft) 97,73 %
06.02.2018 16:00 0,8 C 4,4 C 76 % 1012,4 hPa 0,0 l/m 14,4 km/h (3 Bft) NO 56 0 min 0,076 mm 0,0 UV-I 86 W/m -2,9 C -5,7 C 19,3 km/h (3 Bft) 95,12 %
06.02.2018 16:02 0,8 C 4,4 C 76 % 1012,5 hPa 0,0 l/m 16,8 km/h (3 Bft) O-NO 74 0 min 0,000 mm 0,0 UV-I 85 W/m -2,9 C -7,0 C 22,5 km/h (4 Bft) 100,00 %
06.02.2018 16:04 0,8 C 4,4 C 75 % 1012,4 hPa 0,0 l/m 21,9 km/h (4 Bft) O-NO 73 0 min 0,000 mm 0,0 UV-I 82 W/m -3,1 C -9,4 C 29,0 km/h (5 Bft) 96,00 %
06.02.2018 16:06 0,8 C 4,4 C 76 % 1012,4 hPa 0,0 l/m 19,2 km/h (3 Bft) O-NO 72 0 min 0,000 mm 0,0 UV-I 81 W/m -2,9 C -8,2 C 27,4 km/h (4 Bft) 95,74 %
06.02.2018 16:08 0,8 C 4,4 C 76 % 1012,3 hPa 0,0 l/m 22,7 km/h (4 Bft) NO 55 2 min 0,000 mm 0,0 UV-I 83 W/m -2,9 C -9,8 C 29,0 km/h (5 Bft) 100,00 %
06.02.2018 16:10 0,7 C 4,4 C 76 % 1012,3 hPa 0,0 l/m 20,1 km/h (4 Bft) O-NO 69 2 min 0,000 mm 0,0 UV-I 85 W/m -3,0 C -8,8 C 29,0 km/h (5 Bft) 100,00 %
06.02.2018 16:12 0,7 C 4,4 C 76 % 1012,3 hPa 0,0 l/m 22,7 km/h (4 Bft) O-NO 67 2 min 0,000 mm 0,0 UV-I 85 W/m -3,0 C -9,9 C 30,6 km/h (5 Bft) 97,56 %
06.02.2018 16:14 0,7 C 4,4 C 76 % 1012,3 hPa 0,0 l/m 20,6 km/h (4 Bft) O 83 2 min 0,000 mm 0,0 UV-I 89 W/m -3,0 C -9,0 C 30,6 km/h (5 Bft) 98,11 %
06.02.2018 16:16 0,7 C 4,4 C 76 % 1012,3 hPa 0,0 l/m 20,2 km/h (4 Bft) O-NO 58 2 min 0,000 mm 0,0 UV-I 83 W/m -3,0 C -8,8 C 29,0 km/h (5 Bft) 97,37 %
06.02.2018 16:18 0,7 C 4,4 C 76 % 1012,3 hPa 0,0 l/m 17,7 km/h (3 Bft) O-NO 70 2 min 0,000 mm 0,0 UV-I 90 W/m -3,0 C -7,6 C 24,1 km/h (4 Bft) 98,00 %
06.02.2018 16:20 0,7 C 4,4 C 76 % 1012,3 hPa 0,0 l/m 16,2 km/h (3 Bft) NO 37 2 min 0,000 mm 0,0 UV-I 74 W/m -3,0 C -6,8 C 22,5 km/h (4 Bft) 94,87 %
06.02.2018 16:22 0,7 C 4,4 C 77 % 1012,3 hPa 0,0 l/m 17,3 km/h (3 Bft) O-NO 64 2 min 0,000 mm 0,0 UV-I 73 W/m -2,9 C -7,4 C 24,1 km/h (4 Bft) 98,18 %
06.02.2018 16:24 0,7 C 4,4 C 77 % 1012,3 hPa 0,0 l/m 19,0 km/h (3 Bft) O-NO 69 2 min 0,000 mm 0,0 UV-I 80 W/m -2,9 C -8,3 C 25,7 km/h (4 Bft) 97,62 %
06.02.2018 16:26 0,7 C 4,4 C 76 % 1012,2 hPa 0,0 l/m 23,8 km/h (4 Bft) O-NO 65 2 min 0,000 mm 0,0 UV-I 83 W/m -3,0 C -10,3 C 32,2 km/h (5 Bft) 96,23 %
06.02.2018 16:28 0,6 C 4,4 C 77 % 1012,2 hPa 0,0 l/m 18,4 km/h (3 Bft) NO 51 2 min 0,000 mm 0,0 UV-I 82 W/m -3,0 C -8,1 C 27,4 km/h (4 Bft) 97,56 %
06.02.2018 16:30 0,6 C 4,4 C 77 % 1012,2 hPa 0,0 l/m 21,4 km/h (4 Bft) NO 54 2 min 0,000 mm 0,0 UV-I 70 W/m -3,0 C -9,5 C 29,0 km/h (5 Bft) 97,73 %
06.02.2018 16:32 0,6 C 4,4 C 77 % 1012,2 hPa 0,0 l/m 18,2 km/h (3 Bft) O-NO 60 2 min 0,000 mm 0,0 UV-I 60 W/m -3,0 C -8,0 C 25,7 km/h (4 Bft) 100,00 %
06.02.2018 16:34 0,6 C 4,4 C 77 % 1012,2 hPa 0,0 l/m 20,3 km/h (4 Bft) O 86 2 min 0,000 mm 0,0 UV-I 56 W/m -3,0 C -9,0 C 27,4 km/h (4 Bft) 92,11 %
06.02.2018 16:36 0,5 C 4,4 C 77 % 1012,2 hPa 0,0 l/m 21,1 km/h (4 Bft) O-NO 68 2 min 0,000 mm 0,0 UV-I 63 W/m -3,1 C -9,5 C 29,0 km/h (5 Bft) 98,31 %
06.02.2018 16:38 0,5 C 4,4 C 77 % 1012,2 hPa 0,0 l/m 22,7 km/h (4 Bft) NO 36 2 min 0,000 mm 0,0 UV-I 59 W/m -3,1 C -10,2 C 30,6 km/h (5 Bft) 95,65 %
06.02.2018 16:40 0,5 C 4,4 C 77 % 1012,2 hPa 0,0 l/m 23,7 km/h (4 Bft) O-NO 74 2 min 0,000 mm 0,0 UV-I 54 W/m -3,1 C -10,5 C 29,0 km/h (5 Bft) 97,06 %
06.02.2018 16:42 0,4 C 4,4 C 77 % 1012,3 hPa 0,0 l/m 22,3 km/h (4 Bft) NO 52 2 min 0,000 mm 0,0 UV-I 52 W/m -3,1 C -10,1 C 30,6 km/h (5 Bft) 96,00 %
06.02.2018 16:44 0,4 C 4,4 C 77 % 1012,2 hPa 0,0 l/m 21,4 km/h (4 Bft) O-NO 71 2 min 0,000 mm 0,0 UV-I 49 W/m -3,1 C -9,7 C 30,6 km/h (5 Bft) 95,45 %
06.02.2018 16:46 0,4 C 4,4 C 77 % 1012,2 hPa 0,0 l/m 22,0 km/h (4 Bft) O-NO 68 2 min 0,000 mm 0,0 UV-I 46 W/m -3,1 C -10,0 C 30,6 km/h (5 Bft) 98,00 %
06.02.2018 16:48 0,4 C 4,4 C 77 % 1012,3 hPa 0,0 l/m 19,2 km/h (3 Bft) O-NO 66 2 min 0,000 mm 0,0 UV-I 41 W/m -3,1 C -8,7 C 25,7 km/h (4 Bft) 97,37 %
06.02.2018 16:50 0,3 C 4,4 C 78 % 1012,3 hPa 0,0 l/m 17,8 km/h (3 Bft) NO 55 2 min 0,000 mm 0,0 UV-I 35 W/m -3,1 C -8,2 C 25,7 km/h (4 Bft) 97,87 %
06.02.2018 16:52 0,3 C 4,4 C 78 % 1012,2 hPa 0,0 l/m 19,8 km/h (3 Bft) O-NO 67 2 min 0,000 mm 0,0 UV-I 31 W/m -3,1 C -9,2 C 29,0 km/h (5 Bft) 97,87 %
06.02.2018 16:54 0,3 C 4,4 C 78 % 1012,2 hPa 0,0 l/m 21,6 km/h (4 Bft) O-NO 76 2 min 0,000 mm 0,0 UV-I 29 W/m -3,1 C -10,0 C 29,0 km/h (5 Bft) 98,00 %
06.02.2018 16:56 0,3 C 4,4 C 78 % 1012,2 hPa 0,0 l/m 20,7 km/h (4 Bft) O 85 2 min 0,000 mm 0,0 UV-I 26 W/m -3,1 C -9,6 C 25,7 km/h (4 Bft) 97,56 %
06.02.2018 16:58 0,3 C 4,4 C 78 % 1012,1 hPa 0,0 l/m 22,4 km/h (4 Bft) NO 54 2 min 0,000 mm 0,0 UV-I 22 W/m -3,1 C -10,3 C 30,6 km/h (5 Bft) 100,00 %
06.02.2018 17:00 0,2 C 4,4 C 78 % 1012,1 hPa 0,0 l/m 21,0 km/h (4 Bft) NO 53 2 min 0,051 mm 0,0 UV-I 18 W/m -3,2 C -9,8 C 27,4 km/h (4 Bft) 100,00 %
06.02.2018 17:02 0,2 C 4,4 C 79 % 1012,1 hPa 0,0 l/m 18,8 km/h (3 Bft) NO 37 0 min 0,000 mm 0,0 UV-I 14 W/m -3,0 C -8,8 C 24,1 km/h (4 Bft) 100,00 %
06.02.2018 17:04 0,2 C 4,4 C 79 % 1012,2 hPa 0,0 l/m 22,2 km/h (4 Bft) O-NO 78 0 min 0,000 mm 0,0 UV-I 12 W/m -3,0 C -10,3 C 33,8 km/h (5 Bft) 100,00 %
06.02.2018 17:06 0,2 C 4,4 C 79 % 1012,1 hPa 0,0 l/m 22,9 km/h (4 Bft) NO 51 0 min 0,000 mm 0,0 UV-I 11 W/m -3,0 C -10,6 C 32,2 km/h (5 Bft) 100,00 %
06.02.2018 17:08 0,1 C 4,4 C 79 % 1012,2 hPa 0,0 l/m 23,1 km/h (4 Bft) O-NO 69 0 min 0,000 mm 0,0 UV-I 10 W/m -3,1 C -10,8 C 32,2 km/h (5 Bft) 96,15 %
06.02.2018 17:10 0,1 C 4,4 C 79 % 1012,2 hPa 0,0 l/m 20,7 km/h (4 Bft) O-NO 61 0 min 0,000 mm 0,0 UV-I 9 W/m -3,1 C -9,8 C 32,2 km/h (5 Bft) 98,59 %
06.02.2018 17:12 0,1 C 4,4 C 79 % 1012,1 hPa 0,0 l/m 22,3 km/h (4 Bft) NO 53 0 min 0,000 mm 0,0 UV-I 7 W/m -3,1 C -10,5 C 30,6 km/h (5 Bft) 100,00 %
06.02.2018 17:14 0,1 C 4,4 C 80 % 1012,2 hPa 0,0 l/m 17,6 km/h (3 Bft) O-NO 67 0 min 0,000 mm 0,0 UV-I 7 W/m -2,9 C -8,3 C 24,1 km/h (4 Bft) 97,37 %
06.02.2018 17:16 0,0 C 4,4 C 80 % 1012,1 hPa 0,0 l/m 16,8 km/h (3 Bft) NO 53 0 min 0,000 mm 0,0 UV-I 7 W/m -3,0 C -8,0 C 24,1 km/h (4 Bft) 100,00 %
06.02.2018 17:18 0,0 C 4,4 C 80 % 1012,2 hPa 0,0 l/m 19,2 km/h (3 Bft) O-NO 72 0 min 0,000 mm 0,0 UV-I 5 W/m -3,0 C -9,3 C 25,7 km/h (4 Bft) 94,74 %
06.02.2018 17:20 -0,1 C 4,4 C 80 % 1012,2 hPa 0,0 l/m 24,6 km/h (4 Bft) O-NO 70 0 min 0,000 mm 0,0 UV-I 5 W/m -3,1 C -11,7 C 30,6 km/h (5 Bft) 100,00 %
06.02.2018 17:22 -0,1 C 4,4 C 80 % 1012,2 hPa 0,0 l/m 25,9 km/h (4 Bft) O 80 0 min 0,000 mm 0,0 UV-I 5 W/m -3,1 C -12,2 C 33,8 km/h (5 Bft) 100,00 %
06.02.2018 17:24 -0,1 C 4,4 C 80 % 1012,1 hPa 0,0 l/m 26,7 km/h (4 Bft) O-NO 74 0 min 0,000 mm 0,0 UV-I 5 W/m -3,1 C -12,5 C 32,2 km/h (5 Bft) 100,00 %
06.02.2018 17:26 -0,1 C 4,4 C 80 % 1012,2 hPa 0,0 l/m 26,2 km/h (4 Bft) NO 52 0 min 0,000 mm 0,0 UV-I 1 W/m -3,1 C -12,3 C 33,8 km/h (5 Bft) 95,12 %
06.02.2018 17:28 -0,1 C 4,4 C 80 % 1012,2 hPa 0,0 l/m 22,6 km/h (4 Bft) NO 55 0 min 0,000 mm 0,0 UV-I 0 W/m -3,1 C -10,9 C 30,6 km/h (5 Bft) 98,04 %
06.02.2018 17:30 -0,2 C 4,4 C 81 % 1012,2 hPa 0,0 l/m 18,2 km/h (3 Bft) O-NO 62 0 min 0,000 mm 0,0 UV-I 0 W/m -3,1 C -9,0 C 25,7 km/h (4 Bft) 100,00 %
06.02.2018 17:32 -0,2 C 4,4 C 81 % 1012,2 hPa 0,0 l/m 21,6 km/h (4 Bft) O 88 0 min 0,000 mm 0,0 UV-I 0 W/m -3,1 C -10,6 C 30,6 km/h (5 Bft) 100,00 %
06.02.2018 17:34 -0,2 C 4,4 C 81 % 1012,1 hPa 0,0 l/m 21,7 km/h (4 Bft) O-NO 69 0 min 0,000 mm 0,0 UV-I 0 W/m -3,1 C -10,7 C 29,0 km/h (5 Bft) 100,00 %
06.02.2018 17:36 -0,3 C 4,4 C 81 % 1012,2 hPa 0,0 l/m 23,0 km/h (4 Bft) O-NO 71 0 min 0,000 mm 0,0 UV-I 0 W/m -3,2 C -11,3 C 35,4 km/h (5 Bft) 98,18 %
06.02.2018 17:38 -0,3 C 4,4 C 81 % 1012,2 hPa 0,0 l/m 23,0 km/h (4 Bft) O-NO 74 0 min 0,000 mm 0,0 UV-I 0 W/m -3,2 C -11,3 C 32,2 km/h (5 Bft) 100,00 %
06.02.2018 17:40 -0,3 C 4,4 C 81 % 1012,1 hPa 0,0 l/m 22,8 km/h (4 Bft) NO 46 0 min 0,000 mm 0,0 UV-I 0 W/m -3,2 C -11,3 C 32,2 km/h (5 Bft) 100,00 %
06.02.2018 17:42 -0,3 C 4,4 C 81 % 1012,1 hPa 0,0 l/m 25,1 km/h (4 Bft) O-NO 67 0 min 0,000 mm 0,0 UV-I 0 W/m -3,2 C -12,2 C 35,4 km/h (5 Bft) 100,00 %
06.02.2018 17:44 -0,3 C 4,4 C 81 % 1012,2 hPa 0,0 l/m 23,8 km/h (4 Bft) O 79 0 min 0,000 mm 0,0 UV-I 0 W/m -3,2 C -11,7 C 32,2 km/h (5 Bft) 97,87 %
06.02.2018 17:46 -0,4 C 4,4 C 81 % 1012,1 hPa 0,0 l/m 25,0 km/h (4 Bft) O-NO 63 0 min 0,000 mm 0,0 UV-I 0 W/m -3,3 C -12,3 C 37,0 km/h (5 Bft) 100,00 %
06.02.2018 17:48 -0,4 C 4,4 C 82 % 1012,1 hPa 0,0 l/m 19,4 km/h (3 Bft) O-NO 70 0 min 0,000 mm 0,0 UV-I 0 W/m -3,1 C -9,9 C 27,4 km/h (4 Bft) 97,37 %
06.02.2018 17:50 -0,4 C 4,4 C 82 % 1012,0 hPa 0,0 l/m 26,5 km/h (4 Bft) O-NO 62 0 min 0,000 mm 0,0 UV-I 0 W/m -3,1 C -12,8 C 37,0 km/h (5 Bft) 100,00 %
06.02.2018 17:52 -0,4 C 4,4 C 82 % 1012,1 hPa 0,0 l/m 27,4 km/h (4 Bft) O-NO 64 0 min 0,000 mm 0,0 UV-I 0 W/m -3,1 C -13,1 C 38,6 km/h (5 Bft) 100,00 %
06.02.2018 17:54 -0,4 C 4,4 C 82 % 1012,1 hPa 0,0 l/m 29,2 km/h (5 Bft) O 82 0 min 0,000 mm 0,0 UV-I 0 W/m -3,1 C -13,7 C 40,2 km/h (6 Bft) 100,00 %
06.02.2018 17:56 -0,4 C 4,4 C 82 % 1012,1 hPa 0,0 l/m 27,1 km/h (4 Bft) O-NO 75 0 min 0,000 mm 0,0 UV-I 0 W/m -3,1 C -13,0 C 35,4 km/h (5 Bft) 100,00 %
06.02.2018 17:58 -0,4 C 4,4 C 82 % 1012,2 hPa 0,0 l/m 24,8 km/h (4 Bft) NO 44 0 min 0,000 mm 0,0 UV-I 0 W/m -3,1 C -12,2 C 32,2 km/h (5 Bft) 100,00 %
06.02.2018 18:00 -0,4 C 4,4 C 82 % 1012,2 hPa 0,0 l/m 26,1 km/h (4 Bft) O-NO 61 0 min 0,025 mm 0,0 UV-I 0 W/m -3,1 C -12,7 C 33,8 km/h (5 Bft) 97,96 %
06.02.2018 18:02 -0,5 C 4,4 C 82 % 1012,2 hPa 0,0 l/m 28,5 km/h (4 Bft) O-NO 76 0 min 0,000 mm 0,0 UV-I 0 W/m -3,2 C -13,6 C 37,0 km/h (5 Bft) 100,00 %
06.02.2018 18:04 -0,5 C 4,4 C 82 % 1012,2 hPa 0,0 l/m 25,7 km/h (4 Bft) O-NO 57 0 min 0,000 mm 0,0 UV-I 0 W/m -3,2 C -12,7 C 35,4 km/h (5 Bft) 97,56 %
06.02.2018 18:06 -0,6 C 4,4 C 83 % 1012,3 hPa 0,0 l/m 22,5 km/h (4 Bft) O-NO 76 0 min 0,000 mm 0,0 UV-I 0 W/m -3,1 C -11,5 C 30,6 km/h (5 Bft) 100,00 %
06.02.2018 18:08 -0,6 C 4,4 C 83 % 1012,2 hPa 0,0 l/m 23,0 km/h (4 Bft) NO 44 0 min 0,000 mm 0,0 UV-I 0 W/m -3,1 C -11,7 C 29,0 km/h (5 Bft) 100,00 %
06.02.2018 18:10 -0,6 C 4,4 C 83 % 1012,3 hPa 0,0 l/m 23,4 km/h (4 Bft) O-NO 74 0 min 0,000 mm 0,0 UV-I 0 W/m -3,1 C -11,9 C 30,6 km/h (5 Bft) 100,00 %
06.02.2018 18:12 -0,6 C 4,4 C 83 % 1012,3 hPa 0,0 l/m 19,5 km/h (3 Bft) O-NO 62 0 min 0,000 mm 0,0 UV-I 0 W/m -3,1 C -10,2 C 32,2 km/h (5 Bft) 98,21 %
06.02.2018 18:14 -0,6 C 4,4 C 83 % 1012,3 hPa 0,0 l/m 20,1 km/h (4 Bft) O-NO 71 0 min 0,000 mm 0,0 UV-I 0 W/m -3,1 C -10,5 C 29,0 km/h (5 Bft) 100,00 %
06.02.2018 18:16 -0,6 C 4,4 C 83 % 1012,3 hPa 0,0 l/m 21,3 km/h (4 Bft) O-NO 64 0 min 0,000 mm 0,0 UV-I 0 W/m -3,1 C -11,0 C 27,4 km/h (4 Bft) 100,00 %
06.02.2018 18:18 -0,7 C 4,4 C 84 % 1012,3 hPa 0,0 l/m 19,5 km/h (3 Bft) O-NO 60 0 min 0,000 mm 0,0 UV-I 0 W/m -3,1 C -10,3 C 25,7 km/h (4 Bft) 97,87 %
06.02.2018 18:20 -0,7 C 4,4 C 84 % 1012,4 hPa 0,0 l/m 20,9 km/h (4 Bft) O-NO 69 0 min 0,000 mm 0,0 UV-I 0 W/m -3,1 C -11,0 C 27,4 km/h (4 Bft) 96,36 %
06.02.2018 18:22 -0,7 C 4,4 C 84 % 1012,4 hPa 0,0 l/m 17,3 km/h (3 Bft) O-NO 78 0 min 0,000 mm 0,0 UV-I 0 W/m -3,1 C -9,2 C 24,1 km/h (4 Bft) 100,00 %
06.02.2018 18:24 -0,7 C 4,4 C 84 % 1012,5 hPa 0,0 l/m 15,8 km/h (3 Bft) NO 52 0 min 0,000 mm 0,0 UV-I 0 W/m -3,1 C -8,3 C 27,4 km/h (4 Bft) 94,00 %
06.02.2018 18:26 -0,7 C 4,4 C 84 % 1012,5 hPa 0,0 l/m 21,2 km/h (4 Bft) O-NO 77 0 min 0,000 mm 0,0 UV-I 0 W/m -3,1 C -11,1 C 25,7 km/h (4 Bft) 92,00 %
06.02.2018 18:28 -0,7 C 4,4 C 84 % 1012,4 hPa 0,0 l/m 19,3 km/h (3 Bft) O-NO 67 0 min 0,000 mm 0,0 UV-I 0 W/m -3,1 C -10,2 C 27,4 km/h (4 Bft) 97,87 %
06.02.2018 18:30 -0,7 C 4,4 C 84 % 1012,5 hPa 0,0 l/m 16,5 km/h (3 Bft) O 86 0 min 0,000 mm 0,0 UV-I 0 W/m -3,1 C -8,7 C 22,5 km/h (4 Bft) 97,14 %
06.02.2018 18:32 -0,7 C 4,4 C 84 % 1012,5 hPa 0,0 l/m 22,3 km/h (4 Bft) NO 50 0 min 0,000 mm 0,0 UV-I 0 W/m -3,1 C -11,6 C 30,6 km/h (5 Bft) 96,43 %
06.02.2018 18:34 -0,8 C 4,4 C 85 % 1012,5 hPa 0,0 l/m 20,8 km/h (4 Bft) O 101 0 min 0,000 mm 0,0 UV-I 0 W/m -3,0 C -11,0 C 27,4 km/h (4 Bft) 95,12 %
06.02.2018 18:36 -0,8 C 4,4 C 85 % 1012,5 hPa 0,0 l/m 21,3 km/h (4 Bft) O-NO 57 0 min 0,000 mm 0,0 UV-I 0 W/m -3,0 C -11,3 C 29,0 km/h (5 Bft) 95,12 %
06.02.2018 18:38 -0,8 C 4,4 C 85 % 1012,6 hPa 0,0 l/m 21,7 km/h (4 Bft) O-NO 69 0 min 0,000 mm 0,0 UV-I 0 W/m -3,0 C -11,4 C 29,0 km/h (5 Bft) 97,73 %
06.02.2018 18:40 -0,8 C 4,4 C 85 % 1012,5 hPa 0,0 l/m 23,9 km/h (4 Bft) O 89 0 min 0,000 mm 0,0 UV-I 0 W/m -3,0 C -12,4 C 33,8 km/h (5 Bft) 97,73 %
06.02.2018 18:42 -0,8 C 4,4 C 85 % 1012,5 hPa 0,0 l/m 21,0 km/h (4 Bft) NO 46 0 min 0,000 mm 0,0 UV-I 0 W/m -3,0 C -11,1 C 27,4 km/h (4 Bft) 98,46 %
06.02.2018 18:44 -0,8 C 4,4 C 85 % 1012,5 hPa 0,0 l/m 20,2 km/h (4 Bft) NO 55 0 min 0,000 mm 0,0 UV-I 0 W/m -3,0 C -10,8 C 32,2 km/h (5 Bft) 97,56 %
06.02.2018 18:46 -0,8 C 4,4 C 85 % 1012,5 hPa 0,0 l/m 18,9 km/h (3 Bft) O-NO 65 0 min 0,000 mm 0,0 UV-I 0 W/m -3,0 C -10,1 C 27,4 km/h (4 Bft) 96,00 %
06.02.2018 18:48 -0,8 C 4,4 C 85 % 1012,6 hPa 0,0 l/m 21,2 km/h (4 Bft) O 81 0 min 0,000 mm 0,0 UV-I 0 W/m -3,0 C -11,2 C 30,6 km/h (5 Bft) 98,00 %
06.02.2018 18:50 -0,8 C 4,4 C 85 % 1012,5 hPa 0,0 l/m 22,4 km/h (4 Bft) O-NO 57 0 min 0,000 mm 0,0 UV-I 0 W/m -3,0 C -11,8 C 30,6 km/h (5 Bft) 97,73 %
06.02.2018 18:52 -0,8 C 4,4 C 85 % 1012,4 hPa 0,0 l/m 24,7 km/h (4 Bft) O-NO 67 0 min 0,000 mm 0,0 UV-I 0 W/m -3,0 C -12,7 C 35,4 km/h (5 Bft) 97,62 %
06.02.2018 18:54 -0,8 C 4,4 C 85 % 1012,4 hPa 0,0 l/m 18,6 km/h (3 Bft) O-NO 60 0 min 0,000 mm 0,0 UV-I 0 W/m -3,0 C -10,0 C 24,1 km/h (4 Bft) 98,11 %
06.02.2018 18:56 -0,8 C 4,4 C 85 % 1012,4 hPa 0,0 l/m 24,2 km/h (4 Bft) NO 53 0 min 0,000 mm 0,0 UV-I 0 W/m -3,0 C -12,5 C 33,8 km/h (5 Bft) 97,96 %
06.02.2018 18:58 -0,8 C 4,4 C 85 % 1012,4 hPa 0,0 l/m 21,6 km/h (4 Bft) O-NO 68 0 min 0,000 mm 0,0 UV-I 0 W/m -3,0 C -11,4 C 29,0 km/h (5 Bft) 100,00 %
06.02.2018 19:00 -0,9 C 4,4 C 86 % 1012,4 hPa 0,0 l/m 20,0 km/h (4 Bft) O-NO 63 0 min 0,026 mm 0,0 UV-I 0 W/m -2,9 C -10,8 C 27,4 km/h (4 Bft) 98,53 %
06.02.2018 19:02 -0,9 C 4,4 C 86 % 1012,4 hPa 0,0 l/m 23,4 km/h (4 Bft) O-NO 63 0 min 0,000 mm 0,0 UV-I 0 W/m -2,9 C -12,3 C 32,2 km/h (5 Bft) 97,56 %
06.02.2018 19:04 -0,9 C 4,4 C 86 % 1012,5 hPa 0,0 l/m 22,6 km/h (4 Bft) O-NO 60 0 min 0,000 mm 0,0 UV-I 0 W/m -2,9 C -12,0 C 30,6 km/h (5 Bft) 95,45 %
06.02.2018 19:06 -0,9 C 4,4 C 86 % 1012,5 hPa 0,0 l/m 20,8 km/h (4 Bft) O-NO 73 0 min 0,000 mm 0,0 UV-I 0 W/m -2,9 C -11,2 C 27,4 km/h (4 Bft) 95,45 %
06.02.2018 19:08 -0,9 C 4,4 C 86 % 1012,5 hPa 0,0 l/m 21,3 km/h (4 Bft) O-NO 60 0 min 0,000 mm 0,0 UV-I 0 W/m -2,9 C -11,4 C 37,0 km/h (5 Bft) 94,64 %
06.02.2018 19:10 -0,9 C 4,4 C 86 % 1012,5 hPa 0,0 l/m 20,2 km/h (4 Bft) NO 51 0 min 0,000 mm 0,0 UV-I 0 W/m -2,9 C -10,9 C 27,4 km/h (4 Bft) 97,56 %
06.02.2018 19:12 -0,9 C 4,4 C 86 % 1012,4 hPa 0,0 l/m 18,7 km/h (3 Bft) NO 56 0 min 0,000 mm 0,0 UV-I 0 W/m -2,9 C -10,2 C 29,0 km/h (5 Bft) 97,87 %
06.02.2018 19:14 -1,0 C 4,4 C 87 % 1012,4 hPa 0,0 l/m 19,9 km/h (4 Bft) O-NO 57 0 min 0,000 mm 0,0 UV-I 0 W/m -2,9 C -10,9 C 27,4 km/h (4 Bft) 96,43 %
06.02.2018 19:16 -1,0 C 4,4 C 87 % 1012,5 hPa 0,0 l/m 21,5 km/h (4 Bft) O-NO 68 0 min 0,000 mm 0,0 UV-I 0 W/m -2,9 C -11,6 C 30,6 km/h (5 Bft) 95,45 %
06.02.2018 19:18 -1,0 C 4,4 C 87 % 1012,4 hPa 0,0 l/m 18,7 km/h (3 Bft) O-NO 69 0 min 0,000 mm 0,0 UV-I 0 W/m -2,9 C -10,3 C 27,4 km/h (4 Bft) 92,68 %
06.02.2018 19:20 -1,0 C 4,4 C 87 % 1012,4 hPa 0,0 l/m 21,0 km/h (4 Bft) O-NO 67 0 min 0,000 mm 0,0 UV-I 0 W/m -2,9 C -11,4 C 33,8 km/h (5 Bft) 98,11 %
06.02.2018 19:22 -1,0 C 4,4 C 87 % 1012,3 hPa 0,0 l/m 23,8 km/h (4 Bft) O-NO 64 0 min 0,000 mm 0,0 UV-I 0 W/m -2,9 C -12,6 C 30,6 km/h (5 Bft) 95,45 %
06.02.2018 19:24 -1,0 C 4,4 C 87 % 1012,4 hPa 0,0 l/m 23,8 km/h (4 Bft) O-NO 67 0 min 0,000 mm 0,0 UV-I 0 W/m -2,9 C -12,6 C 30,6 km/h (5 Bft) 98,11 %
06.02.2018 19:26 -1,1 C 4,4 C 87 % 1012,4 hPa 0,0 l/m 22,5 km/h (4 Bft) O-NO 71 0 min 0,000 mm 0,0 UV-I 0 W/m -3,0 C -12,2 C 30,6 km/h (5 Bft) 97,87 %
06.02.2018 19:28 -1,1 C 4,4 C 87 % 1012,4 hPa 0,0 l/m 21,4 km/h (4 Bft) O-NO 67 0 min 0,000 mm 0,0 UV-I 0 W/m -3,0 C -11,7 C 29,0 km/h (5 Bft) 97,56 %
06.02.2018 19:30 -1,1 C 4,4 C 87 % 1012,3 hPa 0,0 l/m 25,8 km/h (4 Bft) O-NO 67 0 min 0,000 mm 0,0 UV-I 0 W/m -3,0 C -13,5 C 35,4 km/h (5 Bft) 97,44 %
06.02.2018 19:32 -1,1 C 4,4 C 87 % 1012,3 hPa 0,0 l/m 19,0 km/h (3 Bft) NO 53 0 min 0,000 mm 0,0 UV-I 0 W/m -3,0 C -10,6 C 25,7 km/h (4 Bft) 96,23 %
06.02.2018 19:34 -1,1 C 4,4 C 87 % 1012,3 hPa 0,0 l/m 17,7 km/h (3 Bft) O 84 0 min 0,000 mm 0,0 UV-I 0 W/m -3,0 C -9,9 C 24,1 km/h (4 Bft) 94,23 %
06.02.2018 19:36 -1,1 C 4,4 C 87 % 1012,4 hPa 0,0 l/m 19,1 km/h (3 Bft) O-NO 57 0 min 0,000 mm 0,0 UV-I 0 W/m -3,0 C -10,6 C 27,4 km/h (4 Bft) 100,00 %
06.02.2018 19:38 -1,1 C 4,4 C 87 % 1012,3 hPa 0,0 l/m 19,4 km/h (3 Bft) NO 55 0 min 0,000 mm 0,0 UV-I 0 W/m -3,0 C -10,8 C 27,4 km/h (4 Bft) 93,62 %
06.02.2018 19:40 -1,2 C 4,4 C 87 % 1012,4 hPa 0,0 l/m 19,4 km/h (3 Bft) NO 49 0 min 0,000 mm 0,0 UV-I 0 W/m -3,1 C -10,9 C 25,7 km/h (4 Bft) 98,21 %
06.02.2018 19:42 -1,2 C 4,4 C 87 % 1012,4 hPa 0,0 l/m 22,8 km/h (4 Bft) O-NO 70 0 min 0,000 mm 0,0 UV-I 0 W/m -3,1 C -12,5 C 33,8 km/h (5 Bft) 97,14 %
06.02.2018 19:44 -1,2 C 4,4 C 87 % 1012,4 hPa 0,0 l/m 22,1 km/h (4 Bft) O-NO 69 0 min 0,000 mm 0,0 UV-I 0 W/m -3,1 C -12,1 C 33,8 km/h (5 Bft) 96,43 %
06.02.2018 19:46 -1,2 C 4,4 C 87 % 1012,3 hPa 0,0 l/m 22,1 km/h (4 Bft) NO 44 0 min 0,000 mm 0,0 UV-I 0 W/m -3,1 C -12,1 C 27,4 km/h (4 Bft) 97,73 %
06.02.2018 19:48 -1,2 C 4,4 C 88 % 1012,3 hPa 0,0 l/m 22,2 km/h (4 Bft) NO 54 0 min 0,000 mm 0,0 UV-I 0 W/m -2,9 C -12,2 C 30,6 km/h (5 Bft) 98,11 %
06.02.2018 19:50 -1,2 C 4,4 C 87 % 1012,3 hPa 0,0 l/m 22,1 km/h (4 Bft) O-NO 68 0 min 0,000 mm 0,0 UV-I 0 W/m -3,1 C -12,1 C 32,2 km/h (5 Bft) 95,12 %
06.02.2018 19:52 -1,2 C 4,4 C 88 % 1012,3 hPa 0,0 l/m 22,5 km/h (4 Bft) O-NO 76 0 min 0,000 mm 0,0 UV-I 0 W/m -2,9 C -12,3 C 27,4 km/h (4 Bft) 97,73 %
06.02.2018 19:54 -1,2 C 4,4 C 88 % 1012,2 hPa 0,0 l/m 23,0 km/h (4 Bft) O-NO 69 0 min 0,000 mm 0,0 UV-I 0 W/m -2,9 C -12,5 C 30,6 km/h (5 Bft) 98,11 %
06.02.2018 19:56 -1,2 C 4,4 C 88 % 1012,2 hPa 0,0 l/m 20,3 km/h (4 Bft) O 80 0 min 0,000 mm 0,0 UV-I 0 W/m -2,9 C -11,3 C 25,7 km/h (4 Bft) 97,56 %
06.02.2018 19:58 -1,3 C 4,4 C 88 % 1012,2 hPa 0,0 l/m 19,2 km/h (3 Bft) O-NO 68 0 min 0,000 mm 0,0 UV-I 0 W/m -3,0 C -10,9 C 29,0 km/h (5 Bft) 96,23 %
06.02.2018 20:00 -1,2 C 4,4 C 88 % 1012,2 hPa 0,0 l/m 22,9 km/h (4 Bft) O-NO 60 0 min 0,000 mm 0,0 UV-I 0 W/m -2,9 C -12,5 C 33,8 km/h (5 Bft) 97,37 %
06.02.2018 20:02 -1,3 C 4,4 C 88 % 1012,2 hPa 0,0 l/m 21,0 km/h (4 Bft) O 80 0 min 0,025 mm 0,0 UV-I 0 W/m -3,0 C -11,8 C 30,6 km/h (5 Bft) 96,15 %
06.02.2018 20:04 -1,3 C 4,4 C 88 % 1012,2 hPa 0,0 l/m 21,2 km/h (4 Bft) NO 54 0 min 0,000 mm 0,0 UV-I 0 W/m -3,0 C -11,9 C 33,8 km/h (5 Bft) 98,00 %
06.02.2018 20:06 -1,3 C 4,4 C 88 % 1012,2 hPa 0,0 l/m 25,7 km/h (4 Bft) O 82 0 min 0,000 mm 0,0 UV-I 0 W/m -3,0 C -13,7 C 35,4 km/h (5 Bft) 97,44 %
06.02.2018 20:08 -1,3 C 4,4 C 88 % 1012,2 hPa 0,0 l/m 19,9 km/h (4 Bft) NO 49 0 min 0,000 mm 0,0 UV-I 0 W/m -3,0 C -11,3 C 27,4 km/h (4 Bft) 100,00 %
06.02.2018 20:10 -1,3 C 4,4 C 88 % 1012,2 hPa 0,0 l/m 25,1 km/h (4 Bft) O-NO 61 0 min 0,000 mm 0,0 UV-I 0 W/m -3,0 C -13,5 C 35,4 km/h (5 Bft) 100,00 %
06.02.2018 20:12 -1,3 C 4,4 C 88 % 1012,2 hPa 0,0 l/m 27,6 km/h (4 Bft) O-NO 74 0 min 0,000 mm 0,0 UV-I 0 W/m -3,0 C -14,4 C 38,6 km/h (5 Bft) 100,00 %
06.02.2018 20:14 -1,3 C 4,4 C 88 % 1012,2 hPa 0,0 l/m 22,5 km/h (4 Bft) O-NO 76 0 min 0,000 mm 0,0 UV-I 0 W/m -3,0 C -12,5 C 30,6 km/h (5 Bft) 98,11 %
06.02.2018 20:16 -1,3 C 4,4 C 88 % 1012,2 hPa 0,0 l/m 19,8 km/h (3 Bft) O-NO 57 0 min 0,000 mm 0,0 UV-I 0 W/m -3,0 C -11,2 C 27,4 km/h (4 Bft) 98,11 %
06.02.2018 20:18 -1,3 C 4,4 C 88 % 1012,2 hPa 0,0 l/m 20,6 km/h (4 Bft) O 86 0 min 0,000 mm 0,0 UV-I 0 W/m -3,0 C -11,6 C 29,0 km/h (5 Bft) 97,56 %
06.02.2018 20:20 -1,3 C 4,4 C 88 % 1012,2 hPa 0,0 l/m 22,0 km/h (4 Bft) NO 52 0 min 0,000 mm 0,0 UV-I 0 W/m -3,0 C -12,2 C 30,6 km/h (5 Bft) 100,00 %
06.02.2018 20:22 -1,3 C 4,4 C 88 % 1012,1 hPa 0,0 l/m 22,2 km/h (4 Bft) NO 54 0 min 0,000 mm 0,0 UV-I 0 W/m -3,0 C -12,3 C 30,6 km/h (5 Bft) 100,00 %
06.02.2018 20:24 -1,3 C 4,4 C 88 % 1012,1 hPa 0,0 l/m 20,6 km/h (4 Bft) O-NO 65 0 min 0,000 mm 0,0 UV-I 0 W/m -3,0 C -11,6 C 30,6 km/h (5 Bft) 100,00 %
06.02.2018 20:26 -1,3 C 4,4 C 88 % 1012,1 hPa 0,0 l/m 17,9 km/h (3 Bft) O-NO 75 0 min 0,000 mm 0,0 UV-I 0 W/m -3,0 C -10,2 C 24,1 km/h (4 Bft) 98,11 %
06.02.2018 20:28 -1,3 C 4,4 C 88 % 1012,2 hPa 0,0 l/m 25,7 km/h (4 Bft) O 82 0 min 0,000 mm 0,0 UV-I 0 W/m -3,0 C -13,7 C 40,2 km/h (6 Bft) 97,56 %
06.02.2018 20:30 -1,3 C 4,4 C 88 % 1012,2 hPa 0,0 l/m 24,8 km/h (4 Bft) NO 37 0 min 0,000 mm 0,0 UV-I 0 W/m -3,0 C -13,4 C 33,8 km/h (5 Bft) 95,45 %
06.02.2018 20:32 -1,3 C 4,4 C 88 % 1012,2 hPa 0,0 l/m 23,4 km/h (4 Bft) O-NO 70 0 min 0,000 mm 0,0 UV-I 0 W/m -3,0 C -12,8 C 29,0 km/h (5 Bft) 94,12 %
06.02.2018 20:34 -1,3 C 4,4 C 88 % 1012,2 hPa 0,0 l/m 24,0 km/h (4 Bft) O-NO 67 0 min 0,000 mm 0,0 UV-I 0 W/m -3,0 C -13,1 C 30,6 km/h (5 Bft) 98,00 %
06.02.2018 20:36 -1,2 C 4,4 C 88 % 1012,3 hPa 0,0 l/m 23,0 km/h (4 Bft) O 90 0 min 0,000 mm 0,0 UV-I 0 W/m -2,9 C -12,5 C 32,2 km/h (5 Bft) 98,00 %
06.02.2018 20:38 -1,3 C 4,4 C 88 % 1012,3 hPa 0,0 l/m 18,5 km/h (3 Bft) O-NO 68 0 min 0,000 mm 0,0 UV-I 0 W/m -3,0 C -10,6 C 29,0 km/h (5 Bft) 97,37 %
06.02.2018 20:40 -1,2 C 4,4 C 88 % 1012,3 hPa 0,0 l/m 24,6 km/h (4 Bft) O-NO 76 0 min 0,000 mm 0,0 UV-I 0 W/m -2,9 C -13,2 C 30,6 km/h (5 Bft) 97,87 %
06.02.2018 20:42 -1,2 C 4,4 C 88 % 1012,3 hPa 0,0 l/m 21,8 km/h (4 Bft) O-NO 65 0 min 0,000 mm 0,0 UV-I 0 W/m -2,9 C -12,0 C 30,6 km/h (5 Bft) 96,43 %
06.02.2018 20:44 -1,2 C 4,4 C 88 % 1012,3 hPa 0,0 l/m 27,1 km/h (4 Bft) NO 55 0 min 0,000 mm 0,0 UV-I 0 W/m -2,9 C -14,1 C 35,4 km/h (5 Bft) 97,37 %
06.02.2018 20:46 -1,2 C 4,4 C 88 % 1012,3 hPa 0,0 l/m 21,9 km/h (4 Bft) O 82 0 min 0,000 mm 0,0 UV-I 0 W/m -2,9 C -12,1 C 30,6 km/h (5 Bft) 97,78 %
06.02.2018 20:48 -1,2 C 4,4 C 88 % 1012,3 hPa 0,0 l/m 20,1 km/h (4 Bft) NO 53 0 min 0,000 mm 0,0 UV-I 0 W/m -2,9 C -11,2 C 27,4 km/h (4 Bft) 94,23 %
06.02.2018 20:50 -1,2 C 3,9 C 88 % 1012,3 hPa 0,0 l/m 21,9 km/h (4 Bft) NO 45 0 min 0,000 mm 0,0 UV-I 0 W/m -2,9 C -12,1 C 30,6 km/h (5 Bft) 97,87 %
06.02.2018 20:52 -1,2 C 4,4 C 88 % 1012,3 hPa 0,0 l/m 22,4 km/h (4 Bft) O-NO 68 0 min 0,000 mm 0,0 UV-I 0 W/m -2,9 C -12,3 C 32,2 km/h (5 Bft) 97,44 %
06.02.2018 20:54 -1,2 C 4,4 C 88 % 1012,2 hPa 0,0 l/m 25,6 km/h (4 Bft) O-NO 67 0 min 0,000 mm 0,0 UV-I 0 W/m -2,9 C -13,6 C 37,0 km/h (5 Bft) 96,43 %
06.02.2018 20:56 -1,2 C 4,4 C 88 % 1012,2 hPa 0,0 l/m 24,8 km/h (4 Bft) O 86 0 min 0,000 mm 0,0 UV-I 0 W/m -2,9 C -13,3 C 37,0 km/h (5 Bft) 97,56 %
06.02.2018 20:58 -1,2 C 4,4 C 88 % 1012,2 hPa 0,0 l/m 22,0 km/h (4 Bft) O-NO 63 0 min 0,000 mm 0,0 UV-I 0 W/m -2,9 C -12,1 C 29,0 km/h (5 Bft) 98,00 %
06.02.2018 21:00 -1,2 C 4,4 C 88 % 1012,2 hPa 0,0 l/m 19,5 km/h (3 Bft) O 92 0 min 0,000 mm 0,0 UV-I 0 W/m -2,9 C -10,9 C 30,6 km/h (5 Bft) 98,00 %
06.02.2018 21:02 -1,2 C 4,4 C 88 % 1012,1 hPa 0,0 l/m 24,9 km/h (4 Bft) NO 51 0 min 0,026 mm 0,0 UV-I 0 W/m -2,9 C -13,3 C 37,0 km/h (5 Bft) 97,87 %
06.02.2018 21:04 -1,2 C 3,9 C 88 % 1012,2 hPa 0,0 l/m 21,5 km/h (4 Bft) NO 45 0 min 0,000 mm 0,0 UV-I 0 W/m -2,9 C -11,9 C 33,8 km/h (5 Bft) 100,00 %
06.02.2018 21:06 -1,2 C 3,9 C 88 % 1012,1 hPa 0,0 l/m 26,8 km/h (4 Bft) O-NO 64 0 min 0,000 mm 0,0 UV-I 0 W/m -2,9 C -14,0 C 37,0 km/h (5 Bft) 100,00 %
06.02.2018 21:08 -1,2 C 4,4 C 88 % 1012,0 hPa 0,0 l/m 23,0 km/h (4 Bft) O-NO 65 0 min 0,000 mm 0,0 UV-I 0 W/m -2,9 C -12,5 C 30,6 km/h (5 Bft) 100,00 %
06.02.2018 21:10 -1,2 C 4,4 C 88 % 1012,0 hPa 0,0 l/m 23,0 km/h (4 Bft) NO 55 0 min 0,000 mm 0,0 UV-I 0 W/m -2,9 C -12,5 C 30,6 km/h (5 Bft) 98,00 %
06.02.2018 21:12 -1,2 C 4,4 C 88 % 1012,0 hPa 0,0 l/m 20,8 km/h (4 Bft) O-NO 62 0 min 0,000 mm 0,0 UV-I 0 W/m -2,9 C -11,6 C 30,6 km/h (5 Bft) 100,00 %
06.02.2018 21:14 -1,2 C 3,9 C 89 % 1012,1 hPa 0,0 l/m 20,3 km/h (4 Bft) O-NO 59 0 min 0,000 mm 0,0 UV-I 0 W/m -2,8 C -11,3 C 27,4 km/h (4 Bft) 100,00 %
06.02.2018 21:16 -1,2 C 3,9 C 89 % 1012,1 hPa 0,0 l/m 21,9 km/h (4 Bft) O-NO 74 0 min 0,000 mm 0,0 UV-I 0 W/m -2,8 C -12,1 C 27,4 km/h (4 Bft) 100,00 %
06.02.2018 21:18 -1,2 C 4,4 C 89 % 1012,0 hPa 0,0 l/m 17,7 km/h (3 Bft) O-NO 66 0 min 0,000 mm 0,0 UV-I 0 W/m -2,8 C -10,0 C 25,7 km/h (4 Bft) 94,74 %
06.02.2018 21:20 -1,2 C 4,4 C 88 % 1012,0 hPa 0,0 l/m 18,9 km/h (3 Bft) O-NO 68 0 min 0,000 mm 0,0 UV-I 0 W/m -2,9 C -10,6 C 29,0 km/h (5 Bft) 100,00 %
06.02.2018 21:22 -1,2 C 4,4 C 89 % 1012,0 hPa 0,0 l/m 22,2 km/h (4 Bft) NO 49 0 min 0,000 mm 0,0 UV-I 0 W/m -2,8 C -12,2 C 30,6 km/h (5 Bft) 100,00 %
06.02.2018 21:24 -1,2 C 4,4 C 89 % 1012,0 hPa 0,0 l/m 22,8 km/h (4 Bft) O-NO 70 0 min 0,000 mm 0,0 UV-I 0 W/m -2,8 C -12,5 C 33,8 km/h (5 Bft) 100,00 %
06.02.2018 21:26 -1,2 C 4,4 C 89 % 1012,1 hPa 0,0 l/m 22,4 km/h (4 Bft) NO 36 0 min 0,000 mm 0,0 UV-I 0 W/m -2,8 C -12,3 C 29,0 km/h (5 Bft) 100,00 %
06.02.2018 21:28 -1,2 C 3,9 C 89 % 1012,0 hPa 0,0 l/m 21,6 km/h (4 Bft) O-NO 73 0 min 0,000 mm 0,0 UV-I 0 W/m -2,8 C -11,9 C 29,0 km/h (5 Bft) 97,44 %
06.02.2018 21:30 -1,2 C 3,9 C 89 % 1012,0 hPa 0,0 l/m 20,5 km/h (4 Bft) O-SO 105 0 min 0,000 mm 0,0 UV-I 0 W/m -2,8 C -11,4 C 27,4 km/h (4 Bft) 100,00 %
06.02.2018 21:32 -1,2 C 4,4 C 89 % 1012,0 hPa 0,0 l/m 21,1 km/h (4 Bft) O 86 0 min 0,000 mm 0,0 UV-I 0 W/m -2,8 C -11,7 C 27,4 km/h (4 Bft) 100,00 %
06.02.2018 21:34 -1,2 C 4,4 C 89 % 1012,1 hPa 0,0 l/m 23,3 km/h (4 Bft) O-NO 72 0 min 0,000 mm 0,0 UV-I 0 W/m -2,8 C -12,7 C 30,6 km/h (5 Bft) 100,00 %
06.02.2018 21:36 -1,1 C 3,9 C 89 % 1012,0 hPa 0,0 l/m 18,9 km/h (3 Bft) O 81 0 min 0,000 mm 0,0 UV-I 0 W/m -2,7 C -10,5 C 29,0 km/h (5 Bft) 100,00 %
06.02.2018 21:38 -1,1 C 3,9 C 89 % 1012,0 hPa 0,0 l/m 20,2 km/h (4 Bft) O 83 0 min 0,000 mm 0,0 UV-I 0 W/m -2,7 C -11,1 C 27,4 km/h (4 Bft) 100,00 %
06.02.2018 21:40 -1,1 C 3,9 C 89 % 1012,0 hPa 0,0 l/m 20,2 km/h (4 Bft) NO 52 0 min 0,000 mm 0,0 UV-I 0 W/m -2,7 C -11,1 C 32,2 km/h (5 Bft) 100,00 %
06.02.2018 21:42 -1,1 C 3,9 C 89 % 1012,0 hPa 0,0 l/m 19,2 km/h (3 Bft) O-NO 65 0 min 0,000 mm 0,0 UV-I 0 W/m -2,7 C -10,7 C 25,7 km/h (4 Bft) 100,00 %
06.02.2018 21:44 -1,1 C 3,9 C 89 % 1012,0 hPa 0,0 l/m 22,3 km/h (4 Bft) O 88 0 min 0,000 mm 0,0 UV-I 0 W/m -2,7 C -12,1 C 30,6 km/h (5 Bft) 100,00 %
06.02.2018 21:46 -1,1 C 3,9 C 89 % 1011,9 hPa 0,0 l/m 17,3 km/h (3 Bft) NO 43 0 min 0,000 mm 0,0 UV-I 0 W/m -2,7 C -9,7 C 25,7 km/h (4 Bft) 100,00 %
06.02.2018 21:48 -1,1 C 3,9 C 89 % 1011,9 hPa 0,0 l/m 16,6 km/h (3 Bft) O-NO 69 0 min 0,000 mm 0,0 UV-I 0 W/m -2,7 C -9,3 C 25,7 km/h (4 Bft) 100,00 %
06.02.2018 21:50 -1,1 C 3,9 C 89 % 1011,9 hPa 0,0 l/m 18,4 km/h (3 Bft) O 92 0 min 0,000 mm 0,0 UV-I 0 W/m -2,7 C -10,3 C 25,7 km/h (4 Bft) 98,00 %
06.02.2018 21:52 -1,1 C 3,9 C 89 % 1011,9 hPa 0,0 l/m 16,9 km/h (3 Bft) O-NO 76 0 min 0,000 mm 0,0 UV-I 0 W/m -2,7 C -9,4 C 22,5 km/h (4 Bft) 98,00 %
06.02.2018 21:54 -1,1 C 3,9 C 89 % 1011,8 hPa 0,0 l/m 19,1 km/h (3 Bft) O-NO 69 0 min 0,000 mm 0,0 UV-I 0 W/m -2,7 C -10,6 C 27,4 km/h (4 Bft) 100,00 %
06.02.2018 21:56 -1,1 C 3,9 C 89 % 1011,8 hPa 0,0 l/m 17,3 km/h (3 Bft) NO 56 0 min 0,000 mm 0,0 UV-I 0 W/m -2,7 C -9,7 C 24,1 km/h (4 Bft) 100,00 %
06.02.2018 21:58 -1,1 C 3,9 C 89 % 1011,8 hPa 0,0 l/m 17,7 km/h (3 Bft) O-NO 74 0 min 0,000 mm 0,0 UV-I 0 W/m -2,7 C -9,9 C 25,7 km/h (4 Bft) 100,00 %
06.02.2018 22:00 -1,1 C 3,9 C 89 % 1011,8 hPa 0,0 l/m 14,8 km/h (3 Bft) O-NO 69 0 min 0,000 mm 0,0 UV-I 0 W/m -2,7 C -8,2 C 20,9 km/h (4 Bft) 100,00 %
06.02.2018 22:02 -1,1 C 3,9 C 89 % 1011,7 hPa 0,0 l/m 13,1 km/h (3 Bft) O-NO 65 0 min 0,025 mm 0,0 UV-I 0 W/m -2,7 C -7,1 C 19,3 km/h (3 Bft) 98,00 %
06.02.2018 22:04 -1,1 C 3,9 C 89 % 1011,8 hPa 0,0 l/m 17,3 km/h (3 Bft) O-NO 63 0 min 0,000 mm 0,0 UV-I 0 W/m -2,7 C -9,7 C 25,7 km/h (4 Bft) 100,00 %
06.02.2018 22:06 -1,1 C 3,9 C 89 % 1011,7 hPa 0,0 l/m 19,5 km/h (3 Bft) O-NO 72 0 min 0,000 mm 0,0 UV-I 0 W/m -2,7 C -10,8 C 25,7 km/h (4 Bft) 98,08 %
06.02.2018 22:08 -1,1 C 3,9 C 89 % 1011,7 hPa 0,0 l/m 17,4 km/h (3 Bft) O 85 0 min 0,000 mm 0,0 UV-I 0 W/m -2,7 C -9,7 C 25,7 km/h (4 Bft) 100,00 %
06.02.2018 22:10 -1,1 C 3,9 C 89 % 1011,7 hPa 0,0 l/m 17,9 km/h (3 Bft) O-NO 78 0 min 0,000 mm 0,0 UV-I 0 W/m -2,7 C -10,0 C 25,7 km/h (4 Bft) 100,00 %
06.02.2018 22:12 -1,1 C 3,9 C 89 % 1011,7 hPa 0,0 l/m 20,5 km/h (4 Bft) O-NO 65 0 min 0,000 mm 0,0 UV-I 0 W/m -2,7 C -11,3 C 30,6 km/h (5 Bft) 100,00 %
06.02.2018 22:14 -1,1 C 3,9 C 89 % 1011,7 hPa 0,0 l/m 16,8 km/h (3 Bft) O-NO 74 0 min 0,000 mm 0,0 UV-I 0 W/m -2,7 C -9,4 C 22,5 km/h (4 Bft) 100,00 %
06.02.2018 22:16 -1,1 C 3,9 C 89 % 1011,8 hPa 0,0 l/m 20,0 km/h (4 Bft) O-NO 75 0 min 0,000 mm 0,0 UV-I 0 W/m -2,7 C -11,1 C 29,0 km/h (5 Bft) 100,00 %
06.02.2018 22:18 -1,0 C 3,9 C 89 % 1011,7 hPa 0,0 l/m 22,9 km/h (4 Bft) O-NO 63 0 min 0,000 mm 0,0 UV-I 0 W/m -2,6 C -12,2 C 33,8 km/h (5 Bft) 100,00 %
06.02.2018 22:20 -1,0 C 3,9 C 89 % 1011,7 hPa 0,0 l/m 22,3 km/h (4 Bft) O-NO 69 0 min 0,000 mm 0,0 UV-I 0 W/m -2,6 C -12,0 C 29,0 km/h (5 Bft) 97,73 %
06.02.2018 22:22 -1,0 C 3,9 C 89 % 1011,7 hPa 0,0 l/m 23,6 km/h (4 Bft) O-NO 57 0 min 0,000 mm 0,0 UV-I 0 W/m -2,6 C -12,5 C 35,4 km/h (5 Bft) 98,00 %
06.02.2018 22:24 -1,0 C 3,9 C 89 % 1011,8 hPa 0,0 l/m 19,5 km/h (3 Bft) NO 55 0 min 0,000 mm 0,0 UV-I 0 W/m -2,6 C -10,7 C 30,6 km/h (5 Bft) 100,00 %
06.02.2018 22:26 -1,0 C 3,9 C 89 % 1011,8 hPa 0,0 l/m 19,4 km/h (3 Bft) NO 42 0 min 0,000 mm 0,0 UV-I 0 W/m -2,6 C -10,6 C 29,0 km/h (5 Bft) 100,00 %
06.02.2018 22:28 -1,0 C 3,9 C 89 % 1011,8 hPa 0,0 l/m 22,2 km/h (4 Bft) O 91 0 min 0,000 mm 0,0 UV-I 0 W/m -2,6 C -11,9 C 35,4 km/h (5 Bft) 100,00 %
06.02.2018 22:30 -1,0 C 3,9 C 89 % 1011,7 hPa 0,0 l/m 24,9 km/h (4 Bft) O 82 0 min 0,000 mm 0,0 UV-I 0 W/m -2,6 C -13,0 C 35,4 km/h (5 Bft) 98,11 %
06.02.2018 22:32 -1,0 C 3,9 C 89 % 1011,8 hPa 0,0 l/m 29,4 km/h (5 Bft) O 92 0 min 0,000 mm 0,0 UV-I 0 W/m -2,6 C -14,6 C 45,1 km/h (6 Bft) 97,56 %
06.02.2018 22:34 -0,9 C 3,9 C 89 % 1011,7 hPa 0,0 l/m 20,7 km/h (4 Bft) O 90 0 min 0,000 mm 0,0 UV-I 0 W/m -2,5 C -11,1 C 24,1 km/h (4 Bft) 98,00 %
06.02.2018 22:36 -0,9 C 3,9 C 89 % 1011,6 hPa 0,0 l/m 26,3 km/h (4 Bft) O 86 0 min 0,000 mm 0,0 UV-I 0 W/m -2,5 C -13,4 C 35,4 km/h (5 Bft) 97,56 %
06.02.2018 22:38 -0,9 C 3,9 C 89 % 1011,6 hPa 0,0 l/m 26,7 km/h (4 Bft) O-NO 67 0 min 0,000 mm 0,0 UV-I 0 W/m -2,5 C -13,6 C 37,0 km/h (5 Bft) 97,87 %
06.02.2018 22:40 -0,9 C 3,9 C 89 % 1011,6 hPa 0,0 l/m 26,5 km/h (4 Bft) NO 54 0 min 0,000 mm 0,0 UV-I 0 W/m -2,5 C -13,5 C 37,0 km/h (5 Bft) 95,74 %
06.02.2018 22:42 -0,9 C 3,9 C 89 % 1011,6 hPa 0,0 l/m 23,8 km/h (4 Bft) NO 47 0 min 0,000 mm 0,0 UV-I 0 W/m -2,5 C -12,5 C 35,4 km/h (5 Bft) 96,23 %
06.02.2018 22:44 -0,9 C 3,9 C 89 % 1011,6 hPa 0,0 l/m 24,9 km/h (4 Bft) NO 34 0 min 0,000 mm 0,0 UV-I 0 W/m -2,5 C -12,9 C 35,4 km/h (5 Bft) 97,44 %
06.02.2018 22:46 -0,9 C 3,9 C 89 % 1011,6 hPa 0,0 l/m 23,8 km/h (4 Bft) NO 49 0 min 0,000 mm 0,0 UV-I 0 W/m -2,5 C -12,5 C 35,4 km/h (5 Bft) 98,00 %
06.02.2018 22:48 -0,9 C 3,9 C 89 % 1011,6 hPa 0,0 l/m 21,5 km/h (4 Bft) O-NO 76 0 min 0,000 mm 0,0 UV-I 0 W/m -2,5 C -11,5 C 29,0 km/h (5 Bft) 95,45 %
06.02.2018 22:50 -1,0 C 3,9 C 89 % 1011,6 hPa 0,0 l/m 18,4 km/h (3 Bft) NO 46 0 min 0,000 mm 0,0 UV-I 0 W/m -2,6 C -10,1 C 25,7 km/h (4 Bft) 96,43 %
06.02.2018 22:52 -1,0 C 3,9 C 89 % 1011,6 hPa 0,0 l/m 19,8 km/h (3 Bft) NO 54 0 min 0,000 mm 0,0 UV-I 0 W/m -2,6 C -10,8 C 25,7 km/h (4 Bft) 95,74 %
06.02.2018 22:54 -1,0 C 3,9 C 89 % 1011,6 hPa 0,0 l/m 22,6 km/h (4 Bft) NO 49 0 min 0,000 mm 0,0 UV-I 0 W/m -2,6 C -12,1 C 33,8 km/h (5 Bft) 97,87 %
06.02.2018 22:56 -1,0 C 3,9 C 89 % 1011,5 hPa 0,0 l/m 22,2 km/h (4 Bft) O-NO 60 0 min 0,000 mm 0,0 UV-I 0 W/m -2,6 C -11,9 C 30,6 km/h (5 Bft) 97,14 %
06.02.2018 22:58 -1,0 C 3,9 C 89 % 1011,5 hPa 0,0 l/m 20,1 km/h (4 Bft) O 91 0 min 0,000 mm 0,0 UV-I 0 W/m -2,6 C -11,0 C 27,4 km/h (4 Bft) 98,21 %
06.02.2018 23:00 -1,0 C 3,9 C 89 % 1011,5 hPa 0,0 l/m 21,9 km/h (4 Bft) NO 53 0 min 0,025 mm 0,0 UV-I 0 W/m -2,6 C -11,8 C 35,4 km/h (5 Bft) 98,00 %
06.02.2018 23:02 -1,0 C 3,9 C 89 % 1011,6 hPa 0,0 l/m 22,7 km/h (4 Bft) O-NO 78 0 min 0,000 mm 0,0 UV-I 0 W/m -2,6 C -12,1 C 29,0 km/h (5 Bft) 95,12 %
06.02.2018 23:04 -1,0 C 3,9 C 89 % 1011,5 hPa 0,0 l/m 24,0 km/h (4 Bft) O 101 0 min 0,000 mm 0,0 UV-I 0 W/m -2,6 C -12,7 C 29,0 km/h (5 Bft) 95,45 %
06.02.2018 23:06 -1,0 C 3,9 C 89 % 1011,6 hPa 0,0 l/m 21,9 km/h (4 Bft) O 84 0 min 0,000 mm 0,0 UV-I 0 W/m -2,6 C -11,8 C 32,2 km/h (5 Bft) 96,00 %
06.02.2018 23:08 -1,0 C 3,9 C 89 % 1011,5 hPa 0,0 l/m 24,8 km/h (4 Bft) O-NO 67 0 min 0,000 mm 0,0 UV-I 0 W/m -2,6 C -13,0 C 37,0 km/h (5 Bft) 96,00 %
06.02.2018 23:10 -1,0 C 3,9 C 89 % 1011,5 hPa 0,0 l/m 17,9 km/h (3 Bft) O-NO 58 0 min 0,000 mm 0,0 UV-I 0 W/m -2,6 C -9,9 C 25,7 km/h (4 Bft) 100,00 %
06.02.2018 23:12 -1,0 C 3,9 C 89 % 1011,5 hPa 0,0 l/m 20,7 km/h (4 Bft) O-NO 65 0 min 0,000 mm 0,0 UV-I 0 W/m -2,6 C -11,3 C 32,2 km/h (5 Bft) 96,23 %
06.02.2018 23:14 -1,0 C 3,9 C 89 % 1011,5 hPa 0,0 l/m 24,0 km/h (4 Bft) O 82 0 min 0,000 mm 0,0 UV-I 0 W/m -2,6 C -12,7 C 32,2 km/h (5 Bft) 97,56 %
06.02.2018 23:16 -1,0 C 3,9 C 89 % 1011,5 hPa 0,0 l/m 21,2 km/h (4 Bft) NO 54 0 min 0,000 mm 0,0 UV-I 0 W/m -2,6 C -11,5 C 30,6 km/h (5 Bft) 96,23 %
06.02.2018 23:18 -1,0 C 3,9 C 89 % 1011,6 hPa 0,0 l/m 23,5 km/h (4 Bft) O-NO 61 0 min 0,000 mm 0,0 UV-I 0 W/m -2,6 C -12,5 C 35,4 km/h (5 Bft) 98,00 %
06.02.2018 23:20 -1,0 C 3,9 C 89 % 1011,6 hPa 0,0 l/m 24,9 km/h (4 Bft) O-NO 61 0 min 0,000 mm 0,0 UV-I 0 W/m -2,6 C -13,0 C 35,4 km/h (5 Bft) 94,74 %
06.02.2018 23:22 -1,0 C 3,9 C 89 % 1011,5 hPa 0,0 l/m 20,1 km/h (4 Bft) O-NO 73 0 min 0,000 mm 0,0 UV-I 0 W/m -2,6 C -11,0 C 29,0 km/h (5 Bft) 98,11 %
06.02.2018 23:24 -1,0 C 3,9 C 89 % 1011,5 hPa 0,0 l/m 23,0 km/h (4 Bft) O-NO 63 0 min 0,000 mm 0,0 UV-I 0 W/m -2,6 C -12,3 C 35,4 km/h (5 Bft) 97,87 %
06.02.2018 23:26 -1,0 C 3,9 C 89 % 1011,4 hPa 0,0 l/m 24,1 km/h (4 Bft) O-NO 78 0 min 0,000 mm 0,0 UV-I 0 W/m -2,6 C -12,7 C 35,4 km/h (5 Bft) 97,44 %
06.02.2018 23:28 -1,0 C 3,9 C 89 % 1011,4 hPa 0,0 l/m 23,6 km/h (4 Bft) O-NO 72 0 min 0,000 mm 0,0 UV-I 0 W/m -2,6 C -12,5 C 32,2 km/h (5 Bft) 96,00 %
06.02.2018 23:30 -1,0 C 3,9 C 89 % 1011,4 hPa 0,0 l/m 19,7 km/h (3 Bft) NO 52 0 min 0,000 mm 0,0 UV-I 0 W/m -2,6 C -10,8 C 29,0 km/h (5 Bft) 94,55 %
06.02.2018 23:32 -1,1 C 3,9 C 89 % 1011,4 hPa 0,0 l/m 25,2 km/h (4 Bft) O-NO 72 0 min 0,000 mm 0,0 UV-I 0 W/m -2,7 C -13,3 C 33,8 km/h (5 Bft) 97,62 %
06.02.2018 23:34 -1,0 C 3,9 C 89 % 1011,4 hPa 0,0 l/m 24,1 km/h (4 Bft) NO 51 0 min 0,000 mm 0,0 UV-I 0 W/m -2,6 C -12,7 C 33,8 km/h (5 Bft) 95,45 %
06.02.2018 23:36 -1,0 C 3,9 C 89 % 1011,5 hPa 0,0 l/m 22,3 km/h (4 Bft) O-NO 73 0 min 0,000 mm 0,0 UV-I 0 W/m -2,6 C -12,0 C 32,2 km/h (5 Bft) 97,87 %
06.02.2018 23:38 -1,1 C 3,9 C 89 % 1011,4 hPa 0,0 l/m 23,3 km/h (4 Bft) O-NO 75 0 min 0,000 mm 0,0 UV-I 0 W/m -2,7 C -12,5 C 38,6 km/h (5 Bft) 97,87 %
06.02.2018 23:40 -1,1 C 3,9 C 89 % 1011,3 hPa 0,0 l/m 24,8 km/h (4 Bft) O-NO 62 0 min 0,000 mm 0,0 UV-I 0 W/m -2,7 C -13,1 C 35,4 km/h (5 Bft) 98,00 %
06.02.2018 23:42 -1,0 C 3,9 C 90 % 1011,3 hPa 0,0 l/m 24,5 km/h (4 Bft) O-NO 59 0 min 0,000 mm 0,0 UV-I 0 W/m -2,4 C -12,9 C 32,2 km/h (5 Bft) 97,56 %
06.02.2018 23:44 -1,0 C 3,9 C 90 % 1011,2 hPa 0,0 l/m 24,3 km/h (4 Bft) NO 42 0 min 0,000 mm 0,0 UV-I 0 W/m -2,4 C -12,8 C 33,8 km/h (5 Bft) 98,11 %
06.02.2018 23:46 -1,0 C 3,9 C 90 % 1011,3 hPa 0,0 l/m 27,4 km/h (4 Bft) O-NO 58 0 min 0,000 mm 0,0 UV-I 0 W/m -2,4 C -14,0 C 37,0 km/h (5 Bft) 95,12 %
06.02.2018 23:48 -1,0 C 3,9 C 90 % 1011,3 hPa 0,0 l/m 21,2 km/h (4 Bft) O-NO 75 0 min 0,000 mm 0,0 UV-I 0 W/m -2,4 C -11,5 C 32,2 km/h (5 Bft) 92,00 %
06.02.2018 23:50 -1,0 C 3,9 C 90 % 1011,3 hPa 0,0 l/m 24,1 km/h (4 Bft) O-NO 73 0 min 0,000 mm 0,0 UV-I 0 W/m -2,4 C -12,7 C 33,8 km/h (5 Bft) 98,11 %
06.02.2018 23:52 -1,1 C 3,9 C 90 % 1011,2 hPa 0,0 l/m 22,4 km/h (4 Bft) O-NO 61 0 min 0,000 mm 0,0 UV-I 0 W/m -2,5 C -12,1 C 30,6 km/h (5 Bft) 97,37 %
06.02.2018 23:54 -1,0 C 3,9 C 90 % 1011,3 hPa 0,0 l/m 17,3 km/h (3 Bft) O 84 0 min 0,000 mm 0,0 UV-I 0 W/m -2,4 C -9,5 C 22,5 km/h (4 Bft) 98,00 %
06.02.2018 23:56 -1,0 C 3,9 C 90 % 1011,3 hPa 0,0 l/m 17,9 km/h (3 Bft) O-NO 67 0 min 0,000 mm 0,0 UV-I 0 W/m -2,4 C -9,9 C 22,5 km/h (4 Bft) 96,23 %
06.02.2018 23:58 -1,0 C 3,9 C 90 % 1011,4 hPa 0,0 l/m 17,8 km/h (3 Bft) O-SO 103 0 min 0,000 mm 0,0 UV-I 0 W/m -2,4 C -9,8 C 24,1 km/h (4 Bft) 97,56 %
_ Min-Zeit 07:34 07:16 13:42 23:44 - 06:32 - - - - - - 07:12 08:48 04:04 15:36
Minimum _ -3,7 C 3,9 C 74 % 1011,2 hPa - 5,3 km/h (1 Bft) - - - - - - -5,7 C -14,9 C 8,0 km/h (2 Bft) 88,64 %
_ Max-Zeit 15:04 00:00 23:42 00:00 00:00 22:32 - - 11:15 12:02 11:32 11:36 23:42 12:06 22:32 00:28
Maximum _ 1,1 C 4,4 C 90 % 1020,1 hPa 0,0 l/m 29,4 km/h
O (5 Bft)
- - 5 min 0,152 mm 0,9 UV-I 447 W/m -2,4 C -1,3 C 45,1 km/h
O-NO (6 Bft)
100,00 %
Durchschnitt _ -1,2 C 4,2 C 82 % 1014,8 hPa #0,0 l/m 17,1 km/h (3 Bft) O-NO - #6:42 h #1,168 mm 0,7 UV-I 200 W/m -3,8 C -9,1 C 24,1 km/h (4 Bft) 97,92 %